[[{"header":{"parameterUnit":"m.s-1","parameterCategory":1,"la1":30.6,"la2":28.766,"lo1":-90.7593,"lo2":-88.6598,"dy":0.0162,"dx":0.0183,"nx":116,"ny":114,"refTime":"2024-06-08T00:00:00:Z","depth":0,"parameterNumber":2,"parameterNumberName":"U-component_of_WINDS"},"data":[0.0,0.0,0.0,0.0,0.0,0.0,0.0,0.0,0.0,0.0,0.0,0.0,0.0,0.0,0.0,0.0,0.0,0.0,0.0,0.0,0.0,0.0,0.0,0.0,0.0,0.0,0.0,0.0,0.0,0.0,0.0,0.0,0.0,0.0,0.0,0.0,0.0,0.0,0.0,0.0,0.0,0.0,0.0,0.0,0.0,0.0,0.0,0.0,0.0,0.0,0.0,0.0,0.0,0.0,0.0,0.0,0.0,0.0,0.0,0.0,0.0,0.0,0.0,0.0,0.0,0.0,0.0,0.0,0.0,0.0,0.0,0.0,0.0,0.0,0.0,0.0,0.0,0.0,0.0,0.0,0.0,0.0,0.0,0.0,0.0,0.0,0.0,0.0,0.0,0.0,0.0,0.0,0.0,0.0,0.0,0.0,0.0,0.0,0.0,0.0,0.0,0.0,0.0,0.0,0.0,0.0,0.0,0.0,0.0,0.0,0.0,0.0,0.0,0.0,0.0,0.0,0.0,0.0,0.0,0.0,0.0,0.0,0.0,0.0,0.0,0.0,0.0,0.0,0.0,0.0,0.0,0.0,0.0,0.0,0.0,0.0,0.0,0.0,0.0,0.0,0.0,0.0,0.0,0.0,0.0,0.0,0.0,0.0,0.0,0.0,0.0,0.0,0.0,0.0,0.0,0.0,0.0,0.0,0.0,0.0,0.0,0.0,0.0,0.0,0.0,0.0,0.0,0.0,0.0,0.0,0.0,0.0,0.0,0.0,0.0,0.0,0.0,0.0,0.0,0.0,0.0,0.0,0.0,0.0,0.0,0.0,0.0,0.0,0.0,0.0,0.0,0.0,0.0,0.0,0.0,0.0,0.0,0.0,0.0,0.0,0.0,0.0,0.0,0.0,0.0,0.0,0.0,0.0,0.0,0.0,0.0,0.0,0.0,0.0,0.0,0.0,0.0,0.0,0.0,0.0,0.0,0.0,0.0,0.0,0.0,0.0,0.0,0.0,0.0,0.0,0.0,0.0,0.0,0.0,0.0,0.0,0.0,0.0,0.0,0.0,0.0,0.0,0.0,0.0,0.0,0.0,0.0,0.0,0.0,0.0,0.0,0.0,0.0,0.0,0.0,0.0,0.0,0.0,0.0,0.0,0.0,0.0,0.0,0.0,0.0,0.0,0.0,0.0,0.0,0.0,0.0,0.0,0.0,0.0,0.0,0.0,0.0,0.0,0.0,0.0,0.0,0.0,0.0,0.0,0.0,0.0,0.0,0.0,0.0,0.0,0.0,0.0,0.0,0.0,0.0,0.0,0.0,0.0,0.0,0.0,0.0,0.0,0.0,0.0,0.0,0.0,0.0,0.0,0.0,0.0,0.0,0.0,0.0,0.0,0.0,0.0,0.0,0.0,0.0,0.0,0.0,0.0,0.0,0.0,0.0,0.0,0.0,0.0,0.0,0.0,0.0,0.0,0.0,0.0,0.0,0.0,0.0,0.0,0.0,0.0,0.0,0.0,0.0,0.0,0.0,0.0,0.0,0.0,0.0,0.0,0.0,0.0,0.0,0.0,0.0,0.0,0.0,0.0,0.0,0.0,0.0,0.0,0.0,0.0,0.0,0.0,0.0,0.0,0.0,0.0,0.0,0.0,0.0,0.0,0.0,0.0,0.0,0.0,0.0,0.0,0.0,0.0,0.0,0.0,0.0,0.0,0.0,0.0,0.0,0.0,0.0,0.0,0.0,0.0,0.0,0.0,0.0,0.0,0.0,0.0,0.0,0.0,0.0,0.0,0.0,0.0,0.0,0.0,0.0,0.0,0.0,0.0,0.0,0.0,0.0,0.0,0.0,0.0,0.0,0.0,0.0,0.0,0.0,0.0,0.0,0.0,0.0,0.0,0.0,0.0,0.0,0.0,0.0,0.0,0.0,0.0,0.0,0.0,0.0,0.0,0.0,0.0,0.0,0.0,0.0,0.0,0.0,0.0,0.0,0.0,0.0,0.0,0.0,0.0,0.0,0.0,0.0,0.0,0.0,0.0,0.0,0.0,0.0,0.0,0.0,0.0,0.0,0.0,0.0,0.0,0.0,0.0,0.0,0.0,0.0,0.0,0.0,0.0,0.0,0.0,0.0,0.0,0.0,0.0,0.0,0.0,0.0,0.0,0.0,0.0,0.0,0.0,0.0,0.0,0.0,0.0,0.0,0.0,0.0,0.0,0.0,0.0,0.0,0.0,0.0,0.0,0.0,0.0,0.0,0.0,0.0,0.0,0.0,0.0,0.0,0.0,0.0,0.0,0.0,0.0,0.0,0.0,0.0,0.0,0.0,0.0,0.0,0.0,0.0,0.0,0.0,0.0,0.0,0.0,0.0,0.0,0.0,0.0,0.0,0.0,0.0,0.0,0.0,0.0,0.0,0.0,0.0,0.0,0.0,0.0,0.0,0.0,0.0,0.0,0.0,0.0,0.0,0.0,0.0,0.0,0.0,0.0,0.0,0.0,0.0,0.0,0.0,0.0,0.0,0.0,0.0,0.0,0.0,0.0,0.0,0.0,0.0,0.0,0.0,0.0,0.0,0.0,0.0,0.0,0.0,0.0,0.0,0.0,0.0,0.0,0.0,0.0,0.0,0.0,0.0,0.0,0.0,0.0,0.0,0.0,0.0,0.0,0.0,0.0,0.0,0.0,0.0,0.0,0.0,0.0,0.0,0.0,0.0,0.0,0.0,0.0,0.0,0.0,0.0,0.0,0.0,0.0,0.0,0.0,0.0,0.0,0.0,0.0,0.0,0.0,0.0,0.0,0.0,0.0,0.0,0.0,0.0,0.0,0.0,0.0,0.0,0.0,0.0,0.0,0.0,0.0,0.0,0.0,0.0,0.0,0.0,0.0,0.0,0.0,0.0,0.0,0.0,0.0,0.0,0.0,0.0,0.0,0.0,0.0,0.0,0.0,0.0,0.0,0.0,0.0,0.0,0.0,0.0,0.0,0.0,0.0,0.0,0.0,0.0,0.0,0.0,0.0,0.0,0.0,0.0,0.0,0.0,0.0,0.0,0.0,0.0,0.0,0.0,0.0,0.0,0.0,0.0,0.0,0.0,0.0,0.0,0.0,0.0,0.0,0.0,0.0,0.0,0.0,0.0,0.0,0.0,0.0,0.0,0.0,0.0,0.0,0.0,0.0,0.0,0.0,0.0,0.0,0.0,0.0,0.0,0.0,0.0,0.0,0.0,0.0,0.0,0.0,0.0,0.0,0.0,0.0,0.0,0.0,0.0,0.0,0.0,0.0,0.0,0.0,0.0,0.0,0.0,0.0,0.0,0.0,0.0,0.0,0.0,0.0,0.0,0.0,0.0,0.0,0.0,0.0,0.0,0.0,0.0,0.0,0.0,0.0,0.0,0.0,0.0,0.0,0.0,0.0,0.0,0.0,0.0,0.0,0.0,0.0,0.0,0.0,0.0,0.0,0.0,0.0,0.0,0.0,0.0,0.0,0.0,0.0,0.0,0.0,0.0,0.0,0.0,0.0,0.0,0.0,0.0,0.0,0.0,0.0,0.0,0.0,0.0,0.0,0.0,0.0,0.0,0.0,0.0,0.0,0.0,0.0,0.0,0.0,0.0,0.0,0.0,0.0,0.0,0.0,0.0,0.0,0.0,0.0,0.0,0.0,0.0,0.0,0.0,0.0,0.0,0.0,0.0,0.0,0.0,0.0,0.0,0.0,0.0,0.0,0.0,0.0,0.0,0.0,0.0,0.0,0.0,0.0,0.0,0.0,0.0,0.0,0.0,0.0,0.0,0.0,0.0,0.0,0.0,0.0,0.0,0.0,0.0,0.0,0.0,0.0,0.0,0.0,0.0,0.0,0.0,0.0,0.0,0.0,0.0,0.0,0.0,0.0,0.0,0.0,0.0,0.0,0.0,0.0,0.0,0.0,0.0,0.0,0.0,0.0,0.0,0.0,0.0,0.0,0.0,0.0,0.0,0.0,0.0,0.0,0.0,0.0,0.0,0.0,0.0,0.0,0.0,0.0,0.0,0.0,0.0,0.0,0.0,0.0,0.0,0.0,0.0,0.0,0.0,0.0,0.0,0.0,0.0,0.0,0.0,0.0,0.0,0.0,0.0,0.0,0.0,0.0,0.0,0.0,0.0,0.0,0.0,0.0,0.0,0.0,0.0,0.0,0.0,0.0,0.0,0.0,0.0,0.0,0.0,0.0,0.0,0.0,0.0,0.0,0.0,0.0,0.0,0.0,0.0,0.0,0.0,0.0,0.0,0.0,0.0,0.0,0.0,0.0,0.0,0.0,0.0,0.0,0.0,0.0,0.0,0.0,0.0,0.0,0.0,0.0,0.0,0.0,0.0,0.0,0.0,0.0,0.0,0.0,0.0,0.0,0.0,0.0,0.0,0.0,0.0,0.0,0.0,0.0,0.0,0.0,0.0,0.0,0.0,0.0,0.0,0.0,0.0,0.0,0.0,0.0,0.0,0.0,0.0,0.0,0.0,0.0,0.0,0.0,0.0,0.0,0.0,0.0,0.0,0.0,0.0,0.0,0.0,0.0,0.0,0.0,0.0,0.0,0.0,0.0,0.0,0.0,0.0,0.0,0.0,0.0,0.0,0.0,0.0,0.0,0.0,0.0,0.0,0.0,0.0,0.0,0.0,0.0,0.0,0.0,0.0,0.0,0.0,0.0,0.0,0.0,0.0,0.0,0.0,0.0,0.0,0.0,0.0,0.0,0.0,0.0,0.0,0.0,0.0,0.0,0.0,0.0,0.0,0.0,0.0,0.0,0.0,0.0,0.0,0.0,0.0,0.0,0.0,0.0,0.0,0.0,0.0,0.0,0.0,0.0,0.0,0.0,0.0,0.0,0.0,0.0,0.0,0.0,0.0,0.0,0.0,0.0,0.0,0.0,0.0,0.0,0.0,0.0,0.0,0.0,0.0,0.0,0.0,0.0,0.0,0.0,0.0,0.0,0.0,0.0,0.0,0.0,0.0,0.0,0.0,0.0,0.0,0.0,0.0,0.0,0.0,0.0,0.0,0.0,0.0,0.0,0.0,0.0,0.0,0.0,0.0,0.0,0.0,0.0,0.0,0.0,0.0,0.0,0.0,0.0,0.0,0.0,0.0,0.0,0.0,0.0,0.0,0.0,0.0,0.0,0.0,0.0,0.0,0.0,0.0,0.0,0.0,0.0,0.0,0.0,0.0,0.0,0.0,0.0,0.0,0.0,0.0,0.0,0.0,0.0,0.0,0.0,0.0,0.0,0.0,0.0,0.0,0.0,0.0,0.0,0.0,0.0,0.0,0.0,0.0,0.0,0.0,0.0,0.0,0.0,0.0,0.0,0.0,0.0,0.0,0.0,0.0,0.0,0.0,0.0,0.0,0.0,0.0,0.0,0.0,0.0,0.0,0.0,0.0,0.0,0.0,0.0,0.0,0.0,0.0,0.0,0.0,0.0,0.0,0.0,0.0,0.0,0.0,0.0,0.0,0.0,0.0,0.0,0.0,0.0,0.0,0.0,0.0,0.0,0.0,0.0,0.0,0.0,0.0,0.0,0.0,0.0,0.0,0.0,0.0,0.0,0.0,0.0,0.0,0.0,0.0,0.0,0.0,0.0,0.0,0.0,0.0,0.0,0.0,0.0,0.0,0.0,0.0,0.0,0.0,0.0,0.0,0.0,0.0,0.0,0.0,0.0,0.0,0.0,0.0,0.0,0.0,0.0,0.0,0.0,0.0,0.0,0.0,0.0,0.0,0.0,0.0,0.0,0.0,0.0,0.0,0.0,0.0,0.0,0.0,0.0,0.0,0.0,0.0,0.0,0.0,0.0,0.0,0.0,0.0,0.0,0.0,0.0,0.0,0.0,0.0,0.0,0.0,0.0,0.0,0.0,0.0,0.0,0.0,0.0,0.0,0.0,0.0,0.0,0.0,0.0,0.0,0.0,0.0,0.0,0.0,0.0,0.0,0.0,0.0,0.0,0.0,0.0,0.0,0.0,0.0,0.0,0.0,0.0,0.0,0.0,0.0,0.0,0.0,0.0,0.0,0.0,0.0,0.0,0.0,0.0,0.0,0.0,0.0,0.0,0.0,0.0,0.0,0.0,-0.6782,0.0,0.0,0.0,0.0,0.0,0.0,0.0,0.0,0.0,0.0,0.0,0.0,0.0,0.0,0.0,0.0,0.0,0.0,0.0,0.0,0.0,0.0,0.0,0.0,-0.8918,-0.8812,-0.8845,-0.81,-0.7693,-0.7832,0.0,0.0,0.0,0.0,0.0,-0.6681,-0.6363,-0.7074,-0.8854,-0.8288,-0.8802,-1.0291,-1.0615,-1.0336,-0.9527,0.0,0.0,0.0,0.0,0.0,0.0,0.0,0.0,0.0,0.0,0.0,0.0,0.0,0.0,0.0,0.0,0.0,0.0,0.0,0.0,0.0,0.0,0.0,0.0,0.0,0.0,0.0,0.0,0.0,0.0,0.0,0.0,0.0,0.0,0.0,0.0,0.0,0.0,0.0,0.0,0.0,0.0,0.0,0.0,0.0,0.0,0.0,0.0,0.0,0.0,0.0,0.0,0.0,0.0,0.0,0.0,0.0,0.0,0.0,0.0,0.0,0.0,0.0,0.0,0.0,0.0,0.0,0.0,0.0,0.0,0.0,-0.8477,0.0,0.0,0.0,0.0,0.0,0.0,0.0,0.0,0.0,0.0,0.0,0.0,0.0,0.0,0.0,0.0,0.0,0.0,0.0,0.0,0.0,-0.8989,-0.9131,-0.9011,-0.8964,-0.91,-0.851,-0.8193,-0.8283,-0.7486,0.0,0.0,0.0,-0.6519,-0.7192,-0.6666,-0.7655,-1.0271,-0.9735,-1.0621,-1.2847,-1.4146,-1.3727,-1.1833,-1.0707,0.0,0.0,0.0,0.0,0.0,0.0,0.0,0.0,0.0,0.0,0.0,0.0,0.0,0.0,0.0,0.0,0.0,0.0,0.0,0.0,0.0,0.0,0.0,0.0,0.0,0.0,0.0,0.0,0.0,0.0,0.0,0.0,0.0,0.0,0.0,0.0,0.0,0.0,0.0,0.0,0.0,0.0,0.0,0.0,0.0,0.0,0.0,0.0,0.0,0.0,0.0,0.0,0.0,0.0,0.0,0.0,0.0,0.0,0.0,0.0,0.0,0.0,0.0,-1.4317,-1.462,-1.4541,-1.4541,-1.473,-1.4997,-1.2742,-1.2122,-1.254,0.0,0.0,0.0,0.0,0.0,0.0,0.0,0.0,0.0,0.0,0.0,0.0,0.0,0.0,0.0,0.0,0.0,0.0,0.0,0.0,-0.9154,-0.9339,-0.9134,-0.9135,-0.9489,-0.8802,-0.8442,-0.8632,-0.7927,0.0,0.0,-0.7507,-0.7452,-0.7611,-0.7537,-0.8365,-1.0121,-1.2014,-1.3872,-1.5654,-1.5762,-1.5943,-1.6091,-1.3636,-1.293,-1.3416,0.0,0.0,0.0,0.0,0.0,0.0,0.0,0.0,0.0,0.0,0.0,0.0,0.0,0.0,0.0,0.0,0.0,0.0,0.0,0.0,0.0,0.0,0.0,0.0,0.0,0.0,0.0,0.0,0.0,0.0,0.0,0.0,0.0,0.0,0.0,0.0,0.0,0.0,0.0,0.0,0.0,-0.9151,-0.9899,0.0,0.0,0.0,0.0,0.0,0.0,0.0,0.0,0.0,0.0,0.0,0.0,0.0,-1.4294,-1.4704,-1.6354,-1.7149,-1.713,-1.833,-1.8789,-1.861,-1.861,-1.8528,-1.8385,-1.8362,0.0,-1.4188,-1.3777,0.0,0.0,0.0,0.0,0.0,0.0,0.0,0.0,0.0,0.0,0.0,0.0,0.0,0.0,0.0,0.0,0.0,0.0,0.0,0.0,0.0,-1.0135,-1.0394,-1.1211,-1.1063,-1.0589,-0.9765,-0.9407,-0.8852,-0.8027,-0.7782,-0.7887,-0.8372,-0.8886,-1.0424,-1.3026,-1.5891,-1.7661,-1.8355,-1.9277,-1.9784,-1.9845,-1.8186,-1.645,-1.4679,-1.2583,0.0,0.0,0.0,0.0,0.0,0.0,0.0,0.0,0.0,0.0,0.0,0.0,0.0,0.0,0.0,0.0,0.0,0.0,0.0,0.0,0.0,0.0,0.0,0.0,0.0,0.0,0.0,0.0,0.0,0.0,0.0,0.0,0.0,0.0,0.0,0.0,0.0,0.0,0.0,-0.9941,-1.1238,-1.17,-1.2464,-1.2696,0.0,0.0,0.0,0.0,0.0,0.0,0.0,0.0,0.0,-1.7151,-1.7567,-1.8221,-1.9146,-1.971,-1.9949,-1.989,-2.0706,-2.1003,-2.0798,-2.0954,-2.0959,-2.0808,-2.0907,-1.9973,-1.8274,-1.6813,-1.5638,-1.4673,0.0,0.0,0.0,0.0,-1.3989,-1.4423,0.0,0.0,0.0,0.0,0.0,0.0,0.0,0.0,0.0,0.0,0.0,0.0,-1.0863,-1.1167,-1.174,-1.2862,-1.3109,-1.2676,-1.1467,-1.0983,-1.0198,-0.8943,-0.8532,-0.8715,-0.9539,-1.0899,-1.3117,-1.6267,-1.893,-2.0392,-2.0752,-2.2048,-2.2525,-2.2217,-2.1563,-1.957,-1.6555,-1.4637,-1.3256,-1.2255,0.0,0.0,0.0,0.0,0.0,0.0,0.0,0.0,0.0,0.0,0.0,0.0,0.0,0.0,0.0,0.0,0.0,0.0,0.0,0.0,0.0,0.0,0.0,0.0,0.0,0.0,0.0,0.0,0.0,0.0,0.0,0.0,0.0,0.0,0.0,0.0,0.0,-1.186,-1.3272,-1.3756,-1.5035,-1.5484,0.0,0.0,0.0,0.0,0.0,0.0,-1.701,-1.8135,-1.9422,-2.0904,-2.1034,-2.1516,-2.2477,-2.2236,-2.2029,-2.1889,-2.2413,-2.2568,-2.239,-2.2557,-2.2639,-2.2678,-2.2541,-2.2379,-2.2029,-1.9626,-1.8333,-1.7716,-1.6617,-1.5955,-1.5741,-1.6789,-1.7214,-1.753,0.0,0.0,0.0,0.0,0.0,0.0,0.0,0.0,0.0,0.0,0.0,-0.9927,-1.1055,-1.1867,-1.2768,-1.3843,-1.3943,-1.3914,-1.3823,-1.2325,-1.1411,-1.1327,-1.0523,-1.0485,-1.1359,-1.3783,-1.6314,-1.8913,-1.9842,-2.1117,-2.2662,-2.2802,-2.2704,-2.2394,-2.2342,-2.1619,-2.0263,-1.7697,-1.6092,-1.5068,-1.2604,0.0,0.0,0.0,0.0,0.0,0.0,0.0,0.0,0.0,0.0,0.0,0.0,0.0,0.0,0.0,0.0,0.0,0.0,0.0,0.0,0.0,0.0,0.0,0.0,0.0,0.0,0.0,0.0,0.0,0.0,0.0,0.0,0.0,0.0,0.0,0.0,0.0,0.0,-1.6184,-1.7439,0.0,0.0,0.0,0.0,-1.8389,-1.9188,-2.0181,-2.1411,-2.2256,-2.3056,-2.3778,-2.3358,-2.3098,-2.2984,-2.3122,-2.3116,-2.2915,-2.3593,-2.3834,-2.3713,-2.3591,-2.3704,-2.4013,-2.3872,-2.4045,-2.4264,-2.2114,-2.086,-2.0355,-2.0657,-2.0686,-2.0584,-2.0981,-2.1252,-2.143,0.0,0.0,0.0,0.0,0.0,-0.9358,-0.9448,-0.9285,-0.9269,-0.9584,-0.9924,-1.0862,-1.2738,-1.3735,-1.487,-1.6379,-1.6513,-1.6056,-1.4969,-1.3821,-1.3164,-1.3178,-1.234,-1.2813,-1.4806,-1.6836,-1.8564,-1.9999,-2.1898,-2.3137,-2.3783,-2.4288,-2.442,-2.4255,-2.4131,-2.3499,-2.2323,-1.9623,-1.7969,-1.6952,-1.4453,-1.2658,0.0,0.0,0.0,0.0,0.0,0.0,0.0,0.0,0.0,0.0,0.0,0.0,0.0,0.0,0.0,0.0,0.0,0.0,0.0,0.0,0.0,0.0,0.0,0.0,0.0,0.0,0.0,0.0,0.0,0.0,0.0,0.0,0.0,0.0,0.0,0.0,0.0,-1.8567,-1.9922,0.0,-2.018,-2.0636,-2.1221,-2.1876,-2.2457,-2.309,-2.3753,-2.4073,-2.466,-2.5648,-2.5682,-2.5865,-2.6269,-2.6563,-2.6586,-2.6347,-2.6841,-2.6971,-2.6767,-2.6906,-2.6984,-2.7056,-2.6922,-2.6763,-2.6535,-2.5767,-2.4202,-2.2275,-2.1843,-2.1658,-2.1648,-2.1984,-2.237,-2.2769,0.0,0.0,0.0,0.0,-0.9455,-0.9475,-0.9546,-0.9245,-0.9296,-1.0132,-1.0403,-1.1522,-1.412,-1.5207,-1.6443,-1.8197,-1.8095,-1.7458,-1.6325,-1.4902,-1.4097,-1.4107,-1.4108,-1.5196,-1.7534,-1.9297,-2.0719,-2.1816,-2.3454,-2.4408,-2.4677,-2.5224,-2.5375,-2.519,-2.5069,-2.4581,-2.3761,-2.1591,-2.002,-1.8776,-1.6527,-1.4831,-1.3503,0.0,0.0,0.0,0.0,0.0,0.0,0.0,0.0,0.0,0.0,0.0,0.0,0.0,0.0,0.0,0.0,0.0,0.0,0.0,0.0,0.0,0.0,0.0,0.0,0.0,0.0,0.0,0.0,0.0,0.0,0.0,0.0,0.0,0.0,0.0,-1.9573,-2.0651,-2.2019,-2.2817,-2.2669,-2.3392,-2.4073,-2.4506,-2.5083,-2.5512,-2.5728,-2.6239,-2.6876,-2.7613,-2.7907,-2.8252,-2.8657,-2.8731,-2.8629,-2.8369,-2.8607,-2.8641,-2.8469,-2.8602,-2.8728,-2.8817,-2.8615,-2.841,-2.8238,-2.8122,-2.6919,-2.5038,-2.421,-2.3955,-2.4088,-2.4312,-2.4597,-2.4958,0.0,0.0,0.0,-0.9526,-0.9506,-0.9542,-0.9653,-0.9282,-0.9538,-1.1079,-1.089,-1.1844,-1.5086,-1.6153,-1.7337,-1.9049,-1.8465,-1.796,-1.7869,-1.5504,-1.4122,-1.4176,-1.5893,-1.7656,-1.9333,-2.109,-2.277,-2.4391,-2.4427,-2.4762,-2.5405,-2.5549,-2.5394,-2.5012,-2.5016,-2.4885,-2.4636,-2.3651,-2.2292,-2.0646,-1.8816,-1.7625,-1.6663,0.0,0.0,0.0,0.0,0.0,0.0,0.0,0.0,0.0,0.0,0.0,0.0,0.0,0.0,0.0,0.0,0.0,0.0,0.0,0.0,0.0,0.0,0.0,0.0,0.0,0.0,0.0,0.0,0.0,0.0,0.0,0.0,0.0,-1.8798,-2.0004,-2.1247,-2.247,-2.3713,-2.4605,-2.4948,-2.5749,-2.626,-2.6315,-2.7037,-2.7477,-2.7526,-2.8941,-2.9751,-2.9751,-3.0006,-3.0072,-2.9894,-2.9437,-2.9091,-2.8828,-2.877,-2.8716,-2.8733,-2.859,-2.8769,-2.9176,-2.8838,-2.8961,-2.9366,-2.9028,-2.8863,-2.8732,-2.7931,-2.7843,-2.8115,-2.8096,-2.8119,-2.8125,0.0,0.0,-0.9804,-0.9677,-0.964,-0.9532,-0.9236,-0.8882,-0.9174,-1.0668,-1.106,-1.2506,-1.5973,-1.7109,-1.8066,-1.9179,-1.8496,-1.7712,-1.7069,-1.5187,-1.4667,-1.5929,-1.882,-2.0623,-2.1093,-2.2812,-2.3944,-2.4391,-2.4975,-2.538,-2.5621,-2.5566,-2.5424,-2.5216,-2.5168,-2.4973,-2.4673,-2.4253,-2.3772,-2.3112,-2.0815,-1.9047,-1.7624,0.0,0.0,0.0,0.0,0.0,0.0,0.0,0.0,0.0,0.0,0.0,0.0,0.0,0.0,0.0,0.0,0.0,0.0,0.0,0.0,0.0,0.0,0.0,0.0,0.0,0.0,0.0,0.0,0.0,0.0,0.0,0.0,-2.1376,-2.1406,-2.2345,-2.3592,-2.5078,-2.5611,-2.6107,-2.6728,-2.7047,-2.7688,-2.8796,-2.9137,-2.9538,-3.0115,-3.0563,-3.0787,-3.0787,-3.1331,-3.1603,-3.1538,-3.1851,-3.1912,-3.1766,-3.1733,-3.1616,-3.1429,-3.1394,-3.1359,-3.1341,-3.1253,-3.1218,-3.1253,-3.1165,-3.1147,-3.0973,-2.9015,-2.8265,-2.8318,-2.8204,-2.834,-2.8572,0.0,-0.9853,-0.9886,-0.9832,-0.9751,-0.9565,-0.9175,-0.894,-0.9255,-1.0568,-1.131,-1.2834,-1.5838,-1.693,-1.7807,-1.8672,-1.7965,-1.7239,-1.6736,-1.5757,-1.6125,-1.8194,-2.0544,-2.2148,-2.2871,-2.4238,-2.4941,-2.4939,-2.5413,-2.5648,-2.5653,-2.5609,-2.5489,-2.5296,-2.5249,-2.5067,-2.4738,-2.4588,-2.4442,-2.4164,-2.2736,-2.1348,-2.0034,-1.8855,-1.7797,-1.6915,-1.6531,-1.5957,-1.538,-1.5317,0.0,0.0,0.0,0.0,0.0,0.0,0.0,0.0,0.0,0.0,0.0,0.0,0.0,0.0,0.0,0.0,0.0,0.0,0.0,0.0,0.0,0.0,0.0,0.0,-2.2228,-2.3689,-2.4579,-2.4887,-2.5494,-2.6775,-2.6962,-2.743,-2.8511,-2.8686,-2.9228,-3.0447,-3.0588,-3.0827,-3.1297,-3.16,-3.1756,-3.1796,-3.2452,-3.2787,-3.2787,-3.311,-3.3241,-3.315,-3.3119,-3.3026,-3.2868,-3.2854,-3.2773,0.0,-3.2489,-3.2369,-3.23,-3.23,-3.2282,0.0,0.0,0.0,0.0,0.0,-2.9971,-3.0023,0.0,-0.9899,-0.9924,-0.9971,-0.9847,-0.9636,-0.9345,-0.925,-0.961,-1.0662,-1.1562,-1.2938,-1.5156,-1.6168,-1.7006,-1.7793,-1.7145,-1.6693,-1.6699,-1.6875,-1.8047,-2.0391,-2.1523,-2.2812,-2.4371,-2.5252,-2.5702,-2.5702,-2.57,-2.5666,-2.5613,-2.5678,-2.5556,-2.5315,-2.5316,-2.5133,-2.483,-2.4749,-2.4567,-2.433,-2.4303,-2.3778,-2.2841,-2.1346,-2.0723,-2.0558,-1.9821,-1.8657,-1.7426,-1.7358,0.0,0.0,0.0,0.0,0.0,0.0,0.0,0.0,0.0,0.0,0.0,0.0,0.0,0.0,0.0,0.0,0.0,0.0,0.0,0.0,0.0,0.0,0.0,0.0,-2.3989,-2.5407,-2.7611,-2.7351,-2.7161,-2.7875,-2.8029,-2.8647,-3.0073,-3.036,-3.0765,-3.1495,-3.1599,-3.1691,-3.1783,0.0,0.0,0.0,0.0,-3.3619,-3.3619,-3.3534,-3.3506,-3.3506,-3.3452,-3.3408,-3.3408,-3.3352,-3.3307,-3.3292,-3.2928,-3.2766,-3.2766,-3.2781,-3.2747,-3.2631,-3.2298,-3.2195,-3.2246,-3.2416,-3.2196,-3.1914,0.0,-0.9911,-0.9948,-0.9848,-0.9887,-0.98,-0.937,-0.933,-0.972,-1.0752,-1.1592,-1.2938,-1.5156,-1.6138,-1.6718,-1.6934,-1.6744,-1.6637,-1.6698,-1.8027,-1.9316,-2.0447,-2.2673,-2.4058,-2.4381,-2.525,-2.5702,-2.57,-2.5692,-2.5681,-2.5671,-2.5694,-2.5598,-2.5387,-2.5375,-2.5245,-2.5019,-2.4854,-2.4693,-2.4526,-2.4375,-2.3778,-2.2969,-2.2575,-2.2071,-2.1502,-2.125,-2.0985,-2.0753,-2.0685,-1.9162,-1.7285,-1.7121,-1.5732,0.0,0.0,0.0,0.0,0.0,0.0,0.0,0.0,0.0,0.0,0.0,0.0,0.0,0.0,0.0,0.0,0.0,0.0,0.0,-2.3814,-2.5901,-2.7512,-2.7993,-2.8516,-2.8886,-2.8909,-2.9499,-3.0016,-3.033,-3.0969,-3.1678,-3.2465,-3.2533,-3.2841,-3.3487,-3.3594,-3.3634,-3.3647,-3.3661,-3.3671,-3.3671,-3.3601,-3.3577,-3.3577,0.0,0.0,-3.3481,-3.3466,-3.3437,-3.3382,-3.3304,-3.3226,-3.3198,-3.3361,-3.3542,-3.3639,-3.288,-3.253,-3.2482,-3.2773,-3.2759,-3.2634,-0.9882,-0.9963,-0.9986,-0.9919,-0.9946,-0.9868,-0.9467,-0.9605,-0.9869,-1.0214,-1.1178,-1.227,-1.3339,-1.4199,-1.4701,-1.4743,-1.5518,-1.6204,-1.6679,-1.8747,-2.0501,-2.1747,-2.3467,-2.4599,-2.5042,-2.5483,-2.57,-2.5697,-2.5706,-2.5698,-2.5694,-2.5692,-2.5625,-2.5509,-2.5509,-2.5374,-2.514,-2.5043,-2.4849,-2.4591,-2.4485,-2.4134,-2.3649,-2.3612,-2.3364,-2.3042,-2.2933,-2.2657,-2.2354,-2.2301,-2.1229,-1.9759,-1.891,-1.7848,-1.6505,0.0,0.0,0.0,0.0,0.0,0.0,0.0,0.0,0.0,0.0,0.0,0.0,0.0,0.0,-2.0223,0.0,0.0,-2.4718,-2.5996,-2.7257,-2.826,-2.8687,-2.9148,-2.9568,-2.9871,-3.0257,-3.0813,-3.1621,-3.2055,-3.2617,-3.3383,-3.3457,-3.3623,-3.403,-3.3985,-3.3972,-3.3998,-3.3868,-3.3807,-3.3807,-3.3739,-3.3698,-3.3698,-3.3698,-3.389,-3.425,-3.4235,-3.4493,-3.4954,-3.4883,-3.4907,-3.5014,-3.5138,-3.5095,-3.4894,-3.4421,-3.3727,-3.2991,-3.3339,-3.3281,-3.309,-0.9948,-0.9998,-1.0009,-1.0018,-1.0038,-0.9955,-0.9674,-0.9905,-1.0026,-0.9763,-1.0823,-1.1582,-1.1537,-1.2285,-1.2805,-1.2796,-1.4236,-1.5586,-1.6635,-1.9148,-2.1349,-2.3021,-2.41,-2.4981,-2.5682,-2.5694,-2.5696,-2.571,-2.5701,-2.5692,-2.5705,-2.5685,-2.5651,-2.5601,-2.5589,-2.5457,-2.5224,-2.5171,-2.4943,-2.4643,-2.4599,-2.4478,-2.4348,-2.4348,-2.4339,-2.4284,-2.4063,-2.3566,-2.2995,-2.2849,-2.2224,-2.1303,-1.9974,-1.947,-1.8834,-1.6036,-1.5576,0.0,0.0,0.0,0.0,0.0,0.0,0.0,0.0,0.0,-1.9383,-2.1116,-2.2172,-2.317,-2.4422,-2.5486,-2.6591,-2.7891,-2.8394,-2.8879,-2.9568,-2.9734,-3.0044,-3.0791,-3.0892,-3.1395,-3.2687,-3.3126,-3.3538,-3.4105,-3.4161,-3.4148,-3.4124,-3.4061,-3.4049,-3.4099,-3.3985,-3.4013,-3.4179,-3.4126,-3.4159,-3.432,-3.432,-3.466,-3.5257,-3.5215,-3.568,-3.6523,-3.6438,-3.6563,-3.6824,-3.6824,-3.6573,-3.6182,-3.6117,-3.528,-3.4124,-3.4013,-3.3757,-3.3476,0.0,-0.9954,-1.0019,-1.0074,-1.0133,-1.0151,-1.0132,-1.0168,-1.0207,-1.0212,-1.1035,-1.1601,-1.1596,-1.2304,-1.2803,-1.2808,-1.3689,-1.494,-1.6592,-1.9145,-2.1343,-2.3028,-2.4679,-2.5595,-2.5697,-2.5694,-2.5699,-2.5693,-2.5702,-2.5696,-2.5694,-2.5648,-2.5615,-2.5598,-2.5531,-2.5468,-2.536,-2.5053,-2.4904,-2.4854,-2.4604,-2.4508,-2.4482,-2.4482,-2.4447,-2.4293,-2.3509,-2.3168,-2.2973,-2.2265,-2.1404,-2.0619,-2.0486,-1.9926,-1.9103,-1.8098,0.0,-1.6829,-1.6719,-1.7349,-1.8194,-1.8969,-1.9132,-2.0068,0.0,0.0,-2.3115,-2.5558,-2.617,-2.631,-2.6534,-2.7269,-2.7891,-2.8077,-2.9451,-3.053,-3.0623,-3.0694,-3.1043,-3.183,-3.1924,-3.1999,-3.2177,-3.3556,-3.4412,-3.4363,-3.4381,-3.4305,-3.4197,-3.4124,-3.4099,-3.4099,-3.4023,-3.4367,-3.5143,-3.5143,-3.5494,-3.6196,-3.6196,-3.621,-3.6237,-3.6255,-3.6399,-3.6688,-3.6789,-3.6983,-3.7219,-3.7039,-3.7079,-3.7229,-3.7154,-3.6979,-3.6569,-3.4881,-3.4105,-3.3921,0.0,-0.9925,-0.9965,-1.0023,-1.0131,-1.0195,-1.0209,-1.0199,-1.022,-1.0289,-1.0622,-1.084,-1.0834,-1.1111,-1.1298,-1.129,-1.3007,-1.4625,-1.5861,-1.8837,-2.1306,-2.3036,-2.4276,-2.5174,-2.5692,-2.5707,-2.5693,-2.571,-2.5699,-2.5687,-2.5636,-2.5619,-2.5585,-2.5531,-2.5434,-2.5354,-2.5269,-2.5011,-2.4843,-2.4779,-2.466,-2.4566,-2.4444,-2.3944,-2.3741,-2.3651,-2.3293,-2.2832,0.0,-2.2005,-2.1637,-2.1242,-2.0757,-2.0054,-1.9254,-1.8446,-1.8319,0.0,-2.0256,-2.0904,-2.1348,0.0,-2.2666,-2.3435,-2.5236,-2.544,-2.5513,-2.6626,-2.7239,-2.7565,-2.7584,-2.8282,-2.9037,0.0,-3.0314,-3.0982,-3.1502,-3.1205,-3.1073,-3.1422,-3.1525,-3.1893,-3.2724,-3.3427,-3.4036,-3.448,-3.4517,-3.4701,-3.5105,-3.5037,-3.5212,-3.5708,-3.5595,-3.5703,-3.6054,-3.6014,-3.6172,-3.65,-3.65,-3.6731,-3.7155,-3.7155,-3.7639,-3.8469,-3.8742,-3.8946,-3.9042,-3.8905,-3.8629,-3.8261,-3.8192,-3.7807,-3.7221,-3.6318,-3.5848,-3.5622,0.0,-0.9903,-0.9922,-0.9995,-1.0074,-1.0149,-1.0143,-1.0161,-1.0195,-1.0258,-1.0283,-1.0291,-1.0307,-1.0234,-1.0211,-1.0225,-1.2383,-1.4116,-1.4976,-1.826,-2.0828,-2.233,-2.368,-2.4697,-2.5338,-2.558,-2.5702,-2.5702,-2.5689,-2.5654,-2.56,-2.5578,-2.5559,-2.5482,-2.5374,-2.5274,-2.5152,-2.4974,-2.4821,-2.47,-2.4653,-2.4433,-2.4063,-2.3452,-2.28,-2.2221,-2.2213,-2.18,-2.1174,-2.0725,-2.0551,-2.0485,-2.0096,-1.9601,-1.9119,-1.895,-1.9656,-2.0852,-2.2438,-2.3356,0.0,-2.4328,-2.5153,-2.5948,-2.6256,-2.6756,-2.7209,-2.7509,-2.8039,-2.8447,-2.8467,-2.8969,-2.9709,-3.0642,-3.101,-3.1473,-3.2371,-3.1855,-3.14,-3.14,-3.1056,-3.1417,-3.2909,-3.3275,-3.3754,-3.458,-3.4862,-3.5227,-3.5769,-3.5895,-3.6247,-3.6876,-3.6725,-3.6732,-3.6954,-3.6914,-3.6998,-3.722,-3.722,-3.7507,-3.8071,-3.8123,-3.8712,-3.9728,-4.007,-4.0261,-4.0316,-4.0253,-3.9862,-3.928,-3.9233,-3.8784,-3.8154,-3.805,-3.7581,-3.6892,0.0,0.0,-0.9922,-0.9995,-1.0009,-1.0,-1.0012,-1.0063,-1.012,-1.0198,-1.0258,-1.0291,-1.0307,-1.0243,-1.0225,-1.029,-1.1855,-1.3217,-1.408,-1.7409,-1.9705,-2.0539,-2.3031,-2.4413,-2.4432,-2.527,-2.5699,-2.5699,-2.5622,-2.5591,-2.5608,-2.5531,-2.5505,-2.5495,-2.5436,-2.5284,-2.5086,-2.4962,-2.4818,-2.4692,-2.4557,-2.4008,-2.324,-2.3203,-2.1794,-1.98,-1.9724,-1.9643,-1.9325,-1.777,-1.7194,-1.7279,-1.8101,-1.831,0.0,-2.0144,-2.1787,-2.2924,-2.2237,0.0,-2.5366,-2.4668,-2.5634,-2.6977,-2.7754,-2.7939,-2.8199,-2.9042,-2.9246,-2.9286,-2.9349,-2.9378,-2.9709,-3.0642,-3.152,-3.239,-3.3336,-3.2817,-3.236,-3.236,-3.0939,-3.0598,0.0,-3.3193,-3.4008,-3.4742,-3.5524,-3.5916,-3.5807,-3.6468,-3.6876,-3.6894,-3.6763,-3.7058,-3.7856,-3.7856,-3.8247,-3.9027,-3.9027,-3.899,-3.8956,-3.9154,-3.9433,-3.9717,-3.992,-4.0167,-4.0379,-4.0316,-4.0279,-4.026,-4.0262,-4.0196,-4.012,-4.011,-3.8883,-3.7194,0.0,0.0,0.0,-0.9853,-0.9856,-0.9869,-0.986,-0.9962,-1.0063,-1.0122,-1.0192,0.0,0.0,0.0,0.0,0.0,-1.1279,-1.2555,-1.4001,-1.625,-1.8397,-2.04,-2.185,-2.2877,-2.346,-2.4333,-2.4778,-2.4778,-2.5332,-2.5587,-2.5531,-2.5511,-2.5472,-2.5437,-2.5265,-2.5159,-2.5099,-2.4855,-2.4734,-2.4636,-2.3917,-2.3471,-2.3155,-2.2705,-2.133,-1.9565,0.0,-1.8552,-1.7943,-1.7306,-1.7102,-1.7207,-1.8047,-1.7917,-1.7899,-2.0125,-2.1543,-2.2693,-2.4022,0.0,-2.582,-2.6672,-2.7254,-2.7826,-2.8742,-2.8889,-2.8794,-2.8557,-2.8493,-2.8364,-2.7885,-2.821,-2.8882,-2.9964,-3.1242,-3.2457,-3.3497,-3.3411,-3.3259,-3.3259,-3.2246,0.0,0.0,0.0,0.0,-3.4765,-3.5655,-3.6345,-3.6843,-3.7476,-3.8071,-3.8608,-3.8417,-3.8414,-3.8692,-3.8692,-3.8822,-3.9101,-3.9101,-3.9087,-3.9073,-3.9324,-3.9549,-3.9772,-3.9982,-4.0224,-4.0458,-4.0388,-4.037,-4.0362,-4.0317,-4.029,-4.0272,-4.0272,-3.9804,-3.9104,0.0,0.0,0.0,0.0,0.0,0.0,0.0,0.0,0.0,0.0,0.0,0.0,0.0,0.0,0.0,0.0,0.0,-1.1972,-1.3098,-1.5028,-1.6901,-1.8601,-2.005,-2.1077,-2.1621,-2.2501,-2.3082,-2.3405,-2.3936,-2.4341,-2.4574,-2.4566,-2.4532,-2.4469,-2.4303,-2.423,-2.4192,-2.3931,-2.3799,-2.372,-2.2736,-2.2163,-2.1826,-2.1087,-1.9768,0.0,-1.7804,-1.7112,-1.6388,-1.6288,-1.6427,-1.6854,-1.7949,-1.8753,-1.9583,-2.1198,-2.245,-2.3657,-2.5199,-2.607,-2.6756,-2.7832,-2.8293,-2.8664,-2.9256,-2.9124,-2.8713,-2.8216,-2.7873,-2.753,-2.7074,-2.7373,-2.8147,-2.9575,-3.0847,-3.2147,-3.3497,-3.3695,-3.3695,-3.3695,-3.2937,-3.2747,0.0,0.0,0.0,-3.4794,-3.5969,-3.6851,-3.7382,-3.8286,-3.9024,-3.9495,-3.9285,-3.9156,-3.9101,-3.9101,-3.9101,-3.9101,-3.9101,-3.9137,-3.9245,-3.9427,-3.9667,-3.9953,-4.0091,-4.026,-4.0507,-4.0458,-4.0432,-4.0432,-4.037,-4.0344,-4.0344,-4.0346,-4.0291,-4.0139,0.0,0.0,0.0,0.0,0.0,0.0,0.0,0.0,0.0,0.0,0.0,0.0,0.0,0.0,0.0,0.0,0.0,0.0,-1.1506,-1.3808,-1.5224,-1.5314,-1.7729,-1.9071,-1.9071,-1.9963,-2.0836,-2.1653,-2.1646,-2.202,-2.2772,-2.2773,-2.2736,-2.2673,-2.2613,-2.2546,-2.2459,-2.2199,-2.2093,-2.2007,-2.1067,-2.0221,-1.9441,-1.8631,-1.7341,-1.5989,-1.5982,-1.5455,-1.4799,-1.4817,-1.5417,0.0,0.0,0.0,-2.3155,-2.324,-2.4389,-2.5671,-2.5801,-2.6944,-2.8114,-2.8152,-2.8783,-2.9388,-2.9341,-2.869,-2.8059,-2.7947,-2.7315,-2.6767,0.0,0.0,-2.7401,-2.9293,-3.033,-3.1535,-3.3364,-3.3714,-3.3771,0.0,0.0,0.0,0.0,0.0,0.0,-3.4965,0.0,-3.742,-3.7457,-3.8893,-3.9647,-3.9495,-3.9376,-3.9232,-3.9101,-3.9101,-3.9101,-3.9101,-3.9101,-3.9232,-3.9514,-3.9514,-3.9766,-4.0205,-4.0205,-4.0313,-4.0489,-4.0507,-4.051,-4.0482,-4.0432,-4.0407,-4.0388,-4.0407,-4.0362,-4.0298,0.0,0.0,0.0,0.0,0.0,0.0,0.0,0.0,0.0,0.0,0.0,0.0,0.0,0.0,0.0,0.0,0.0,0.0,-1.1454,-1.2669,-1.3665,-1.4325,-1.6225,-1.7252,-1.7252,-1.8692,-1.9566,-1.9791,-2.0421,-2.0846,-2.1046,-2.0994,-2.0953,-2.0942,-2.0927,-2.0894,-2.0877,-2.0646,-2.0535,-2.0412,-1.947,-1.8907,-1.8612,-1.8552,-1.7442,-1.6006,-1.6702,-1.5988,-1.4915,0.0,0.0,0.0,0.0,-2.122,-2.2675,0.0,0.0,-2.5206,-2.6999,-2.7798,-2.8263,-2.8913,-2.9229,-2.9229,-2.8579,-2.8263,-2.7594,-2.5801,-2.5262,-2.4766,0.0,0.0,0.0,-2.6828,-2.921,0.0,-3.2487,-3.379,0.0,-3.5476,0.0,-3.5552,-3.6367,-3.6462,0.0,0.0,-3.7173,-3.7685,-3.8329,-3.9195,-3.9647,-3.9495,-3.9376,-3.9232,-3.9101,-3.9101,-3.9101,-3.9101,-3.9101,-3.9232,-3.9514,-3.9514,-3.9766,-4.0205,-4.0205,-4.0313,-4.0496,-4.05,-4.05,-4.0492,-4.0482,-4.0466,-4.0477,-4.0424,-4.0379,-4.037,0.0,0.0,0.0,0.0,0.0,0.0,0.0,0.0,0.0,0.0,0.0,0.0,0.0,0.0,0.0,0.0,0.0,0.0,0.0,-1.1717,-1.2388,-1.2874,-1.421,-1.4927,-1.4927,-1.62,-1.6854,-1.6866,-1.7705,-1.8275,-1.8608,-1.8615,-1.8794,-1.9115,-1.912,-1.9123,-1.9146,-1.8912,-1.8805,0.0,0.0,-1.7311,-1.7219,-1.6971,-1.6263,-1.5442,-1.5972,-1.6463,0.0,0.0,0.0,-2.1622,-2.2233,-2.3059,-2.4057,-2.5213,0.0,-2.6368,-2.7724,-2.8374,-2.8783,-2.9266,-2.9099,-2.8616,-2.7761,-2.7037,-2.6033,-2.4278,-2.3646,0.0,-2.2344,0.0,0.0,0.0,0.0,0.0,-3.2109,-3.3771,-3.5182,0.0,-3.6206,0.0,-3.7325,-3.7401,-3.7571,0.0,-3.7969,-3.8178,-3.8671,-3.9402,-3.9735,-3.9599,-3.9464,-3.9298,-3.9101,-3.9101,-3.9101,-3.9101,-3.9101,-3.9232,-3.9495,-3.9585,-3.9846,-4.0205,0.0,-4.0408,-4.0496,-4.0496,-4.0496,-4.0496,-4.0503,-4.0495,-4.0495,-4.0463,-4.0438,-4.0441,0.0,0.0,0.0,0.0,0.0,0.0,0.0,0.0,0.0,0.0,0.0,0.0,0.0,0.0,0.0,0.0,0.0,0.0,0.0,0.0,-1.1321,-1.1339,-1.216,-1.2628,-1.2606,-1.3408,-1.3839,-1.3837,-1.4612,-1.5347,-1.5967,-1.6192,-1.6645,-1.724,-1.7235,-1.7271,-1.7308,-1.7089,-1.7002,-1.6976,-1.6122,-1.5757,-1.5666,0.0,0.0,0.0,-1.4706,0.0,0.0,0.0,-2.1472,-2.2759,-2.4085,-2.5132,-2.6028,-2.6702,-2.7464,-2.8133,-2.8244,-2.882,-2.9396,-2.9396,-2.8746,-2.7854,-2.6944,-2.5494,-2.4026,-2.2943,0.0,-2.1671,-2.1693,-2.2447,-2.3673,-2.5592,0.0,-3.0039,-3.2006,-3.3619,-3.5065,-3.6225,-3.6358,-3.6718,-3.7637,-3.7732,-3.8054,-3.8803,-3.886,-3.886,-3.886,-3.9532,-3.9826,-3.9682,-3.9539,-3.9337,-3.9101,-3.9101,-3.9101,-3.9101,-3.9101,-3.9232,-3.9514,-3.9683,-3.9922,-4.0214,-4.0381,0.0,-4.0496,-4.0496,-4.0496,-4.0496,-4.0496,-4.0496,-4.0496,-4.0496,-4.0511,-4.0491,0.0,0.0,0.0,0.0,0.0,0.0,0.0,0.0,0.0,0.0,-1.0266,-0.9926,0.0,0.0,0.0,0.0,0.0,0.0,0.0,0.0,0.0,-1.0433,-1.1266,-1.1693,-1.1631,-1.2498,-1.2929,0.0,0.0,-1.4102,-1.4258,-1.4946,-1.5297,-1.5364,-1.5379,-1.5375,-1.5386,-1.5338,-1.5295,-1.5245,-1.5053,-1.4961,-1.4892,-1.4744,0.0,0.0,0.0,0.0,0.0,-1.9286,-2.179,-2.4282,-2.4439,-2.5132,-2.6028,-2.6702,-2.7464,-2.8263,-2.8969,-2.9285,-2.9396,-2.9396,-2.8746,-2.7724,-2.6238,-2.4612,0.0,0.0,-2.0103,-1.9822,-1.917,-2.0833,-2.2854,-2.4578,0.0,0.0,0.0,0.0,-3.4584,0.0,0.0,0.0,0.0,0.0,0.0,0.0,0.0,-3.9692,-3.9692,-3.9824,-3.9781,-3.9532,-3.9298,-3.9156,-3.9101,-3.9101,-3.9101,-3.9101,-3.9101,-3.9232,-3.9495,-3.9532,-3.9791,-4.0205,-4.0242,0.0,-4.0496,-4.0496,-4.0496,-4.0496,-4.0496,-4.0496,-4.0496,-4.0496,-4.0489,-4.05,0.0,0.0,0.0,0.0,0.0,0.0,0.0,-1.0329,-1.0598,-1.1365,-1.1104,-1.0734,-1.0498,-1.0109,0.0,0.0,0.0,0.0,0.0,0.0,0.0,0.0,-1.0525,-1.0695,-1.0679,0.0,0.0,0.0,0.0,0.0,0.0,0.0,0.0,0.0,0.0,0.0,0.0,-1.4856,-1.4835,0.0,0.0,0.0,0.0,0.0,0.0,0.0,0.0,0.0,0.0,0.0,-2.1157,-2.407,-2.487,-2.5487,-2.6122,-2.7196,-2.7798,-2.8282,-2.9155,-2.9396,-2.9396,-2.9396,-2.843,-2.7055,-2.5448,0.0,0.0,0.0,-1.8581,-1.8328,-1.8391,0.0,0.0,0.0,0.0,0.0,0.0,0.0,0.0,0.0,0.0,0.0,0.0,0.0,0.0,0.0,0.0,-3.99,-3.99,-3.99,-3.9804,-3.9611,-3.9414,-3.9272,-3.9205,-3.9124,-3.9101,-3.9101,-3.9101,-3.9183,-3.9298,-3.9439,-3.9628,-3.9835,-3.9951,0.0,-4.0339,-4.0339,-4.0417,-4.0496,-4.0496,-4.0496,-4.0496,-4.0496,-4.0496,-4.0496,0.0,0.0,0.0,0.0,0.0,0.0,0.0,-1.0721,-1.1001,-1.1996,-1.187,-1.1569,-1.1191,-1.0463,-0.9967,0.0,0.0,0.0,0.0,0.0,0.0,0.0,0.0,0.0,0.0,0.0,0.0,0.0,0.0,0.0,0.0,0.0,0.0,0.0,0.0,0.0,0.0,0.0,0.0,0.0,0.0,0.0,0.0,0.0,0.0,0.0,0.0,0.0,0.0,0.0,-2.0025,-2.2471,-2.4315,-2.534,-2.6071,-2.7242,-2.7836,-2.8244,-2.8932,-2.9248,-2.9396,-2.9396,-2.8133,-2.6479,-2.4871,-2.2439,0.0,0.0,-1.7393,-1.7095,-1.7956,0.0,-2.0555,0.0,0.0,0.0,0.0,0.0,0.0,0.0,0.0,0.0,0.0,0.0,0.0,0.0,0.0,0.0,-3.99,-3.9878,-3.9815,-3.9705,-3.9532,-3.9414,-3.9298,-3.917,-3.9101,-3.9101,-3.9101,-3.9101,-3.9115,-3.9324,-3.9452,-3.9495,-3.966,0.0,0.0,-4.0205,-4.0321,-4.0496,-4.0496,-4.0496,-4.0496,-4.0496,-4.0496,-4.0496,0.0,0.0,0.0,0.0,0.0,0.0,0.0,-1.053,-1.1011,-1.2378,-1.2056,-1.1674,-1.1634,-1.1071,-1.0432,0.0,0.0,0.0,0.0,0.0,0.0,0.0,0.0,0.0,0.0,0.0,0.0,0.0,0.0,0.0,0.0,0.0,0.0,0.0,0.0,0.0,0.0,0.0,0.0,0.0,0.0,0.0,0.0,0.0,0.0,0.0,0.0,0.0,0.0,0.0,0.0,-1.9166,-2.1588,-2.3896,-2.5744,-2.5875,0.0,0.0,-2.8207,-2.8802,-2.9396,-2.9396,-2.8133,-2.6479,-2.4871,0.0,0.0,-1.756,-1.6576,-1.6266,-1.7071,-1.8622,-2.0583,-2.3004,0.0,-2.6061,0.0,0.0,0.0,0.0,0.0,0.0,0.0,0.0,0.0,0.0,0.0,0.0,-3.99,-3.9792,-3.9717,-3.9705,-3.9446,-3.9311,-3.9298,-3.917,-3.9101,-3.9101,-3.9101,-3.9101,-3.9101,-3.9129,-3.9272,-3.9514,-3.952,0.0,0.0,-4.0205,-4.0321,-4.0496,-4.0496,-4.0496,-4.0496,-4.0496,-4.0496,-4.0496,0.0,0.0,0.0,0.0,0.0,0.0,-1.0412,-1.0418,-1.0878,-1.2455,-1.2424,-1.2263,-1.23,-1.1728,-1.0887,-0.9746,0.0,0.0,0.0,0.0,0.0,0.0,0.0,0.0,0.0,0.0,0.0,0.0,0.0,0.0,0.0,0.0,0.0,0.0,0.0,0.0,0.0,0.0,0.0,0.0,0.0,0.0,0.0,0.0,0.0,0.0,0.0,0.0,0.0,0.0,0.0,0.0,-1.8894,-2.0752,0.0,0.0,-2.6117,-2.7483,-2.7966,-2.8746,-2.9266,-2.8746,-2.7743,-2.6349,-2.4204,0.0,-1.9119,-1.7448,-1.6465,-1.6149,-1.6947,-1.8118,-1.975,-2.223,-2.2958,-2.4407,-2.7754,0.0,0.0,0.0,0.0,0.0,0.0,0.0,0.0,0.0,0.0,0.0,-3.99,-3.9837,-3.9815,-3.9815,-3.9635,-3.9495,-3.9427,-3.9285,-3.9178,-3.9101,-3.9101,-3.9101,-3.9101,-3.9101,-3.917,-3.9259,-3.9259,0.0,0.0,-3.9769,-3.991,-4.0091,-4.0258,-4.0321,-4.033,-4.0457,-4.0496,-4.0496,0.0,0.0,0.0,0.0,0.0,-0.9459,-1.0346,-1.0291,-1.0661,-1.2101,-1.2265,-1.2274,-1.2367,-1.1783,-1.0982,-0.998,-0.9733,0.0,0.0,0.0,0.0,0.0,0.0,0.0,0.0,0.0,0.0,0.0,0.0,0.0,0.0,0.0,0.0,0.0,0.0,0.0,0.0,0.0,0.0,0.0,0.0,0.0,0.0,0.0,0.0,0.0,0.0,0.0,0.0,0.0,0.0,0.0,0.0,0.0,0.0,0.0,-2.49,-2.6368,-2.7167,-2.8003,-2.8505,-2.7891,-2.713,-2.5959,0.0,-2.1328,-1.9193,-1.7745,-1.6632,-1.6223,-1.7263,-1.7981,-1.9132,-2.1382,-2.1992,-2.3205,-2.6113,-2.6976,0.0,0.0,0.0,0.0,0.0,0.0,0.0,0.0,0.0,0.0,0.0,-3.99,-3.99,-3.99,-3.9728,-3.9599,-3.9514,-3.9337,-3.9192,-3.9101,-3.9101,-3.9101,-3.9101,-3.9101,-3.9101,-3.9101,-3.9101,0.0,0.0,-3.9514,-3.9621,-3.9829,-4.011,-4.0205,-4.0233,-4.0433,-4.0496,-4.0496,0.0,0.0,0.0,0.0,0.0,0.0,-1.0082,-1.0082,-1.031,-1.1209,-1.138,-1.1465,-1.1598,-1.102,-1.0611,-1.0589,-0.992,0.0,0.0,0.0,0.0,0.0,0.0,0.0,0.0,0.0,0.0,0.0,0.0,0.0,0.0,0.0,0.0,0.0,0.0,0.0,0.0,0.0,0.0,0.0,0.0,0.0,0.0,0.0,0.0,0.0,0.0,0.0,0.0,0.0,0.0,0.0,0.0,0.0,0.0,-2.1291,-2.3201,-2.4704,-2.5503,-2.6312,-2.6925,-2.6907,-2.6312,-2.5271,0.0,-2.1328,-1.9342,-1.8469,-1.7003,-1.639,-1.7987,-1.8348,-1.8952,-2.0641,-2.1644,-2.2839,-2.4665,-2.6306,0.0,0.0,0.0,0.0,0.0,0.0,0.0,0.0,0.0,0.0,0.0,-3.99,-3.99,-3.99,-3.9635,-3.9514,-3.9514,-3.9232,-3.9101,-3.9101,-3.9101,-3.9101,-3.9101,-3.9101,-3.9101,0.0,0.0,0.0,0.0,-3.9514,-3.9621,-3.9829,-4.011,-4.0205,-4.0233,-4.0433,-4.0496,-4.0496,0.0,0.0,0.0,0.0,0.0,0.0,0.0,-0.9333,-0.9522,-1.0307,-1.0516,-1.0787,-1.1347,-1.0878,-1.0539,-1.0535,-0.9902,0.0,0.0,0.0,0.0,0.0,0.0,0.0,0.0,0.0,-1.2447,-1.2943,-1.4617,0.0,0.0,0.0,0.0,0.0,0.0,0.0,0.0,0.0,0.0,0.0,0.0,0.0,0.0,0.0,0.0,0.0,0.0,0.0,0.0,0.0,0.0,0.0,0.0,0.0,0.0,-1.8265,-2.102,0.0,-2.3916,-2.5002,-2.5792,-2.4659,-2.4176,-2.3564,-2.1922,-2.053,-1.9342,-1.8488,-1.7894,-1.7708,-1.8209,-1.8805,-1.9922,-2.2117,-2.2772,-2.3607,0.0,0.0,0.0,0.0,0.0,0.0,0.0,0.0,0.0,0.0,0.0,0.0,0.0,-3.99,-3.99,-3.99,-3.9834,-3.9701,-3.9495,-3.9427,-3.9285,-3.9101,-3.9101,-3.9101,-3.9101,-3.9101,-3.9101,0.0,0.0,0.0,0.0,-3.9219,-3.9253,-3.9364,-3.9765,-3.9932,-3.9973,-4.0372,-4.0496,-4.0496,0.0,0.0,0.0,0.0,0.0,0.0,0.0,-0.893,-0.9077,-0.9551,-0.9692,-1.0065,-1.0904,-1.0427,-1.0171,-1.0512,-0.9878,0.0,0.0,0.0,0.0,0.0,0.0,0.0,0.0,-1.142,-1.2637,-1.3745,-1.5056,-1.5767,-1.5918,-1.5918,0.0,0.0,0.0,0.0,0.0,0.0,0.0,0.0,0.0,0.0,0.0,0.0,0.0,0.0,0.0,0.0,0.0,0.0,0.0,0.0,0.0,0.0,0.0,0.0,-1.8673,-2.1105,0.0,-2.3285,-2.4055,-2.2998,-2.2757,-2.233,-2.0715,-1.9699,-1.8825,-1.7985,-1.7818,-1.7892,-1.8207,-1.8994,-2.0091,-2.1606,-2.2423,0.0,0.0,0.0,0.0,0.0,0.0,0.0,0.0,0.0,0.0,0.0,0.0,0.0,0.0,-3.9848,-3.9856,-3.99,-3.9792,-3.9635,-3.9439,-3.9357,-3.9272,-3.9101,-3.9101,-3.9101,-3.9101,-3.9101,-3.9101,0.0,0.0,0.0,0.0,-3.9101,-3.9101,-3.9137,-3.9531,-3.9683,-3.975,-4.0203,-4.04,-4.0408,0.0,0.0,0.0,0.0,0.0,0.0,0.0,-0.8857,-0.8925,-0.8981,-0.8996,-0.9356,-1.03,-0.9741,-0.9622,-1.0432,0.0,0.0,0.0,0.0,0.0,0.0,0.0,0.0,0.0,-1.1519,-1.274,-1.4475,-1.5206,-1.5936,-1.6648,-1.6648,-1.6056,0.0,0.0,0.0,0.0,0.0,0.0,0.0,0.0,0.0,0.0,0.0,0.0,0.0,0.0,0.0,0.0,0.0,0.0,0.0,0.0,0.0,0.0,0.0,0.0,0.0,0.0,-2.1087,-2.1718,-2.1662,-2.1643,-2.1254,-1.9769,-1.873,0.0,-1.7161,-1.7051,-1.7334,-1.8153,-1.9059,-1.9739,-1.9924,0.0,0.0,0.0,0.0,0.0,0.0,0.0,0.0,0.0,0.0,0.0,0.0,0.0,0.0,0.0,-3.9751,-3.9739,-3.9837,-3.9611,-3.9439,-3.9324,-3.9178,-3.9115,-3.9101,-3.9101,-3.9101,-3.9101,-3.9101,-3.9101,0.0,0.0,0.0,0.0,-3.9101,-3.9101,-3.9129,-3.9401,-3.9514,-3.9556,-4.0011,-4.0177,-4.0233,0.0,0.0,0.0,0.0,0.0,0.0,0.0,0.0,0.0,0.0,-0.8919,-0.9031,-0.9311,-0.927,-0.9334,0.0,0.0,0.0,0.0,0.0,0.0,0.0,0.0,0.0,0.0,-1.1196,-1.2649,-1.4196,-1.5489,-1.6456,-1.7135,-1.7073,-1.6265,-1.4846,-1.4986,0.0,0.0,0.0,0.0,0.0,0.0,0.0,0.0,0.0,0.0,0.0,0.0,0.0,0.0,0.0,0.0,0.0,0.0,0.0,0.0,0.0,-1.5439,-1.622,-1.6818,0.0,-1.9026,-1.8414,-1.8247,-1.8141,0.0,-1.7472,-1.7299,-1.7045,-1.7533,-1.8257,-1.9117,-1.9947,-2.1131,0.0,0.0,0.0,0.0,0.0,0.0,0.0,0.0,0.0,0.0,0.0,0.0,0.0,0.0,0.0,0.0,-3.967,-3.9623,-3.9452,-3.9389,-3.9389,-3.9446,-3.9324,-3.9192,-3.9101,-3.9101,-3.9101,-3.9101,-3.9101,-3.9101,0.0,0.0,0.0,-3.9101,-3.9101,-3.9101,-3.9129,-3.9401,-3.9514,-3.9532,-3.9794,-4.0032,-4.0214,0.0,0.0,0.0,0.0,0.0,0.0,0.0,0.0,0.0,0.0,0.0,0.0,0.0,0.0,0.0,0.0,0.0,0.0,0.0,0.0,0.0,0.0,0.0,0.0,-1.0046,-1.1109,-1.2619,-1.456,-1.5675,-1.6756,-1.7797,-1.7797,-1.6908,-1.528,-1.472,0.0,0.0,0.0,0.0,0.0,0.0,0.0,0.0,0.0,0.0,0.0,-1.3284,-1.3456,0.0,-1.41,-1.435,-1.4416,0.0,0.0,0.0,0.0,-1.4884,-1.5218,-1.5271,-1.7053,-1.8785,-1.8358,-1.8525,-1.8685,-1.8293,-1.7879,-1.7484,-1.7076,-1.7674,-1.8515,-1.9348,0.0,0.0,0.0,0.0,0.0,0.0,0.0,0.0,0.0,0.0,0.0,0.0,0.0,0.0,0.0,0.0,0.0,0.0,-3.9592,-3.9532,-3.9401,-3.9272,-3.9245,-3.9324,-3.9245,-3.9165,-3.9101,-3.9101,-3.9101,-3.9101,-3.9101,-3.9101,0.0,0.0,0.0,-3.9101,-3.9101,-3.9101,-3.9115,-3.9259,-3.9324,-3.9331,-3.9585,-3.9739,-3.9899,0.0,0.0,0.0,0.0,0.0,0.0,0.0,0.0,0.0,0.0,0.0,0.0,0.0,0.0,0.0,0.0,0.0,0.0,0.0,0.0,0.0,0.0,0.0,-0.9824,-1.079,-1.12,-1.2596,-1.5015,-1.5826,-1.6944,-1.8373,-1.8528,-1.7638,-1.5839,-1.4548,-1.3878,0.0,0.0,0.0,0.0,0.0,0.0,0.0,0.0,0.0,0.0,0.0,0.0,0.0,-1.3728,-1.4124,-1.4295,-1.4415,0.0,0.0,0.0,0.0,0.0,-1.4947,-1.7275,-1.9516,-1.9126,-1.9731,-2.0233,-1.9539,-1.8774,-1.8042,0.0,0.0,0.0,0.0,-2.0659,0.0,0.0,0.0,0.0,0.0,0.0,0.0,0.0,0.0,0.0,0.0,0.0,0.0,0.0,0.0,0.0,0.0,-3.9526,-3.9464,-3.9452,-3.9219,-3.9101,-3.9101,-3.9101,-3.9101,-3.9101,-3.9101,-3.9101,-3.9101,-3.9101,-3.9101,-3.9101,0.0,0.0,-3.9101,-3.9101,-3.9101,-3.9101,-3.9101,-3.9101,-3.9129,-3.9363,-3.9458,-3.9556,0.0,0.0,0.0,0.0,0.0,0.0,0.0,0.0,0.0,0.0,0.0,0.0,0.0,0.0,0.0,0.0,0.0,0.0,0.0,0.0,0.0,0.0,-0.9268,-0.9932,-1.1262,-1.1369,-1.248,-1.4684,-1.6102,-1.7246,-1.8155,-1.8792,-1.7948,-1.5864,-1.5021,-1.4267,-1.3636,0.0,0.0,0.0,0.0,0.0,0.0,0.0,0.0,0.0,0.0,0.0,0.0,-1.2993,-1.3554,-1.4149,-1.422,0.0,0.0,0.0,0.0,0.0,-1.6245,-1.8096,-1.9107,-1.6984,-1.7578,-1.8642,-1.8451,-1.8342,-1.8436,0.0,0.0,0.0,0.0,-2.2877,0.0,0.0,0.0,0.0,0.0,0.0,0.0,0.0,0.0,0.0,0.0,0.0,0.0,0.0,0.0,0.0,0.0,-3.9285,-3.9285,-3.9151,-3.9129,-3.9101,-3.9101,-3.9101,-3.9101,-3.9101,-3.9101,-3.9101,-3.9101,-3.9101,-3.9101,-3.9101,0.0,-3.9101,-3.9101,-3.9101,-3.9101,-3.9101,-3.9101,-3.9101,-3.9115,-3.9156,-3.9311,-3.9532,0.0,0.0,0.0,0.0,0.0,0.0,0.0,0.0,0.0,0.0,0.0,0.0,0.0,0.0,0.0,0.0,0.0,0.0,0.0,0.0,0.0,-0.9618,-0.9663,-1.0191,-1.1319,-1.2094,-1.3547,-1.5731,-1.6929,-1.7862,-1.8574,-1.7712,-1.6774,-1.5748,-1.4633,-1.3944,-1.3592,0.0,0.0,0.0,0.0,0.0,0.0,0.0,0.0,0.0,0.0,0.0,0.0,0.0,-1.3087,-1.3579,-1.4017,0.0,0.0,0.0,0.0,0.0,-1.5524,-1.7294,-1.8618,-1.7485,-1.91,-2.0949,-2.0919,-2.06,-2.0411,0.0,0.0,0.0,0.0,0.0,0.0,0.0,0.0,0.0,0.0,0.0,0.0,0.0,0.0,0.0,0.0,0.0,0.0,0.0,0.0,0.0,0.0,0.0,-3.9232,-3.9101,-3.9101,-3.9101,-3.9101,-3.9101,-3.9101,-3.9101,-3.9101,-3.9101,-3.9101,-3.9101,-3.9101,-3.9101,0.0,-3.9101,-3.9101,-3.9101,-3.9101,-3.9101,-3.9101,-3.9101,-3.9101,-3.9101,-3.9272,-3.9508,0.0,0.0,0.0,0.0,0.0,0.0,0.0,0.0,0.0,0.0,0.0,0.0,0.0,0.0,0.0,0.0,0.0,0.0,0.0,0.0,-0.9348,-1.0025,-1.018,-1.0802,-1.2023,-1.2945,-1.448,-1.6699,-1.7552,-1.8341,-1.8971,-1.7113,-1.605,-1.5666,-1.4418,-1.3766,-1.3593,-1.3598,0.0,0.0,0.0,0.0,0.0,0.0,0.0,0.0,0.0,0.0,0.0,0.0,0.0,0.0,0.0,0.0,0.0,-1.4433,-1.4456,-1.4581,-1.5125,-1.6731,-1.8375,-1.8778,-2.079,-2.2794,-2.3378,-2.2868,-2.2442,-2.3025,0.0,0.0,0.0,0.0,0.0,0.0,0.0,0.0,0.0,0.0,0.0,0.0,0.0,0.0,0.0,0.0,0.0,0.0,0.0,0.0,0.0,0.0,-3.9019,-3.9101,-3.9101,-3.9101,-3.9101,-3.9101,-3.9101,-3.9101,-3.9101,-3.9101,-3.9101,-3.9101,-3.9101,-3.9101,-3.9101,-3.9101,-3.9101,-3.9101,-3.9101,-3.9101,-3.9101,-3.9101,-3.9101,-3.9101,-3.9232,-3.9414,0.0,0.0,0.0,0.0,0.0,0.0,0.0,0.0,0.0,0.0,0.0,0.0,0.0,0.0,0.0,0.0,0.0,0.0,0.0,0.0,-0.9224,-0.9883,-1.0568,-1.1974,-1.4225,-1.3692,-1.448,-1.6699,-1.7515,-1.8308,-1.9069,-1.8232,-1.7106,-1.5765,-1.4976,-1.4237,-1.3597,-1.3597,-1.3605,0.0,0.0,0.0,0.0,0.0,0.0,0.0,0.0,0.0,0.0,0.0,0.0,0.0,0.0,0.0,-1.4143,-1.4275,-1.435,-1.4776,-1.6478,-1.7552,-1.8592,-2.0218,-2.079,-2.1577,-2.3878,-2.3739,-2.3768,-2.607,0.0,0.0,0.0,0.0,0.0,0.0,0.0,0.0,0.0,0.0,0.0,0.0,0.0,0.0,0.0,0.0,0.0,0.0,0.0,0.0,0.0,0.0,0.0,-3.9082,-3.9101,-3.9101,-3.9101,-3.9101,-3.9101,-3.9101,-3.9101,-3.9101,-3.9101,-3.9101,-3.9101,-3.9101,-3.9101,-3.9101,-3.9101,-3.9101,-3.9101,-3.9101,-3.9101,-3.9101,-3.9101,-3.9101,-3.9115,-3.9129,0.0,0.0,0.0,0.0,0.0,0.0,0.0,0.0,0.0,0.0,0.0,0.0,0.0,0.0,0.0,0.0,0.0,0.0,0.0,0.0,-0.9195,-0.9877,-1.0617,-1.1651,-1.3042,-1.4182,-1.5859,-1.8076,-1.7901,-1.8014,-1.8319,-1.6615,-1.5534,-1.4963,-1.4315,-1.386,-1.3601,-1.3606,-1.3346,-1.2914,0.0,0.0,0.0,0.0,0.0,0.0,0.0,0.0,0.0,0.0,-1.1247,-1.2045,-1.2833,-1.3552,-1.4116,-1.4167,-1.4276,-1.4556,-1.5292,-1.6805,-1.8493,-1.9736,-2.0808,-2.206,-2.4053,-2.5011,-2.5913,-2.7352,-2.765,0.0,0.0,0.0,0.0,0.0,0.0,0.0,0.0,0.0,0.0,0.0,0.0,0.0,0.0,0.0,0.0,0.0,0.0,0.0,0.0,0.0,0.0,-3.7596,-3.7596,-3.7838,-3.8339,-3.8339,-3.8599,-3.9101,-3.9101,-3.9101,-3.9101,-3.9101,-3.9101,-3.9101,-3.9101,-3.9101,-3.9101,-3.9101,-3.9101,-3.9101,-3.9101,-3.9101,-3.9101,-3.9101,-3.9101,-3.9101,0.0,0.0,0.0,0.0,0.0,0.0,0.0,0.0,0.0,0.0,0.0,0.0,0.0,0.0,0.0,0.0,0.0,0.0,0.0,-0.8852,-0.9159,-0.9875,-1.0379,-1.1243,-1.2521,-1.4071,-1.5856,-1.7862,-1.7591,-1.737,-1.718,-1.535,-1.4654,-1.4869,-1.3973,-1.3715,-1.3929,-1.3695,-1.3305,-1.2857,-1.2855,0.0,0.0,0.0,0.0,0.0,0.0,0.0,0.0,0.0,-1.0603,-1.1264,-1.2266,-1.3098,-1.3779,-1.3998,-1.4593,-1.5171,-1.5245,-1.7074,-1.9125,-1.9789,-2.1384,-2.3163,-2.4555,-2.5931,-2.7278,-2.8616,-2.8895,-2.8969,-2.9229,0.0,0.0,0.0,0.0,0.0,0.0,0.0,0.0,0.0,0.0,0.0,0.0,0.0,0.0,0.0,0.0,0.0,0.0,0.0,0.0,-3.6686,-3.6699,-3.6946,-3.7522,-3.7522,-3.7912,-3.8711,-3.8711,-3.8841,-3.9101,-3.9101,-3.9101,-3.9101,-3.9101,-3.9101,-3.9101,-3.9101,-3.9101,-3.9101,-3.9101,-3.9101,-3.9101,-3.9101,-3.9101,-3.9101,0.0,0.0,0.0,0.0,0.0,0.0,0.0,0.0,0.0,0.0,0.0,0.0,0.0,0.0,0.0,0.0,0.0,0.0,-0.8897,-0.8771,-0.905,-0.9852,-0.9885,-1.0966,-1.3219,-1.3278,-1.4054,-1.5595,-1.6333,-1.6347,-1.5663,-1.4874,-1.4963,-1.5713,-1.4195,-1.3939,-1.4633,-1.3912,-1.3603,-1.3594,-1.3598,-1.2714,0.0,0.0,0.0,0.0,0.0,0.0,0.0,0.0,-1.018,-1.0463,-1.2006,-1.2672,-1.3047,-1.3774,-1.5339,-1.6805,-1.687,-1.8706,-2.0618,-2.0688,0.0,0.0,-2.554,-2.6349,-2.7631,-3.0103,-3.0623,-3.0864,-3.1645,0.0,0.0,0.0,0.0,0.0,0.0,0.0,0.0,0.0,0.0,0.0,0.0,0.0,0.0,0.0,0.0,0.0,0.0,0.0,-3.5863,-3.6662,-3.6681,-3.6681,-3.6686,-3.6686,-3.7076,-3.7894,-3.7894,-3.8302,-3.9101,-3.9101,-3.9101,-3.9101,-3.9101,-3.9101,-3.9101,-3.9101,-3.9101,-3.9101,-3.9101,-3.9101,-3.9101,-3.9101,-3.9101,-3.9101,0.0,0.0,0.0,0.0,0.0,0.0,0.0,0.0,0.0,0.0,0.0,0.0,0.0,0.0,0.0,0.0,0.0,0.0,-0.876,-0.8729,-0.881,-0.905,-0.9543,-1.0172,-1.0887,-1.2022,-1.3574,-1.5595,-1.5825,-1.5554,-1.4843,-1.4671,-1.4408,-1.4118,-1.4264,-1.4195,-1.3912,-1.3689,-1.3301,-1.2823,-1.2828,-1.1913,0.0,0.0,0.0,0.0,0.0,0.0,0.0,0.0,0.0,0.0,-1.1401,-1.253,-1.3513,-1.3845,-1.5137,-1.6386,-1.6062,-1.8185,0.0,-2.1348,0.0,0.0,0.0,-2.8456,0.0,0.0,-3.2295,-3.2184,-3.1868,0.0,0.0,0.0,0.0,0.0,0.0,0.0,0.0,0.0,0.0,0.0,0.0,0.0,0.0,0.0,0.0,0.0,0.0,0.0,-3.468,-3.4922,-3.494,-3.5237,-3.5863,-3.5863,-3.6272,-3.7058,-3.7058,-3.7764,-3.9101,-3.9101,-3.9101,-3.9101,-3.9101,-3.9101,-3.9101,-3.9101,-3.9101,-3.9101,-3.9101,-3.9101,-3.9101,-3.9101,-3.9101,-3.9101,0.0,0.0,0.0,0.0,0.0,0.0,0.0,0.0,0.0,0.0,0.0,0.0,0.0,0.0,0.0,0.0,0.0,0.0,0.0,0.0,-0.8699,-0.8699,-0.9149,-0.9699,-1.0326,-1.1896,-1.3202,-1.4249,-1.4284,-1.4056,-1.3625,-1.3965,-1.4195,-1.434,-1.4854,-1.4692,0.0,-1.4024,-1.343,-1.2481,-1.2803,-1.2206,-1.1084,0.0,0.0,0.0,0.0,0.0,0.0,0.0,0.0,0.0,-1.0676,-1.1586,-1.2544,-1.3521,-1.5012,-1.649,-1.7225,-1.9324,0.0,-2.2985,-2.4672,-2.6584,-2.8929,0.0,0.0,0.0,0.0,-3.2946,0.0,0.0,0.0,0.0,0.0,0.0,0.0,0.0,0.0,0.0,0.0,0.0,0.0,0.0,0.0,0.0,0.0,0.0,0.0,-3.4197,-3.4197,-3.4197,-3.4197,-3.4439,-3.499,-3.499,-3.5398,-3.6216,-3.6216,-3.6891,-3.8154,-3.8469,-3.8804,-3.9101,-3.9101,-3.9101,-3.9101,-3.9101,-3.9101,-3.9101,-3.9101,-3.9101,-3.9101,-3.9101,-3.9101,-3.9101,0.0,0.0,0.0,0.0,0.0,0.0,0.0,0.0,0.0,0.0,0.0,0.0,0.0,0.0,0.0,0.0,0.0,0.0,0.0,0.0,-0.8705,-0.8699,-0.8896,-0.9628,-1.0966,-1.2378,-1.2764,-1.21,-1.2298,-1.2363,-1.2318,-1.32,-1.428,-1.5501,-1.5647,-1.522,0.0,0.0,-1.3655,-1.2361,-1.3116,-1.2949,-1.2213,-1.154,0.0,0.0,0.0,0.0,0.0,0.0,0.0,0.0,-0.9962,-1.0297,-1.0813,-1.2965,-1.4918,-1.6908,-1.9309,-2.1242,-2.3048,-2.498,-2.6211,0.0,-3.0953,-3.1726,-3.2224,-3.379,0.0,0.0,0.0,0.0,0.0,0.0,0.0,0.0,0.0,0.0,0.0,0.0,0.0,0.0,0.0,0.0,0.0,0.0,0.0,0.0,0.0,-3.4197,-3.4197,-3.4197,-3.4197,-3.4197,-3.4197,-3.4197,-3.4599,-3.538,-3.538,-3.5807,-3.6625,-3.7411,-3.8191,-3.8897,-3.8952,-3.899,-3.9008,-3.9064,-3.9101,-3.9101,-3.9101,-3.9101,-3.9087,-3.9087,-3.9087,-3.9073,0.0,0.0,0.0,0.0,0.0,0.0,0.0,0.0,0.0,0.0,0.0,0.0,0.0,0.0,0.0,0.0,0.0,0.0,0.0,0.0,-0.8757,-0.8699,-0.9872,-1.0686,-1.0982,-1.1386,-1.1507,-1.1335,-1.2551,-1.2871,-1.2338,-1.4296,-1.4739,-1.3956,-1.5151,-1.4648,-1.2869,-1.2894,-1.24,-1.1623,-1.1792,-1.1401,-1.0687,-1.0514,-0.9996,0.0,0.0,0.0,0.0,0.0,0.0,0.0,-0.9962,-1.0647,-1.1382,-1.2505,-1.4412,-1.6431,-1.7728,-1.9803,0.0,0.0,-2.6892,-2.91,-3.1017,-3.1561,-3.2119,-3.3827,0.0,0.0,0.0,0.0,0.0,0.0,0.0,0.0,0.0,0.0,0.0,0.0,0.0,0.0,0.0,0.0,0.0,0.0,0.0,0.0,-3.4197,-3.4197,-3.4197,-3.4197,-3.4197,-3.4197,-3.4197,-3.4197,-3.429,0.0,-3.4476,-3.4922,-3.5789,-3.6588,-3.7039,-3.7257,-3.7875,-3.8154,-3.8209,-3.8841,-3.9101,-3.9101,-3.9101,-3.9059,-3.9021,-3.9021,-3.8993,-3.8935,0.0,0.0,0.0,0.0,0.0,0.0,0.0,0.0,0.0,0.0,0.0,0.0,0.0,0.0,0.0,0.0,0.0,0.0,0.0,0.0,-0.8751,-0.8751,-0.9855,-1.0466,-1.0473,-1.0552,-1.0754,-1.1099,-1.1908,-1.2474,-1.2863,-1.4396,-1.5067,-1.5016,-1.5882,-1.5023,-1.2931,-1.2951,-1.2144,-1.0866,-1.1229,-1.1149,-1.0728,-1.0342,-0.9962,-0.9582,-0.9225,0.0,0.0,0.0,0.0,0.0,0.0,0.0,-1.1051,-1.2244,-1.3688,-1.547,-1.8075,0.0,0.0,-2.5051,0.0,-2.9375,-3.0588,-3.0942,-3.1456,0.0,0.0,0.0,0.0,0.0,0.0,0.0,0.0,0.0,0.0,0.0,0.0,0.0,0.0,0.0,0.0,0.0,0.0,0.0,0.0,0.0,-3.4197,-3.4197,-3.4197,-3.4197,-3.4197,-3.4197,-3.4197,-3.4197,-3.4197,-3.4197,-3.4197,-3.4439,-3.4915,-3.6142,-3.6699,-3.6705,-3.7132,-3.7318,-3.7392,-3.8191,-3.8525,-3.8562,-3.8911,-3.9036,-3.9011,-3.895,-3.8921,-3.891,0.0,0.0,0.0,0.0,0.0,0.0,0.0,0.0,0.0,0.0,0.0,0.0,0.0,0.0,0.0,0.0,0.0,0.0,0.0,-0.8711,-0.8801,-0.8976,-0.957,-0.9968,-1.0105,-1.003,-1.0427,-1.1321,-1.1038,-1.1966,0.0,-1.4462,-1.5341,-1.6523,-1.6646,-1.5431,-1.3317,-1.3232,-1.1968,-1.0065,-1.0728,-1.101,-1.0924,-1.0255,-1.0014,-0.9927,-0.9328,-0.9104,-0.9121,-0.9242,0.0,0.0,0.0,0.0,-1.0457,-1.1796,-1.2768,-1.4235,-1.803,0.0,-2.2082,-2.5704,-2.7703,0.0,-3.006,-3.0274,0.0,0.0,0.0,0.0,0.0,0.0,0.0,0.0,0.0,0.0,0.0,0.0,0.0,0.0,0.0,0.0,0.0,0.0,0.0,0.0,0.0,-3.4197,-3.4197,-3.4197,-3.4197,-3.4197,-3.4197,-3.4197,-3.4197,-3.4197,-3.4197,-3.4197,-3.4197,-3.4197,-3.4253,-3.5627,-3.6272,-3.629,-3.6439,-3.6495,-3.6569,-3.7355,-3.7782,-3.7941,-3.8558,-3.8868,-3.895,-3.8892,-3.8881,-3.8866,0.0,0.0,0.0,0.0,0.0,0.0,0.0,0.0,0.0,0.0,0.0,-0.8778,-0.8724,-0.8711,0.0,0.0,0.0,0.0,-0.8699,0.0,0.0,-0.9735,-0.9841,-1.0236,-1.0922,-1.0316,-1.0707,-1.2137,-1.0802,0.0,0.0,0.0,0.0,-1.5824,-1.586,-1.4638,-1.251,-1.1874,-1.0689,-0.9259,-0.9363,-0.9398,-0.9398,-0.9294,-0.9242,-0.9242,-0.9138,-0.9104,-0.919,-0.9841,-1.0117,0.0,0.0,0.0,0.0,-1.0457,-1.1522,-1.2919,-1.4158,0.0,-2.2066,0.0,-2.7291,-2.8356,0.0,0.0,0.0,0.0,0.0,0.0,0.0,0.0,0.0,0.0,0.0,0.0,0.0,0.0,0.0,0.0,0.0,0.0,0.0,0.0,0.0,0.0,0.0,-3.4197,-3.4197,-3.4197,-3.4197,-3.4197,-3.4197,-3.4197,-3.4197,-3.4197,-3.4197,-3.4197,-3.4197,-3.4197,-3.4197,-3.442,-3.4531,-3.4569,-3.5343,-3.5659,-3.5714,-3.6532,-3.7241,-3.7822,-3.7919,-3.8329,-3.8837,-3.8822,-3.878,-3.8738,0.0,0.0,0.0,0.0,0.0,0.0,0.0,0.0,0.0,0.0,0.0,-0.8736,-0.8705,-0.8699,0.0,0.0,0.0,0.0,-0.8587,-0.8717,0.0,0.0,-0.9251,-0.9469,-0.9864,-0.9554,-0.9914,-1.1004,-1.0322,0.0,0.0,-1.5747,-1.6502,0.0,0.0,0.0,0.0,0.0,-1.072,-0.9686,-0.9259,-0.9841,-1.0809,-0.9571,-0.9876,-1.0792,-0.9537,-0.9104,-0.9208,0.0,-1.0497,-1.0797,-1.0342,0.0,0.0,0.0,-1.1029,-1.2571,-1.5712,-1.9255,-2.2668,0.0,-2.688,-2.8,-2.8686,0.0,0.0,0.0,0.0,0.0,0.0,0.0,0.0,0.0,0.0,0.0,0.0,0.0,0.0,0.0,0.0,0.0,0.0,0.0,0.0,0.0,0.0,-3.4197,-3.4197,-3.4197,-3.4197,-3.4197,-3.4197,-3.4197,-3.4197,-3.4197,-3.4197,-3.4197,-3.4197,-3.4197,-3.4197,-3.4197,-3.4197,-3.4216,-3.4618,-3.4773,-3.4829,-3.5626,-3.6422,-3.7165,-3.7539,-3.8132,-3.8792,-3.8765,-3.8738,-3.8707,0.0,0.0,0.0,0.0,0.0,0.0,0.0,0.0,0.0,0.0,0.0,0.0,-0.8699,0.0,0.0,0.0,0.0,0.0,-0.8581,0.0,0.0,0.0,0.0,-0.8857,-0.8897,-0.8897,-0.9257,-1.0001,0.0,0.0,-1.5876,-1.5876,-1.7557,0.0,-1.8314,-1.6734,0.0,0.0,0.0,-1.1009,-1.0444,-1.1204,-1.2542,-1.126,-1.1802,-1.2997,-1.0953,0.0,0.0,0.0,0.0,0.0,0.0,0.0,0.0,0.0,0.0,0.0,0.0,0.0,-2.1398,-2.4049,-2.5771,-2.698,0.0,0.0,0.0,0.0,0.0,0.0,0.0,0.0,0.0,0.0,0.0,0.0,0.0,0.0,0.0,0.0,0.0,0.0,0.0,0.0,0.0,0.0,0.0,-3.4197,-3.4197,-3.4197,-3.4197,-3.4197,-3.4197,-3.4197,-3.4197,-3.4197,-3.4197,-3.4197,-3.4197,-3.4185,-3.4173,-3.4173,-3.4173,-3.4148,-3.4173,-3.4161,-3.4204,-3.4803,-3.5634,-3.6592,-3.7104,-3.7893,-3.878,-3.8723,-3.8707,-3.8707,0.0,0.0,0.0,0.0,0.0,0.0,0.0,0.0,0.0,0.0,0.0,0.0,0.0,0.0,0.0,0.0,0.0,0.0,0.0,0.0,0.0,0.0,0.0,0.0,-0.8897,-0.8897,-0.9258,0.0,0.0,0.0,-1.6648,-1.6648,-1.8623,-2.2076,-1.9864,-1.7705,-1.5647,0.0,0.0,0.0,0.0,-1.3347,-1.3579,-1.4861,-1.5467,-1.5419,-1.3836,0.0,0.0,0.0,0.0,0.0,0.0,0.0,-1.1114,0.0,0.0,0.0,0.0,-1.5386,0.0,-2.1616,-2.348,0.0,0.0,0.0,0.0,0.0,0.0,0.0,0.0,0.0,0.0,0.0,0.0,0.0,0.0,0.0,0.0,0.0,0.0,0.0,0.0,0.0,0.0,0.0,0.0,-3.4197,-3.4197,-3.4197,-3.4197,-3.4197,-3.4197,-3.4197,-3.4197,-3.4197,-3.4197,-3.4197,-3.4197,-3.4173,-3.4111,-3.4111,-3.4074,-3.4011,-3.4074,-3.4074,-3.4011,-3.4066,-3.4992,-3.6412,-3.6454,-3.7371,-3.8707,-3.8707,-3.8707,-3.8707,0.0,0.0,0.0,0.0,0.0,0.0,0.0,0.0,0.0,0.0,0.0,0.0,0.0,-0.8699,-0.8699,-0.8699,0.0,0.0,0.0,0.0,0.0,0.0,0.0,0.0,0.0,-0.8852,0.0,0.0,0.0,-1.1089,-1.4519,-1.4563,-1.6062,-1.8702,-1.8461,-1.8183,-1.771,-1.5105,0.0,0.0,0.0,0.0,0.0,-1.5988,-1.6715,-1.7716,0.0,0.0,0.0,0.0,0.0,0.0,0.0,-1.172,-1.1039,-0.9542,-0.9795,0.0,0.0,0.0,0.0,-1.97,-2.1807,0.0,0.0,0.0,0.0,0.0,0.0,0.0,0.0,0.0,0.0,0.0,0.0,0.0,0.0,0.0,0.0,0.0,0.0,0.0,0.0,0.0,0.0,0.0,0.0,-3.4197,-3.4197,-3.4197,-3.4197,-3.4197,-3.4197,-3.4185,-3.4136,-3.4136,-3.4111,-3.4074,-3.4074,-3.4061,-3.4036,-3.4036,-3.3998,-3.3934,-3.3959,-3.3985,-3.3998,-3.3947,-3.4621,-3.5685,-3.614,-3.6993,-3.7991,-3.8505,-3.8707,-3.8707,0.0,0.0,0.0,0.0,0.0,0.0,0.0,0.0,0.0,-0.8699,0.0,0.0,0.0,0.0,-0.8735,-0.8764,-0.8811,-0.8783,-0.8683,0.0,0.0,0.0,0.0,0.0,0.0,-0.8829,-0.884,0.0,0.0,0.0,0.0,-1.3261,-1.4582,-1.6699,-1.654,-1.7292,0.0,0.0,0.0,-1.5888,0.0,0.0,-1.8414,0.0,-1.9018,0.0,0.0,0.0,0.0,0.0,0.0,0.0,0.0,-1.2126,-1.0698,-0.9468,-1.0002,0.0,-1.2138,0.0,0.0,0.0,0.0,0.0,0.0,0.0,0.0,0.0,0.0,0.0,0.0,0.0,0.0,0.0,0.0,0.0,0.0,0.0,0.0,0.0,0.0,0.0,0.0,0.0,0.0,0.0,0.0,0.0,-3.338,-3.338,-3.338,-3.3356,-3.3592,-3.3704,-3.3654,-3.3932,-3.4049,-3.3998,-3.3998,-3.3985,-3.3972,-3.3972,-3.3934,-3.3855,-3.3855,-3.3895,-3.3934,-3.3881,-3.437,-3.5202,-3.5987,-3.6795,-3.7603,-3.8395,-3.8707,-3.8707,0.0,0.0,0.0,0.0,0.0,0.0,0.0,0.0,-0.8732,-0.8732,0.0,0.0,0.0,0.0,0.0,-0.8931,-0.8936,-0.8902,-0.8806,-0.8863,0.0,0.0,0.0,0.0,0.0,-0.88,-0.884,-0.8903,-0.9615,-1.074,-1.2246,0.0,-1.448,-1.6479,-1.4321,-1.501,-1.7758,0.0,-1.7926,-1.8051,0.0,-1.9045,-1.9411,0.0,0.0,0.0,-2.0828,-2.0294,0.0,-1.8603,0.0,0.0,0.0,-1.2609,-1.0126,-0.9376,-0.9703,-1.0463,0.0,0.0,0.0,0.0,0.0,0.0,0.0,0.0,0.0,0.0,0.0,0.0,0.0,0.0,0.0,0.0,0.0,0.0,0.0,0.0,0.0,0.0,0.0,0.0,0.0,0.0,0.0,0.0,-3.1748,-3.1794,-3.1794,-3.1794,-3.176,-3.1691,-3.2391,-3.2761,-3.2761,-3.3536,-3.3943,-3.3961,-3.3961,-3.3941,-3.3895,-3.3895,-3.3855,-3.3807,-3.3807,-3.3807,-3.3807,-3.3807,-3.4266,-3.5059,-3.5917,-3.6758,-3.7566,-3.8377,-3.8689,-3.8707,0.0,0.0,0.0,0.0,0.0,-0.9319,-0.8788,-0.9147,-0.9491,0.0,0.0,0.0,-0.9855,-0.9711,-0.9605,-0.9624,-0.9624,-0.9383,-0.8834,-0.8863,-0.8897,-0.8874,-0.888,-0.888,-0.8863,-0.888,-0.8874,-0.8903,-0.9105,-0.9691,-1.0633,-1.0845,-1.1857,-1.3489,-1.2888,-1.3354,-1.4643,-1.4716,0.0,0.0,-1.8249,-1.9326,0.0,0.0,0.0,0.0,0.0,-2.1498,-2.0973,0.0,-1.9481,-1.7901,0.0,0.0,-1.1585,-1.0897,-1.1627,-1.2483,-1.1637,0.0,0.0,0.0,0.0,0.0,0.0,0.0,0.0,0.0,0.0,0.0,0.0,0.0,0.0,0.0,0.0,0.0,0.0,0.0,0.0,0.0,0.0,0.0,0.0,0.0,0.0,0.0,-3.1737,-3.176,-3.1661,-3.1649,-3.1638,-3.1626,-3.1824,-3.1899,-3.1851,-3.2072,-3.2453,-3.2996,-3.2996,-3.3277,-3.3834,-3.3834,-3.382,-3.3807,-3.3807,-3.3807,-3.3807,-3.3807,-3.3935,-3.4211,-3.5041,-3.5881,-3.6725,-3.7547,-3.8193,-3.8707,0.0,0.0,0.0,0.0,0.0,-1.0104,-0.9676,-0.9988,-1.0267,0.0,0.0,0.0,-1.0358,-1.1171,-1.1375,-1.0488,-1.0124,-0.9748,-0.9327,-0.9054,-0.8897,-0.8857,-0.8857,-0.8852,-0.8852,-0.8852,-0.8869,-0.8903,-0.8903,-0.9122,-0.9549,-0.9551,-1.0183,-1.1333,-1.1018,-1.1645,-1.2922,-1.2644,0.0,0.0,-1.8404,0.0,0.0,-2.163,-2.2139,0.0,0.0,0.0,-2.1793,-2.2071,-2.0929,0.0,0.0,-1.4874,-1.3914,-1.2597,-1.3321,0.0,0.0,0.0,0.0,0.0,0.0,0.0,0.0,-1.925,0.0,0.0,0.0,0.0,0.0,0.0,0.0,0.0,0.0,0.0,0.0,0.0,0.0,0.0,0.0,0.0,0.0,0.0,0.0,-3.0559,-3.065,-3.0672,-3.0604,-3.057,-3.0559,-3.0559,-3.0867,-3.0998,-3.095,-3.1293,-3.1673,-3.21,-3.2436,-3.2839,-3.3311,-3.3642,-3.3807,-3.3807,-3.3807,-3.3807,-3.3807,-3.3807,-3.3807,-3.388,-3.4692,-3.5518,-3.6395,-3.7199,-3.8025,-3.8707,0.0,0.0,-0.9835,-0.9912,-1.0525,-1.1015,-1.1015,-1.1015,-1.1104,0.0,-1.1384,-1.1484,-1.1722,-1.3283,-1.3577,-1.1754,-1.0764,-1.0201,-1.0124,-0.943,-0.8953,-0.8812,-0.8812,-0.8812,-0.8812,-0.8812,-0.8835,-0.8891,-0.8891,-0.8903,-0.8897,-0.8897,-0.9241,-0.9855,-0.9196,-1.0077,-1.2009,0.0,0.0,-1.5842,-1.8625,-1.9974,0.0,0.0,-2.2351,0.0,-2.3238,-2.3071,-2.2598,-2.3202,-2.1992,0.0,0.0,-1.7091,-1.6628,-1.4597,-1.5017,0.0,-1.5356,-1.5701,0.0,0.0,0.0,0.0,-1.9965,-1.9058,0.0,0.0,0.0,0.0,0.0,0.0,0.0,0.0,0.0,0.0,0.0,0.0,0.0,0.0,0.0,0.0,0.0,-2.91,-2.9156,-2.9078,-2.9134,-2.9178,-2.9189,-2.9141,-2.9096,-2.9096,-2.9719,-3.0081,-3.0081,-3.0779,-3.1182,-3.1286,-3.199,-3.2436,-3.2619,-3.3348,-3.3715,-3.3807,-3.3807,-3.3807,-3.3807,-3.3807,-3.3807,-3.3862,-3.4582,-3.5389,-3.6248,-3.707,-3.7878,-3.8579,0.0,-1.0111,-0.9978,-1.0575,-1.1304,-1.1793,-1.1793,-1.1793,-1.2224,-1.3425,-1.4129,-1.4997,-1.6254,-1.5247,-1.4508,-1.4626,-1.2882,-1.1503,-1.0846,-1.0162,-0.9508,-0.8908,-0.888,-0.8875,-0.8875,-0.8875,-0.888,-0.8903,-0.8903,-0.8908,-0.8897,-0.8897,-0.8982,-0.9111,-0.8965,-0.9478,-1.0565,0.0,0.0,-1.5707,-1.7003,0.0,-2.1047,-2.1315,-2.1807,-2.2423,-2.3168,-2.3338,-2.3221,0.0,-2.2716,-2.1552,0.0,0.0,0.0,-1.7335,0.0,-1.824,-1.7631,-1.7995,-1.8342,-1.75,0.0,0.0,0.0,-1.6782,0.0,0.0,0.0,0.0,0.0,0.0,0.0,0.0,0.0,0.0,0.0,0.0,0.0,0.0,0.0,0.0,0.0,-2.9067,-2.9078,-2.9028,-2.904,-2.9055,-2.913,-2.9062,-2.9028,-2.9028,-2.9163,-2.9225,-2.9225,-2.939,-2.9787,-3.0448,-3.0595,-3.1335,-3.2601,-3.2748,-3.3201,-3.3807,-3.3807,-3.3807,-3.3807,-3.3807,-3.3807,-3.3825,-3.3972,-3.4527,-3.5353,-3.6211,-3.7037,-3.7841,0.0,-1.0906,-1.1138,-1.1876,-1.2605,-1.3218,-1.3591,-1.365,-1.4048,-1.5143,-1.6631,-1.7472,-1.7149,-1.6841,-1.6193,-1.5045,-1.3624,-1.2468,-1.1703,-1.0616,-0.983,-0.9471,-0.9106,-0.9078,-0.9438,-0.9095,-0.9078,-0.9438,-0.9078,-0.8897,-0.8897,-0.8897,-0.9298,-0.9992,-0.9613,-1.0487,-1.2306,0.0,-1.449,-1.6292,-1.7866,0.0,-2.1241,-2.161,-2.1986,-2.2431,-2.3545,-2.4171,-2.4374,-2.3646,-2.3156,0.0,0.0,-2.0893,-2.045,0.0,-1.9801,-1.9962,0.0,-1.9417,-1.9532,-1.8829,0.0,0.0,0.0,0.0,-1.7195,0.0,0.0,0.0,0.0,0.0,0.0,0.0,0.0,0.0,0.0,0.0,0.0,0.0,0.0,0.0,0.0,-2.7827,-2.8004,-2.8374,-2.8767,-2.9017,-2.9051,-2.9017,-2.9005,-2.9005,-2.9005,-2.9005,-2.9005,-2.9005,-2.9207,-2.961,-3.0008,-3.0834,-3.2027,-3.2417,-3.3041,-3.3807,-3.3807,-3.3807,-3.3807,-3.3807,-3.3807,-3.3807,-3.3807,-3.4302,-3.5059,-3.5481,-3.6431,-3.7566,0.0,-1.1594,-1.224,-1.296,-1.3705,-1.446,-1.5193,-1.5303,-1.5678,-1.6697,-1.8572,-1.9248,-1.7749,-1.8464,-1.8136,-1.5907,-1.468,-1.3709,0.0,-1.1495,-1.0599,-1.0447,-0.9726,-0.9607,-1.0197,-0.9483,-0.9337,-0.9798,-0.919,-0.8897,-0.8897,-0.8897,-0.962,-1.0876,-1.0413,0.0,0.0,0.0,0.0,-1.7501,0.0,-2.0348,-2.0852,-2.1752,-2.2192,-2.2499,-2.4135,-2.5186,-2.5592,-2.4103,0.0,-2.346,-2.2581,-2.2296,0.0,0.0,0.0,0.0,0.0,0.0,0.0,0.0,0.0,-1.8961,0.0,0.0,0.0,-1.9853,0.0,0.0,0.0,0.0,0.0,0.0,0.0,0.0,0.0,0.0,0.0,0.0,0.0,0.0,0.0,-2.6465,-2.6683,-2.7438,-2.8003,-2.8425,-2.8672,-2.8744,-2.884,-2.9005,-2.9005,-2.9005,-2.9005,-2.9005,-2.9005,-2.9005,-2.9647,-3.0393,-3.1213,-3.2008,-3.2758,-3.3488,-3.3634,-3.3666,-3.3606,-3.3666,-3.3694,-3.3707,-3.3762,-3.4197,-3.4784,-3.4949,-3.5862,-3.7055,-1.1594,-1.1942,-1.224,-1.296,-1.3705,-1.446,-1.5193,-1.5303,-1.6071,-1.8164,-1.9294,-2.03,0.0,0.0,0.0,0.0,0.0,0.0,-1.5274,0.0,-1.2728,-1.2077,-1.1277,-1.0892,-1.0977,-1.0255,-0.9605,-0.9026,-0.8936,-0.8897,-0.8897,-0.8897,-0.9343,-1.0159,-1.0724,0.0,0.0,0.0,-1.6999,0.0,-1.9913,-1.9672,0.0,-2.0767,-2.1735,-2.2584,-2.4712,-2.5947,-2.6336,0.0,-2.4372,-2.4135,0.0,-2.2296,-2.2279,0.0,0.0,0.0,0.0,0.0,0.0,0.0,-2.1114,0.0,0.0,0.0,-1.7897,-1.7527,0.0,0.0,0.0,0.0,0.0,0.0,0.0,0.0,0.0,0.0,0.0,0.0,0.0,0.0,0.0,0.0,-2.5769,-2.635,-2.604,-2.6318,-2.7524,-2.7814,-2.8264,-2.8987,-2.9005,-2.9005,-2.9005,-2.9005,-2.9005,-2.9005,-2.9097,-2.9555,-3.0356,-3.1164,-3.1824,-3.2331,-3.3056,-3.3184,-3.2921,-3.3172,-3.3291,-3.3394,-3.368,-3.3862,-3.4027,-3.4747,-3.5133,-3.5485,-1.1876,-1.2008,-1.2373,-1.3523,-1.3987,-1.4619,-1.5805,-1.7081,-1.825,-1.9198,-2.0374,0.0,0.0,0.0,0.0,0.0,0.0,-1.7946,0.0,0.0,-1.4344,-1.3608,-1.2433,-1.1994,-1.2424,-1.0839,-1.0056,-1.0176,-0.9309,-0.8897,-0.8914,-0.9343,-1.0402,-1.2017,-1.2737,0.0,-1.7067,0.0,-1.8234,0.0,0.0,0.0,0.0,-2.1732,-2.319,-2.434,-2.5271,-2.6065,-2.6539,0.0,-2.4847,0.0,0.0,0.0,0.0,0.0,0.0,0.0,0.0,0.0,0.0,0.0,0.0,0.0,-1.8717,0.0,-1.8392,0.0,0.0,0.0,0.0,0.0,0.0,0.0,0.0,0.0,0.0,0.0,0.0,0.0,0.0,0.0,0.0,0.0,0.0,0.0,-2.5307,-2.5619,-2.6649,-2.725,-2.7791,-2.829,-2.8767,-2.9005,-2.9005,-2.8952,-2.8839,-2.8658,-2.8694,-2.9018,-2.9647,-3.0487,-3.1243,-3.19,-3.2629,-3.286,-3.2732,-3.2781,-3.2811,-3.284,-3.2981,-3.3328,-3.3776,-3.4082,-3.4475,-3.4983,-1.1959,0.0,0.0,0.0,-1.4072,-1.4798,-1.6542,-1.8305,-1.9616,-2.0073,0.0,0.0,-2.2435,-2.2514,0.0,0.0,-2.1045,-2.0082,0.0,0.0,-1.6272,-1.5721,-1.4072,0.0,0.0,-1.196,-1.0974,-1.1106,-0.9834,-0.9298,-0.9501,-0.9838,-1.1113,-1.3151,-1.4293,-1.6221,-1.8623,0.0,0.0,-1.9875,-2.042,-2.0981,-2.1688,-2.3139,-2.4492,-2.5642,-2.5828,-2.6251,-2.659,-2.5862,-2.5236,0.0,-2.5186,0.0,0.0,0.0,0.0,0.0,-2.2398,0.0,0.0,0.0,0.0,0.0,0.0,0.0,0.0,0.0,0.0,0.0,0.0,0.0,0.0,0.0,0.0,0.0,0.0,0.0,0.0,0.0,0.0,0.0,0.0,0.0,0.0,0.0,0.0,-2.4277,-2.57,-2.6572,-2.7287,-2.7787,-2.8583,-2.8952,-2.8893,-2.8815,-2.8608,-2.829,-2.8339,-2.8537,-2.8881,-2.9953,-3.0688,-3.1215,-3.2111,-3.247,-3.2369,-3.2351,-3.2351,-3.2367,-3.2417,-3.2874,-3.3498,-3.3473,-3.3837,-3.4415,-1.1859,-1.2563,0.0,0.0,0.0,-1.4958,-1.7221,-1.8128,-1.9116,0.0,0.0,0.0,0.0,0.0,0.0,0.0,0.0,-2.2663,-2.114,0.0,-1.8775,-1.8758,-1.6602,-1.5418,0.0,-1.3969,-1.2503,-1.1111,-1.0332,-1.0328,-1.1011,-1.0328,-1.0835,-1.2432,-1.4597,-1.6407,-1.7918,-1.936,-2.0826,-2.2195,-2.2212,-2.3513,-2.5355,0.0,-2.4948,-2.5693,-2.6404,0.0,0.0,-2.5862,-2.5576,0.0,0.0,0.0,0.0,0.0,0.0,0.0,0.0,0.0,0.0,-2.0775,0.0,0.0,0.0,0.0,-2.0084,0.0,0.0,0.0,0.0,0.0,0.0,-2.1235,0.0,0.0,0.0,0.0,0.0,0.0,0.0,0.0,0.0,0.0,0.0,0.0,0.0,0.0,-2.448,-2.5601,-2.6647,-2.7769,-2.8583,-2.8881,-2.8632,-2.8476,-2.8277,-2.801,-2.8027,-2.7986,-2.8,-2.958,-3.0106,-2.9845,-3.1377,-3.184,-3.1557,-3.182,-3.1949,-3.2039,-3.2231,-3.2602,-3.3021,-3.3081,-3.3129,-3.3412,0.0,0.0,0.0,0.0,0.0,-1.4984,-1.7299,-1.9085,0.0,0.0,0.0,0.0,0.0,0.0,-2.4903,0.0,0.0,-2.4239,-2.275,-2.1718,0.0,0.0,0.0,-1.7738,0.0,0.0,-1.4579,-1.4081,-1.2357,-1.1654,-1.1891,-1.1637,-1.206,-1.3151,-1.5849,-1.7608,0.0,0.0,0.0,0.0,0.0,-2.4492,-2.5575,0.0,0.0,-2.6353,-2.6607,-2.6691,0.0,-2.6404,-2.5998,-2.5642,-2.5879,-2.5286,-2.4541,-2.4797,-2.4678,0.0,0.0,0.0,-2.4628,-2.2144,0.0,0.0,0.0,0.0,0.0,0.0,0.0,0.0,0.0,0.0,-2.2175,-2.1357,-2.0885,0.0,0.0,0.0,0.0,0.0,0.0,0.0,0.0,0.0,0.0,0.0,-2.0688,0.0,0.0,-2.4367,-2.5348,-2.6435,-2.7203,-2.7805,-2.8188,-2.8061,-2.7865,-2.7589,-2.756,-2.7459,-2.7343,-2.8361,-2.9039,-2.942,-3.0397,-3.1006,-3.137,-3.1426,-3.1447,-3.1485,-3.156,-3.1804,-3.2196,-3.2699,-3.3065,-3.3551,-1.4592,0.0,0.0,0.0,0.0,0.0,0.0,0.0,0.0,0.0,-2.3595,0.0,-2.6152,0.0,-2.6438,0.0,-2.681,-2.6065,-2.4306,-2.3748,0.0,-2.2037,-2.0771,0.0,0.0,0.0,-1.6661,-1.5595,-1.4174,-1.3219,-1.2694,-1.2694,0.0,0.0,0.0,-1.8217,-1.9046,0.0,-2.2448,0.0,0.0,-2.5321,0.0,0.0,-2.6285,-2.6691,0.0,-2.6691,-2.6691,-2.6691,-2.6387,-2.6065,-2.6539,-2.6048,-2.532,-2.5541,-2.5456,-2.5168,-2.4643,-2.5033,0.0,-2.3175,-2.2699,0.0,-2.0175,0.0,0.0,0.0,0.0,0.0,0.0,0.0,0.0,-2.1634,-2.0715,0.0,0.0,0.0,0.0,0.0,0.0,0.0,0.0,0.0,-1.8949,-2.0151,0.0,0.0,0.0,0.0,-2.4633,-2.5732,-2.6477,-2.7164,-2.7779,-2.7681,-2.7487,-2.7211,-2.7181,-2.7053,-2.6926,-2.7709,-2.8441,-2.9172,-2.9847,-3.0575,-3.1254,-3.123,-3.119,-3.119,-3.119,-3.1408,-3.1769,-3.2401,-3.3039,-3.3821,0.0,0.0,0.0,0.0,-1.6714,0.0,0.0,0.0,-2.2527,0.0,-2.4995,-2.6067,-2.751,-2.7786,-2.818,-2.8942,-2.8993,0.0,-2.5913,-2.571,0.0,0.0,-2.2835,-2.2073,-2.1376,0.0,0.0,0.0,-1.568,-1.4877,-1.3515,-1.3481,0.0,0.0,-1.6802,0.0,-1.8995,-2.1278,-2.2716,-2.3579,-2.5067,-2.6065,-2.6691,-2.6691,-2.6691,-2.6691,-2.6691,-2.6691,-2.6691,-2.6691,-2.6691,-2.6691,-2.6691,-2.6691,-2.6556,-2.5862,-2.615,-2.6387,-2.4982,-2.5118,-2.5321,-2.3866,0.0,0.0,0.0,0.0,-2.3241,0.0,0.0,0.0,0.0,0.0,0.0,-2.2006,-2.0624,0.0,0.0,0.0,0.0,0.0,0.0,0.0,0.0,0.0,-1.6506,-1.9073,-1.7928,0.0,0.0,0.0,-2.4379,-2.5612,-2.6335,-2.6915,-2.7363,-2.7319,-2.7149,-2.6893,-2.6893,-2.6842,-2.6742,-2.7589,-2.837,-2.9044,-2.9786,-3.0531,-3.119,-3.119,-3.119,-3.119,-3.119,-3.1408,-3.175,-3.2162,-3.3015,-3.4148,-1.6976,-1.7973,-1.8734,0.0,-1.8537,-1.8818,0.0,0.0,0.0,0.0,-2.6387,-2.7552,-2.8531,-2.8669,-2.879,-2.8976,-2.8993,0.0,0.0,0.0,0.0,-2.5862,-2.4626,-2.3848,-2.3661,-2.1833,0.0,-1.9752,0.0,0.0,-1.503,0.0,0.0,0.0,0.0,0.0,-1.8222,-2.05,-2.2544,-2.4355,-2.5812,-2.6522,0.0,0.0,-2.6691,-2.6691,-2.6691,-2.6691,-2.6691,-2.6691,-2.6691,-2.6691,-2.6691,-2.6691,-2.6657,-2.6471,-2.6539,-2.6607,-2.6251,-2.6268,-2.6201,-2.527,-2.4611,-2.3966,0.0,0.0,0.0,0.0,0.0,0.0,0.0,0.0,0.0,0.0,0.0,0.0,0.0,0.0,0.0,0.0,0.0,0.0,0.0,0.0,-1.7497,-1.7473,0.0,0.0,0.0,0.0,0.0,-2.4879,-2.5099,-2.5748,-2.7022,-2.6907,-2.6875,-2.6893,-2.6792,-2.6792,-2.6859,-2.7538,-2.8265,-2.9044,-2.9786,-3.0531,-3.119,-3.119,-3.119,-3.119,-3.119,-3.1408,-3.175,-3.2162,-3.2826,-3.3671,-1.7964,0.0,0.0,-2.0361,0.0,0.0,-2.1947,0.0,0.0,-2.578,-2.7045,0.0,-2.8835,-2.9531,-2.9974,-2.9974,-2.9974,0.0,-2.9044,0.0,0.0,-2.6742,-2.6201,-2.5642,-2.4983,-2.3441,0.0,-2.0686,0.0,0.0,-1.5122,0.0,0.0,0.0,0.0,-1.7676,0.0,-2.141,-2.3357,-2.4626,-2.6116,0.0,0.0,-2.6691,-2.6691,-2.6691,-2.6691,-2.6691,-2.6691,-2.6691,-2.6691,-2.6691,-2.6691,-2.6691,-2.6691,-2.6691,-2.6691,-2.6691,-2.6691,-2.6691,-2.659,-2.6184,-2.5761,-2.5269,-2.4526,-2.4678,-2.4847,0.0,0.0,0.0,0.0,0.0,0.0,0.0,0.0,0.0,0.0,0.0,0.0,0.0,0.0,0.0,0.0,0.0,0.0,0.0,0.0,0.0,0.0,0.0,0.0,-2.4575,-2.4584,-2.5283,-2.6809,-2.6742,-2.6742,-2.6809,-2.6742,-2.6742,-2.6843,-2.7503,-2.8247,-2.9044,-2.9786,-3.0531,-3.119,-3.119,-3.119,-3.119,-3.119,-3.131,-3.1557,-3.2093,-3.2676,-3.3363,0.0,0.0,0.0,0.0,0.0,0.0,0.0,-2.3762,0.0,-2.664,0.0,-2.8391,-2.9029,-3.0355,-3.119,-3.119,0.0,-3.0649,-2.9365,-2.9803,-2.9228,-2.7232,-2.7672,-2.73,-2.5914,-2.4982,0.0,0.0,0.0,0.0,-1.4639,0.0,0.0,0.0,0.0,0.0,0.0,-2.2984,-2.4558,-2.4762,-2.615,-2.6691,-2.6691,-2.6691,-2.6674,-2.6674,-2.6674,-2.6691,-2.6691,-2.6691,-2.6691,-2.6691,-2.6691,-2.6691,-2.6691,-2.6691,-2.6691,-2.6691,-2.6691,-2.6691,-2.6691,-2.6674,-2.6691,-2.6539,-2.588,-2.5745,-2.5728,-2.5728,-2.522,-2.5151,0.0,0.0,0.0,0.0,0.0,0.0,0.0,0.0,0.0,0.0,0.0,0.0,0.0,0.0,0.0,0.0,0.0,0.0,0.0,0.0,0.0,-2.4382,-2.4488,-2.5168,-2.6539,0.0,-2.6691,-2.6691,-2.6691,-2.6691,-2.6725,-2.757,-2.8349,-2.9044,-2.9871,-3.0615,-3.119,-3.119,-3.119,-3.119,-3.119,-3.1258,-3.1427,-3.2175,-3.2719,-3.333,0.0,0.0,0.0,0.0,0.0,-2.4706,-2.5931,-2.6607,-2.735,-2.8432,-2.9751,-3.063,-3.0782,-3.1038,-3.119,-3.119,-3.119,0.0,0.0,0.0,0.0,-2.9533,-2.9042,-2.8366,-2.7435,-2.549,-2.3661,0.0,0.0,0.0,-1.5392,0.0,0.0,0.0,0.0,0.0,-2.0953,-2.3441,0.0,-2.5474,-2.6286,-2.6623,-2.6606,-2.6571,-2.6537,-2.6537,-2.6537,-2.6606,-2.6691,-2.6691,-2.6691,-2.6691,-2.6691,-2.6691,-2.6691,-2.6691,-2.6691,-2.6691,-2.6691,-2.6691,-2.6691,-2.6623,-2.6657,-2.664,-2.6472,-2.6472,-2.6505,-2.6505,-2.6387,-2.6201,-2.5862,0.0,0.0,0.0,0.0,0.0,0.0,0.0,0.0,0.0,0.0,0.0,0.0,0.0,0.0,0.0,0.0,0.0,0.0,0.0,0.0,0.0,-2.4186,0.0,0.0,0.0,-2.6691,-2.6691,-2.6691,-2.6691,-2.6742,-2.8163,-2.8874,-2.9077,-3.0412,-3.1072,-3.119,-3.119,-3.119,-3.119,-3.119,-3.1582,-3.2209,-3.2933,-3.3634,-3.4262,0.0,0.0,0.0,0.0,0.0,0.0,0.0,-2.8344,0.0,-2.9007,-2.9619,-3.0076,-3.0076,-3.0734,-3.119,-3.119,-3.119,-3.119,-3.119,-3.0869,-3.0497,-3.0125,-2.9753,0.0,-2.8433,-2.659,-2.4931,-2.3427,0.0,0.0,-1.6147,-1.5426,0.0,0.0,0.0,-1.9299,0.0,0.0,0.0,-2.566,-2.637,-2.6623,-2.6606,-2.6571,-2.6537,-2.6553,-2.6886,-2.7056,-2.706,-2.6741,-2.6674,-2.6691,-2.6691,-2.6691,-2.6691,-2.6691,-2.6691,-2.6691,-2.6691,-2.6691,-2.6691,-2.6623,-2.6623,-2.6623,-2.6571,-2.6572,-2.6589,-2.6589,-2.6589,-2.6387,-2.5679,-2.4922,0.0,0.0,0.0,0.0,0.0,0.0,0.0,0.0,0.0,0.0,0.0,0.0,0.0,0.0,0.0,0.0,0.0,0.0,0.0,0.0,0.0,0.0,0.0,0.0,0.0,-2.6691,-2.6691,-2.6894,-2.7317,-2.8468,-2.9213,-2.9634,-3.0717,-3.119,-3.119,-3.119,-3.119,-3.119,-3.119,-3.1667,-3.2395,-3.3136,-3.3863,-3.4539,0.0,-2.453,0.0,0.0,-2.6351,0.0,-2.8391,-2.991,-3.0592,-2.9559,-2.9448,-2.9467,-2.9467,-3.0497,-3.119,-3.119,-3.119,-3.119,-3.119,-3.119,-3.0937,-3.0362,-3.0345,-2.9989,-2.9264,-2.7706,-2.6116,0.0,0.0,0.0,0.0,-1.6407,0.0,0.0,0.0,0.0,0.0,0.0,-2.5389,-2.6133,-2.686,-2.7112,-2.7042,-2.7007,-2.6971,-2.6968,-2.7501,-2.7701,-2.7636,-2.7157,-2.7043,-2.7096,-2.7096,-2.7113,-2.7147,-2.7147,-2.7046,-2.6928,-2.6928,-2.6826,-2.6691,-2.6623,-2.6589,-2.6589,-2.652,-2.6502,-2.6502,-2.6502,-2.6502,-2.6302,-2.558,-2.5093,0.0,0.0,0.0,0.0,0.0,0.0,0.0,0.0,0.0,0.0,0.0,0.0,0.0,0.0,0.0,0.0,-1.7715,-1.8899,0.0,0.0,0.0,-2.4778,-2.5372,0.0,-2.6691,-2.6691,-2.686,-2.7249,-2.7841,-2.8789,-2.955,-3.0142,-3.0886,-3.119,-3.119,-3.119,-3.119,-3.119,-3.119,-3.1749,-3.2615,-3.3186,-3.3981,-3.481,0.0,0.0,0.0,0.0,0.0,0.0,-3.0133,-3.1851,-3.2559,-3.0998,-3.0929,-3.0987,-3.0987,-3.1106,-3.119,-3.119,-3.119,-3.119,-3.119,-3.119,-3.1157,-3.1106,-3.1089,-3.0751,-3.0023,-2.8483,-2.6657,0.0,0.0,-2.0276,0.0,-1.7946,0.0,0.0,0.0,0.0,0.0,-2.5575,-2.6928,-2.7637,-2.8325,-2.8553,-2.8496,-2.8367,-2.8272,-2.8229,-2.8279,-2.8353,-2.841,-2.8327,-2.8367,-2.8425,-2.8425,-2.8516,-2.8609,-2.8609,-2.8158,-2.7705,-2.7705,-2.7215,-2.6691,-2.6623,-2.6589,-2.6589,-2.652,-2.6502,-2.6502,-2.6502,-2.6502,-2.6251,-2.5464,-2.5764,-2.568,0.0,0.0,0.0,0.0,0.0,0.0,0.0,0.0,0.0,0.0,0.0,0.0,0.0,0.0,0.0,-1.7681,-1.7935,-1.9355,-2.2296,0.0,-2.4525,-2.4609,-2.6014,-2.6691,-2.6708,-2.7367,-2.7739,-2.7858,-2.9328,-3.0021,-3.0142,-3.0886,-3.119,-3.119,-3.119,-3.119,-3.119,-3.119,-3.2053,-3.3322,-3.3372,-3.4303,-3.5498,0.0,0.0,0.0,0.0,0.0,0.0,0.0,-3.1863,-3.2381,-3.2383,-3.2444,-3.2527,-3.2527,-3.2527,-3.2341,-3.1904,-3.187,-3.1684,-3.1224,-3.119,-3.119,-3.119,-3.119,-3.1055,-3.0768,-2.9736,-2.828,0.0,0.0,-2.2189,-2.0276,-1.9892,0.0,0.0,0.0,-2.4166,-2.5295,-2.6708,-2.7684,-2.83,-2.8656,-2.8699,-2.8584,-2.8603,-2.8527,-2.8459,-2.8853,-2.9022,-2.9108,-2.954,-2.9207,-2.8588,-2.8588,-2.8643,-2.868,-2.868,-2.85,-2.8283,-2.8283,-2.8048,-2.7729,-2.7204,-2.7086,-2.6951,-2.6445,-2.631,-2.631,-2.631,-2.6346,-2.6264,-2.5964,-2.5746,-2.5596,0.0,0.0,0.0,0.0,0.0,0.0,0.0,0.0,0.0,0.0,0.0,0.0,0.0,0.0,0.0,0.0,-1.7557,0.0,-2.1563,0.0,-2.4491,-2.4491,-2.5963,-2.6691,-2.6708,-2.7452,-2.8043,-2.8552,-2.9617,-3.0345,-3.0784,-3.1072,-3.119,-3.119,-3.119,-3.1151,-3.1125,-3.1561,-3.2365,-3.3261,-3.3732,-3.4538,-3.5412,-2.965,0.0,-2.9545,0.0,-3.0483,-3.0759,-3.2289,-3.2665,-3.3034,-3.3839,-3.3992,-3.3854,-3.3457,-3.3406,-3.3186,-3.2682,-3.2611,-3.2391,-3.1807,-3.1773,-3.1773,-3.1732,-3.155,0.0,-3.1452,-3.0579,-2.9465,-2.8145,-2.6336,0.0,-2.2815,0.0,0.0,0.0,-2.4944,-2.5832,-2.6786,-2.7847,-2.8515,-2.8941,-2.9271,-2.9314,-2.916,-2.9257,-2.9179,-2.9069,-2.9546,-2.9711,-2.9794,-3.0323,-2.9892,-2.9162,-2.9162,-2.9182,-2.9221,-2.9221,-2.909,-2.8925,-2.8925,-2.8774,-2.8471,-2.7898,-2.7579,-2.726,-2.6688,-2.6369,-2.6202,-2.6202,-2.624,-2.6277,-2.6277,-2.5844,-2.5595,-2.5894,0.0,0.0,0.0,0.0,0.0,0.0,0.0,-2.0381,0.0,0.0,0.0,0.0,0.0,0.0,0.0,0.0,0.0,0.0,0.0,0.0,0.0,-2.5999,-2.6742,-2.6944,-2.772,-2.8514,-2.9276,-3.0072,-3.068,-3.1151,-3.1151,-3.1131,-3.1112,-3.1112,-3.1052,-3.1039,-3.1795,-3.2492,-3.3198,-3.393,-3.4672,-3.5291,-3.0217,-3.0814,-3.1498,-3.2587,-3.3515,-3.4202,-3.444,-3.493,-3.5321,-3.5435,-3.5458,-3.4947,-3.3554,-3.3406,-3.3406,-3.3389,-3.3389,-3.3326,-3.3203,-3.3182,-3.3122,0.0,0.0,-3.2085,-3.2085,-3.0774,-2.9736,-2.8993,0.0,0.0,-2.6623,0.0,-2.647,-2.6399,-2.7136,-2.747,-2.757,-2.9061,-2.968,-2.9764,-3.0557,-3.0797,-3.0658,-3.0675,-3.0576,-3.0472,-3.0472,-3.0489,-3.0489,-3.0506,-3.0489,-3.0472,-3.0472,-3.0576,-3.0658,-3.0658,-3.0202,-2.9697,-2.9697,-2.9142,-2.8588,-2.8588,-2.8,-2.7411,-2.7394,-2.6755,-2.6202,-2.6202,-2.6202,-2.6202,-2.6202,-2.6185,-2.5937,-2.5243,0.0,0.0,0.0,0.0,0.0,0.0,-2.055,-2.0276,-2.1732,0.0,0.0,0.0,0.0,0.0,0.0,0.0,0.0,-2.3188,-2.4014,0.0,-2.528,-2.61,-2.6837,-2.7487,-2.8367,-2.9181,-2.9924,-3.0796,-3.1114,-3.0995,-3.0995,-3.0955,-3.0912,-3.0912,-3.0892,-3.0959,-3.1712,-3.2445,-3.3198,-3.393,-3.4672,-3.5291,-3.15,-3.1924,-3.2273,-3.2266,-3.2508,-3.2964,-3.3767,-3.402,-3.4448,-3.5268,-3.5446,-3.5284,-3.4751,-3.4818,-3.4687,0.0,-3.415,-3.3909,0.0,-3.3343,-3.3279,-3.3156,-3.2959,-3.2803,-3.2718,-3.2307,-3.1472,-3.023,0.0,0.0,0.0,-2.7169,-2.7381,-2.7805,-2.8579,-2.8876,-2.8865,-2.9926,-3.0325,-3.0277,-3.0612,-3.0671,-3.0568,-3.0671,-3.063,-3.0506,-3.0506,-3.0506,-3.0506,-3.0506,-3.0506,-3.0506,-3.0506,-3.0526,-3.0551,-3.0551,-3.0406,-3.0244,-3.0244,-3.0078,-2.9759,-2.9281,-2.8962,-2.8511,-2.7551,-2.6735,-2.6202,-2.6202,-2.6202,-2.6202,-2.6202,-2.6202,-2.6119,-2.5887,-2.4812,0.0,0.0,0.0,0.0,0.0,0.0,-2.1313,0.0,-2.0143,0.0,0.0,0.0,0.0,0.0,0.0,0.0,0.0,-2.4107,0.0,-2.5297,-2.6551,-2.7287,-2.752,-2.8795,-2.9822,-3.0599,-3.0854,-3.0972,-3.0932,-3.0932,-3.0932,-3.0892,-3.0892,-3.1152,-3.1604,-3.2317,-3.3006,-3.3671,-3.4419,-3.4835,-3.5018,-3.1968,-3.233,-3.2614,-3.2535,-3.2672,-3.3087,-3.396,-3.4086,-3.4374,-3.5111,-3.5291,-3.5337,-3.5291,-3.5412,0.0,-3.4913,-3.4906,-3.4704,-3.4221,-3.4187,-3.41,-3.3929,-3.37,-3.3505,-3.3378,0.0,0.0,-3.1633,-3.0918,-3.0022,-2.8965,-2.8757,-2.8835,-2.9221,-2.9712,-2.9892,-2.9864,-3.0389,-3.0755,-3.0919,-3.1004,-3.1153,-3.1305,-3.1103,-3.0983,-3.0886,-3.0605,-3.0506,-3.0506,-3.0506,-3.0506,-3.0506,-3.0506,-3.0506,-3.0506,-3.0506,-3.0506,-3.0506,-3.0506,-3.0506,-3.039,-2.9926,-2.9595,-2.9036,-2.7613,-2.695,-2.6535,-2.6252,-2.6202,-2.6202,-2.6202,-2.6202,-2.6103,-2.5821,-2.4779,-2.3901,-2.3619,0.0,0.0,0.0,0.0,0.0,0.0,-2.1512,0.0,0.0,0.0,0.0,0.0,0.0,0.0,-2.276,-2.4679,0.0,-2.6063,-2.7246,-2.7963,-2.8227,-2.9485,-3.0363,-3.0892,-3.0892,-3.0871,-3.0814,-3.0814,-3.081,-3.0786,-3.1049,-3.1374,-3.1843,-3.2835,-3.3477,-3.3889,-3.4618,-3.4899,-3.4899,-3.1756,-3.2107,0.0,0.0,-3.3688,0.0,-3.4763,-3.4835,-3.4916,-3.5131,-3.5138,-3.5185,-3.5395,-3.5358,-3.5371,-3.5536,0.0,0.0,0.0,-3.5514,-3.54,-3.5128,-3.4587,-3.4196,-3.406,-3.3456,-3.31,-3.3071,-3.239,-3.1917,-3.1664,-3.1095,-3.078,-3.0638,-3.0638,-3.0638,-3.0638,-3.0638,-3.1052,-3.1681,-3.1681,-3.21,-3.2636,-3.1951,-3.1681,-3.1581,-3.0903,-3.0638,-3.0638,-3.0638,-3.0638,-3.0638,-3.0638,-3.0621,-3.0572,-3.0522,-3.0506,-3.0506,-3.0506,-3.0506,-3.0506,-3.0506,-2.9943,-2.9069,-2.7746,-2.7398,-2.7166,-2.6435,-2.6286,-2.6252,-2.6202,-2.6202,-2.5954,-2.5209,-2.4481,-2.3735,-2.3007,0.0,0.0,0.0,0.0,0.0,0.0,-2.3156,-2.3386,0.0,0.0,0.0,0.0,0.0,-2.2894,-2.4214,-2.5628,-2.669,-2.7383,-2.8094,-2.8823,-2.9479,-3.0298,-3.0753,-3.0871,-3.0871,-3.0794,-3.0692,-3.0692,-3.0643,-3.0621,-3.1317,-3.1664,-3.1879,-3.3259,-3.3822,-3.3955,-3.4651,-3.4899,-3.4899,0.0,0.0,-3.2453,-3.2602,-3.2738,-3.314,-3.4134,-3.43,-3.4644,-3.5661,-3.5407,-3.5497,-3.6572,-3.5859,-3.5502,-3.6,-3.5719,-3.5543,-3.5571,-3.5594,-3.5481,-3.5268,-3.5117,-3.4948,-3.4698,-3.4539,-3.418,-3.3615,-3.2885,-3.2497,-3.2431,-3.2293,-3.2226,-3.2166,-3.2166,-3.2166,-3.2166,-3.2166,-3.2282,-3.2431,-3.2431,-3.2531,-3.2685,-3.2497,-3.2431,-3.2415,-3.2232,-3.2166,-3.2166,-3.2166,-3.2166,-3.2166,-3.2166,-3.1802,-3.1234,-3.0671,-3.0506,-3.0506,-3.0506,-3.0506,-3.0506,-3.0506,-2.9943,-2.9297,-2.8986,-2.8525,-2.7928,-2.7182,-2.705,-2.6868,-2.6301,-2.6202,-2.5954,-2.5209,-2.4481,-2.3735,-2.3007,-2.2742,0.0,0.0,-2.3288,-2.3669,-2.3503,-2.3288,-2.3022,0.0,0.0,0.0,0.0,-2.4365,-2.536,-2.5691,-2.6587,-2.74,-2.8127,-2.882,-2.9533,-3.0241,-3.0464,-3.0551,-3.0589,-3.0589,-3.0589,-3.0547,-3.0547,-3.0841,-3.135,-3.1532,-3.226,-3.3309,-3.3657,-3.4137,-3.4651,-3.4833,-3.4899,-3.4899,-3.1553,-3.1768,-3.217,-3.2757,-3.2859,-3.3258,-3.4415,-3.4595,-3.4845,-3.5548,-3.536,-3.5409,-3.6151,-3.5639,-3.5391,-3.5798,-3.5568,-3.5429,-3.5458,-3.5458,-3.5297,-3.4947,-3.4859,-3.461,-3.4218,-3.4152,-3.3932,-3.3543,-3.2789,-3.2432,-3.2424,-3.2084,-3.1922,-3.1922,-3.1922,-3.2078,-3.2325,-3.2325,-3.2675,-3.3216,-3.3216,-3.3392,-3.3657,-3.3348,-3.3216,-3.3166,-3.2834,-3.2702,-3.2702,-3.2702,-3.2702,-3.2702,-3.2702,-3.2431,-3.2017,-3.162,-3.104,-3.0506,-3.0506,-3.0506,-3.0506,-3.0506,-3.0191,-2.981,-2.9479,-2.9118,-2.8655,-2.7945,-2.7796,-2.7507,-2.6559,-2.6374,-2.586,-2.4294,-2.3708,-2.3108,-2.2086,-2.2167,0.0,-2.2345,-2.3269,-2.3787,-2.343,-2.3658,-2.3527,-2.2863,-2.343,0.0,-2.4079,-2.5555,-2.6336,-2.6202,-2.7545,-2.8439,-2.8853,-2.9546,-3.0092,-3.0506,-3.0506,-3.0506,-3.0506,-3.0506,-3.0506,-3.0522,-3.0853,-3.1234,-3.1648,-3.2326,-3.3077,-3.3822,-3.417,-3.4551,-3.4899,-3.4899,-3.4899,-3.4899,-3.1795,-3.1795,-3.2163,-3.333,-3.3552,-3.3908,-3.5024,-3.5203,-3.5235,-3.5345,-3.5266,-3.5266,-3.5515,-3.5313,-3.5291,-3.5514,-3.5368,-3.526,-3.5207,-3.5191,-3.4951,-3.4358,-3.4161,-3.386,-3.3371,-3.3251,-3.3182,-3.3182,-3.2556,-3.2262,-3.2236,-3.1628,-3.1319,-3.1319,-3.1319,-3.1634,-3.2112,-3.2112,-3.2714,-3.3712,-3.3712,-3.4067,-3.4585,-3.3959,-3.3712,-3.3646,-3.2981,-3.2813,-3.2898,-3.2813,-3.2836,-3.2898,-3.2813,-3.277,-3.2733,-3.2626,-3.1709,-3.0698,-3.0582,-3.0425,-3.03,-3.03,-3.03,-3.0136,-2.951,-2.9403,-2.9246,-2.8478,-2.8444,-2.8141,-2.6828,-2.6591,-2.5799,-2.3383,-2.295,-2.2469,-2.1066,0.0,-2.1972,-2.188,-2.3109,-2.3724,-2.3088,-2.4211,-2.4522,-2.3372,-2.4439,-2.5384,-2.5902,-2.6487,-2.675,-2.6572,-2.8339,-2.9365,-2.9444,-3.0154,-3.0506,-3.0506,-3.0506,-3.0506,-3.0506,-3.0506,-3.0555,-3.0704,-3.1333,-3.173,-3.2028,-3.3276,-3.3856,-3.4021,-3.4651,-3.4899,-3.4899,-3.4899,-3.4899,-3.4899,-3.3185,-3.3185,-3.3382,-3.4052,-3.414,-3.439,-3.5087,-3.5203,-3.5436,-3.6064,-3.5594,-3.5657,-3.6911,-3.5953,-3.5468,-3.6108,-3.5582,-3.5069,-3.4736,-3.4713,-3.4378,-3.3604,-3.3547,-3.3417,-3.3251,-3.3224,-3.3182,-3.3182,-3.3087,-3.3024,-3.304,-3.2914,-3.2866,-3.2866,-3.2866,-3.2892,-3.2996,-3.2996,-3.3111,-3.3284,-3.3284,-3.3364,-3.3443,-3.3332,-3.3284,-3.3268,-3.3157,-3.3437,-3.3794,-3.3294,-3.3462,-3.3794,-3.3269,-3.3044,-3.2838,-3.2356,-3.1951,-3.157,-3.0991,-3.0084,-2.9325,-2.9325,-2.9325,-2.9293,-2.9159,-2.9456,-2.9421,-2.8301,-2.8688,-2.8698,-2.6847,-2.6548,-2.5986,-2.4114,-2.3722,-2.3079,-2.144,0.0,-2.3251,-2.2686,-2.3872,-2.4677,-2.4567,-2.507,-2.557,-2.5976,-2.616,-2.6756,-2.7896,-2.7846,-2.7955,-2.8301,-2.8647,-2.9101,-2.974,-3.0234,-3.0506,-3.0506,-3.0506,-3.0506,-3.0506,-3.0506,-3.0837,-3.1449,-3.1548,-3.231,-3.3475,-3.3707,-3.4154,-3.4733,-3.4849,-3.4899,-3.4899,-3.4899,-3.4899,-3.4899,-3.3499,-3.3305,-3.3411,-3.4273,-3.4319,-3.4501,-3.5233,-3.537,-3.5477,-3.583,-3.5569,-3.5631,-3.6306,-3.5769,-3.5493,-3.5845,-3.5554,-3.5124,-3.4579,-3.4776,-3.4652,-3.4077,-3.3947,-3.3553,-3.2837,-3.2468,-3.2284,-3.2284,-3.2284,-3.2284,-3.2284,-3.2284,-3.2284,-3.2284,-3.2284,-3.2461,-3.2776,-3.2776,-3.2949,-3.3182,-3.3182,-3.3182,-3.3182,-3.3182,-3.3182,-3.3182,-3.3182,-3.3381,-3.3578,-3.3303,-3.3381,-3.3553,-3.3303,-3.3159,-3.3048,-3.2776,-3.2108,-3.1349,-3.1039,-3.0291,-2.9572,-2.9572,-2.9343,-2.9097,-2.9097,-2.9257,-2.9252,-2.8709,-2.8942,-2.8769,-2.7219,-2.6703,-2.6025,-2.4551,-2.3692,0.0,0.0,-2.2998,-2.359,-2.3268,-2.4449,-2.5277,-2.5277,-2.5435,-2.5687,-2.6057,-2.6044,-2.6535,-2.7748,-2.7686,-2.8032,-2.8898,-2.9178,-2.947,-2.9793,-3.0279,-3.0506,-3.0506,-3.0506,-3.0704,-3.1085,-3.1085,-3.1482,-3.2216,-3.2613,-3.3176,-3.3822,-3.422,-3.4584,-3.4899,-3.4899,-3.4899,-3.4899,-3.4899,-3.4899,-3.4899,-3.3963,-3.3663,-3.3693,-3.4562,-3.4592,-3.4741,-3.54,-3.5504,-3.5504,-3.5504,-3.5504,-3.5504,-3.5504,-3.5504,-3.5504,-3.5504,-3.5504,-3.528,-3.4788,-3.5063,-3.4973,-3.4356,-3.4192,-3.3681,-3.2751,-3.2213,-3.1959,-3.1959,-3.1809,-3.1735,-3.1735,-3.157,-3.1511,-3.1511,-3.1511,-3.1754,-3.2176,-3.2176,-3.2422,-3.2799,-3.2799,-3.2799,-3.2799,-3.2799,-3.2799,-3.2799,-3.2799,-3.2879,-3.2986,-3.2853,-3.2906,-3.2986,-3.2853,-3.2906,-3.2986,-3.2853,-3.2013,-3.1104,-3.1101,-3.0514,-2.9893,-2.9893,-2.9434,-2.8974,-2.8974,-2.8944,-2.8889,-2.8772,-2.8935,-2.8731,-2.7504,-2.6911,-2.622,-2.5061,0.0,0.0,0.0,-2.3644,-2.4014,-2.3849,-2.4881,-2.5615,-2.5615,-2.5828,-2.6012,-2.6012,-2.6148,-2.6662,-2.7667,-2.7511,-2.7789,-2.8709,-2.9325,-2.9639,-2.9639,-3.0006,-3.0177,-3.0194,-3.032,-3.068,-3.1237,-3.1395,-3.1853,-3.2603,-3.3294,-3.371,-3.3924,-3.462,-3.4899,-3.4899,-3.4899,-3.4899,-3.4899,-3.4899,-3.4899,-3.4899,-3.5355,-3.5325,-3.534,-3.5415,-3.5415,-3.5429,-3.5489,-3.5504,-3.5504,-3.5504,-3.5504,-3.5504,-3.5504,-3.5504,-3.5504,-3.5504,-3.5504,-3.5489,-3.5429,-3.5482,-3.4913,-3.3636,-3.3591,-3.3531,-3.3425,-3.338,-3.335,-3.335,-3.2736,-3.2437,-3.2392,-3.1795,-3.1511,-3.1511,-3.1511,-3.1524,-3.1553,-3.1553,-3.1582,-3.164,-3.164,-3.164,-3.164,-3.164,-3.164,-3.164,-3.164,-3.1979,-3.2355,-3.1824,-3.1994,-3.2355,-3.1796,-3.2007,-3.2342,-3.1796,-3.1536,-3.1439,-3.1394,-3.051,-2.9624,-2.9624,-2.9128,-2.8647,-2.8647,-2.8499,-2.8231,-2.7795,-2.8439,-2.8715,-2.7442,-2.7218,-2.6909,-2.5868,0.0,0.0,-2.4206,-2.4881,-2.5217,-2.4605,-2.5158,-2.5615,-2.5615,-2.6549,-2.7164,-2.7164,-2.7748,-2.8332,-2.8926,-2.8088,-2.7615,-2.771,-2.8654,-2.9143,-2.9143,-2.9205,-2.9189,-2.9205,-2.9761,-3.0077,-3.0141,-3.0773,-3.1444,-3.2184,-3.2788,-3.3453,-3.4119,-3.4675,-3.4899,-3.4899,-3.4899,-3.4899,-3.4899,-3.4899,-3.4899,-3.4899,-3.5504,-3.5504,-3.5504,-3.5504,-3.5504,-3.5504,-3.5504,-3.5504,-3.5504,-3.5504,-3.5504,-3.5504,-3.5504,-3.5504,-3.5504,-3.5504,-3.5504,-3.5504,-3.5504,-3.5504,-3.528,-3.4756,-3.4337,-3.4098,-3.4098,-3.3709,-3.3499,-3.3499,-3.3245,-3.3125,-3.311,-3.2871,-3.2751,-3.2751,-3.2751,-3.2751,-3.2751,-3.2751,-3.2751,-3.2751,-3.2751,-3.2751,-3.2751,-3.2751,-3.2751,-3.2751,-3.2751,-3.263,-3.2415,-3.2197,-3.2014,-3.1796,-3.1582,-3.1668,-3.1796,-3.1553,-3.1511,-3.1508,-3.1466,-3.0824,-3.0163,-3.0163,-2.9684,-2.9101,-2.8697,-2.8538,-2.8324,-2.7725,-2.7894,-2.8024,-2.7537,-2.7134,-2.6879,-2.6915,0.0,-2.5616,-2.5673,-2.5993,-2.6123,-2.5869,-2.6422,-2.6851,-2.6851,-2.7233,-2.7491,-2.7491,-2.7733,-2.7944,-2.8165,-2.781,-2.7735,-2.8027,-2.8125,-2.8319,-2.8614,-2.8935,-2.9097,-2.9113,-2.9714,-3.0227,-3.0693,-3.1394,-3.2088,-3.2777,-3.3026,-3.3288,-3.3553,-3.3758,-3.386,-3.3885,-3.4259,-3.4399,-3.4448,-3.478,-3.4899,-3.4899,-3.5504,-3.5504,-3.5504,-3.5504,-3.5504,-3.5504,-3.5504,-3.5504,-3.5504,-3.5504,-3.5504,-3.5504,-3.5504,-3.5504,-3.5504,-3.5504,-3.5504,-3.5504,-3.5504,-3.5504,-3.5504,-3.5504,-3.5055,-3.4801,-3.4801,-3.4352,-3.4128,-3.4128,-3.3903,-3.3799,-3.3799,-3.3589,-3.3499,-3.3499,-3.3499,-3.3499,-3.3499,-3.3499,-3.3499,-3.3499,-3.3499,-3.3499,-3.3499,-3.3499,-3.3499,-3.3499,-3.3499,-3.32,-3.2826,-3.2826,-3.2497,-3.2123,-3.2123,-3.1974,-3.1765,-3.157,-3.1511,-3.1511,-3.1511,-3.1152,-3.0821,-3.0821,-3.0342,-2.9744,-2.9295,-2.9041,-2.8771,-2.8319,-2.8229,-2.8169,-2.7959,-2.7555,-2.7315,-2.7555,-2.6836,-2.6378,-2.6866,-2.6926,-2.6926,-2.6926,-2.733,-2.76,-2.76,-2.76,-2.76,-2.76,-2.76,-2.76,-2.76,-2.76,-2.776,-2.8076,-2.7785,-2.7866,-2.8396,-2.8764,-2.8948,-2.8948,-2.9769,-3.0421,-3.0928,-3.1601,-3.2202,-3.268,-3.2868,-3.2949,-3.296,-3.3145,-3.3182,-3.3251,-3.3672,-3.3815,-3.3866,-3.4243,-3.4366,-3.4391,-3.5504,-3.5504,-3.5504,-3.5504,-3.5504,-3.5504,-3.5504,-3.5504,-3.5504,-3.5504,-3.5504,-3.5504,-3.5504,-3.5504,-3.5504,-3.5504,-3.5504,-3.5504,-3.5504,-3.5504,-3.5504,-3.5504,-3.5504,-3.5504,-3.5504,-3.5504,-3.5504,-3.5504,-3.4816,-3.4518,-3.4503,-3.3814,-3.3514,-3.3514,-3.3514,-3.3514,-3.3514,-3.3514,-3.3514,-3.3514,-3.3514,-3.3514,-3.3514,-3.3514,-3.3514,-3.3514,-3.3514,-3.3499,-3.3499,-3.3499,-3.3499,-3.3499,-3.3499,-3.3036,-3.2392,-3.1705,-3.1511,-3.1511,-3.1511,-3.1511,-3.1511,-3.1511,-3.0987,-3.0507,-3.0507,-3.0028,-2.9621,-2.9606,-2.9606,-2.9412,-2.8727,-2.8607,-2.8382,-2.772,-2.76,-2.76,-2.76,-2.76,-2.76,-2.76,-2.76,-2.76,-2.76,-2.76,-2.76,-2.76,-2.76,-2.76,-2.76,-2.76,-2.76,-2.76,-2.76,-2.7944,-2.8607,-2.8607,-2.8607,-2.8622,-2.9894,-3.0507,-3.0522,-3.1182,-3.1511,-3.1524,-3.212,-3.2398,-3.2437,-3.2975,-3.3198,-3.3198,-3.3182,-3.3182,-3.3182,-3.3182,-3.3182,-3.3277,-3.5504,-3.5504,-3.5504,-3.5504,-3.5504,-3.5504,-3.5504,-3.5504,-3.5504,-3.5504,-3.5504,-3.5504,-3.5504,-3.5504,-3.5504,-3.5504,-3.5504,-3.5504,-3.5504,-3.5504,-3.5504,-3.5504,-3.5504,-3.5504,-3.5504,-3.5504,-3.5504,-3.5504,-3.5295,-3.519,-3.519,-3.4996,-3.4906,-3.4906,-3.4906,-3.4906,-3.4906,-3.4906,-3.4906,-3.4906,-3.4906,-3.4906,-3.4906,-3.4906,-3.4906,-3.4906,-3.4906,-3.4592,-3.4219,-3.4219,-3.3873,-3.3499,-3.3499,-3.3365,-3.3155,-3.2961,-3.2557,-3.2183,-3.2183,-3.1854,-3.1511,-3.1511,-3.1346,-3.1077,-3.0612,-3.0357,-3.0103,-2.9696,-2.9606,-2.9547,-2.9352,-2.928,-2.9071,-2.8397,-2.8293,-2.8154,-2.766,-2.76,-2.76,-2.76,-2.76,-2.76,-2.76,-2.76,-2.76,-2.76,-2.76,-2.76,-2.76,-2.8064,-2.8293,-2.8293,-2.8768,-2.9112,-2.928,-2.8831,-2.8831,-2.9295,-3.0118,-3.0507,-3.0522,-3.1182,-3.1511,-3.1511,-3.1697,-3.1768,-3.1768,-3.1951,-3.1992,-3.2048,-3.2477,-3.2641,-3.2695,-3.3066,-3.3182,-3.3224,-3.5504,-3.5504,-3.5504,-3.5504,-3.5504,-3.5504,-3.5504,-3.5504,-3.5504,-3.5504,-3.5504,-3.5504,-3.5504,-3.5504,-3.5504,-3.5504,-3.5504,-3.5504,-3.5504,-3.5504,-3.5504,-3.5504,-3.5504,-3.5504,-3.5504,-3.5504,-3.5504,-3.5504,-3.5504,-3.5504,-3.5504,-3.5504,-3.5504,-3.5504,-3.5504,-3.5504,-3.5504,-3.5504,-3.5504,-3.5504,-3.5504,-3.5504,-3.5504,-3.5504,-3.5504,-3.5504,-3.5504,-3.5235,-3.4891,-3.4891,-3.4622,-3.4233,-3.3963,-3.3888,-3.3829,-3.3574,-3.3215,-3.2901,-3.2901,-3.2363,-3.1826,-3.1826,-3.1647,-3.1391,-3.0972,-3.0883,-3.0806,-3.0432,-3.0357,-3.0268,-2.9998,-2.9953,-2.9744,-2.9086,-2.8996,-2.8846,-2.8453,-2.8393,-2.8289,-2.8034,-2.8004,-2.7899,-2.763,-2.76,-2.7705,-2.7989,-2.8244,-2.8393,-2.8393,-2.8798,-2.8996,-2.8996,-2.9397,-2.9726,-2.9939,-2.9549,-2.9549,-2.9953,-3.0597,-3.0883,-3.0898,-3.1316,-3.1511,-3.1511,-3.1511,-3.1511,-3.1511,-3.1511,-3.1511,-3.1539,-3.191,-3.2035,-3.2064,-3.2422,-3.2516,-3.2571,-3.5504,-3.5504,-3.5504,-3.5504,-3.5504,-3.5504,-3.5504,-3.5504,-3.5504,-3.5504,-3.5504,-3.5504,-3.5504,-3.5504,-3.5504,-3.5504,-3.5504,-3.5504,-3.5504,-3.5504,-3.5504,-3.5504,-3.5504,-3.5504,-3.5504,-3.5504,-3.5504,-3.5504,-3.5504,-3.5504,-3.5504,-3.5504,-3.5504,-3.5504,-3.5504,-3.5504,-3.5504,-3.5504,-3.5504,-3.5504,-3.5504,-3.5504,-3.5504,-3.5504,-3.5504,-3.5504,-3.5504,-3.5504,-3.5504,-3.5504,-3.5504,-3.5367,-3.4771,-3.4562,-3.4442,-3.3813,-3.3603,-3.3543,-3.3558,-3.2973,-3.2361,-3.2361,-3.1946,-3.1512,-3.1482,-3.1467,-3.1482,-3.1511,-3.1511,-3.1316,-3.0717,-3.0597,-3.0387,-2.9759,-2.9669,-2.9666,-2.9579,-2.9579,-2.9355,-2.8757,-2.8682,-2.8442,-2.7839,-2.7779,-2.8034,-2.8637,-2.9235,-2.9606,-2.9606,-2.9666,-2.9696,-2.9696,-2.9756,-3.0028,-3.0597,-3.0597,-3.0597,-3.0612,-3.1212,-3.1511,-3.1511,-3.1511,-3.1511,-3.1511,-3.1511,-3.1511,-3.1511,-3.1511,-3.1511,-3.1511,-3.1511,-3.1511,-3.1511,-3.1511,-3.1511,-3.1582,-3.5504,-3.5504,-3.5504,-3.5504,-3.5504,-3.5504,-3.5504,-3.5504,-3.5504,-3.5504,-3.5504,-3.5504,-3.5504,-3.5504,-3.5504,-3.5504,-3.5504,-3.5504,-3.5504,-3.5504,-3.5504,-3.5504,-3.5504,-3.5504,-3.5504,-3.5504,-3.5504,-3.5504,-3.5504,-3.5504,-3.5504,-3.5504,-3.5504,-3.5504,-3.5504,-3.5504,-3.5504,-3.5504,-3.5504,-3.5504,-3.5504,-3.5504,-3.5504,-3.5504,-3.5504,-3.5504,-3.5504,-3.5504,-3.5504,-3.5504,-3.5392,-3.5231,-3.5083,-3.5038,-3.5008,-3.4682,-3.4347,-3.4027,-3.3915,-3.3393,-3.2859,-3.2859,-3.2372,-3.1812,-3.144,-3.1278,-3.1249,-3.1453,-3.1409,-3.1335,-3.1273,-3.1271,-3.1034,-3.0264,-3.0229,-3.0063,-2.9434,-2.9498,-2.9562,-2.9412,-2.937,-2.9337,-2.9187,-2.9172,-2.9232,-2.9355,-2.9532,-2.9606,-2.9606,-3.0043,-3.0298,-3.0298,-3.0793,-3.1152,-3.1271,-3.1271,-3.1271,-3.1286,-3.1436,-3.1511,-3.1511,-3.1511,-3.1511,-3.1511,-3.1511,-3.1511,-3.1511,-3.1511,-3.1511,-3.1511,-3.1511,-3.1511,-3.1511,-3.1511,-3.1511,-3.1511,-3.5504,-3.5504,-3.5504,-3.5504,-3.5504,-3.5504,-3.5504,-3.5504,-3.5504,-3.5504,-3.5504,-3.5504,-3.5504,-3.5504,-3.5504,-3.5504,-3.5504,-3.5504,-3.5504,-3.5504,-3.5504,-3.5504,-3.5504,-3.5504,-3.5504,-3.5504,-3.5504,-3.5504,-3.5504,-3.5504,-3.5504,-3.5504,-3.5504,-3.5504,-3.5504,-3.5504,-3.5504,-3.5504,-3.5504,-3.5504,-3.5504,-3.5504,-3.5504,-3.5504,-3.5504,-3.5504,-3.5504,-3.5504,-3.5504,-3.5504,-3.5359,-3.518,-3.518,-3.5115,-3.5034,-3.4935,-3.4717,-3.4517,-3.4466,-3.3883,-3.3319,-3.3319,-3.2786,-3.2125,-3.1737,-3.1353,-3.1146,-3.1278,-3.1234,-3.1249,-3.1307,-3.1307,-3.1159,-3.076,-3.0759,-3.0625,-3.0214,-3.0311,-3.0304,-2.9963,-3.0001,-2.9909,-2.9636,-2.9849,-3.0028,-3.0028,-3.0328,-3.0507,-3.0507,-3.0821,-3.0972,-3.0972,-3.1316,-3.1511,-3.1511,-3.1511,-3.1511,-3.1511,-3.1511,-3.1511,-3.1511,-3.1511,-3.1511,-3.1511,-3.1511,-3.1511,-3.1511,-3.1511,-3.1511,-3.1511,-3.1511,-3.1511,-3.1511,-3.1511,-3.1511,-3.1511,-3.5504,-3.5504,-3.5504,-3.5504,-3.5504,-3.5504,-3.5504,-3.5504,-3.5504,-3.5504,-3.5504,-3.5504,-3.5504,-3.5504,-3.5504,-3.5504,-3.5504,-3.5504,-3.5504,-3.5504,-3.5504,-3.5504,-3.5504,-3.5504,-3.5504,-3.5504,-3.5504,-3.5504,-3.5504,-3.5504,-3.5504,-3.5504,-3.5504,-3.5504,-3.5504,-3.5504,-3.5504,-3.5504,-3.5504,-3.5504,-3.5472,-3.5472,-3.5504,-3.5439,-3.5439,-3.5504,-3.5472,-3.5439,-3.5439,-3.5439,-3.5294,-3.5115,-3.5115,-3.5016,-3.4868,-3.4835,-3.4868,-3.4902,-3.4835,-3.4339,-3.3864,-3.3831,-3.3234,-3.2605,-3.2317,-3.1793,-3.1323,-3.1279,-3.125,-3.122,-3.1102,-3.1117,-3.1087,-3.1043,-3.1087,-3.1087,-3.1043,-3.1176,-3.1084,-3.0521,-3.0546,-3.0449,-2.9968,-3.0372,-3.0672,-3.0672,-3.1182,-3.1511,-3.1511,-3.1511,-3.1511,-3.1511,-3.1511,-3.1511,-3.1511,-3.1511,-3.1511,-3.1511,-3.1511,-3.1511,-3.1511,-3.1511,-3.1511,-3.1511,-3.1511,-3.1511,-3.1511,-3.1511,-3.1511,-3.1511,-3.1511,-3.1511,-3.1511,-3.1467,-3.1467,-3.1482,-3.5504,-3.5504,-3.5504,-3.5504,-3.5504,-3.5504,-3.5504,-3.5504,-3.5504,-3.5504,-3.5504,-3.5504,-3.5504,-3.5504,-3.5504,-3.5504,-3.5504,-3.5504,-3.5504,-3.5504,-3.5504,-3.5504,-3.5504,-3.5504,-3.5504,-3.5504,-3.5504,-3.5504,-3.5504,-3.5504,-3.5504,-3.5504,-3.5504,-3.5504,-3.5504,-3.5504,-3.5504,-3.5504,-3.5504,-3.5472,-3.5326,-3.5326,-3.5472,-3.5115,-3.518,-3.5472,-3.5294,-3.5261,-3.5261,-3.5261,-3.503,-3.4765,-3.4765,-3.4765,-3.4683,-3.4515,-3.4668,-3.4835,-3.4534,-3.4524,-3.4533,-3.4351,-3.3837,-3.3344,-3.3289,-3.278,-3.2232,-3.194,-3.1792,-3.1585,-3.1176,-3.1117,-3.1043,-3.0866,-3.0984,-3.1043,-3.0866,-3.1117,-3.1234,-3.1013,-3.1101,-3.1216,-3.1256,-3.1316,-3.1361,-3.1361,-3.1451,-3.1511,-3.1511,-3.1511,-3.1511,-3.1511,-3.1511,-3.1511,-3.1511,-3.1511,-3.1511,-3.1511,-3.1511,-3.1511,-3.1511,-3.1511,-3.1511,-3.1511,-3.1511,-3.1511,-3.1511,-3.1511,-3.1511,-3.1511,-3.1511,-3.1511,-3.1511,-3.138,-3.1322,-3.1396,-3.5504,-3.5504,-3.5504,-3.5504,-3.5504,-3.5504,-3.5504,-3.5504,-3.5504,-3.5504,-3.5504,-3.5504,-3.5504,-3.5504,-3.5504,-3.5504,-3.5504,-3.5504,-3.5504,-3.5504,-3.5504,-3.5504,-3.5392,-3.5392,-3.5504,-3.5392,-3.5392,-3.5504,-3.5504,-3.5504,-3.5504,-3.5504,-3.5504,-3.5504,-3.5359,-3.5392,-3.5504,-3.5261,-3.5213,-3.5326,-3.5261,-3.5261,-3.5326,-3.5261,-3.5359,-3.5472,-3.5261,-3.518,-3.518,-3.5082,-3.4949,-3.4817,-3.4731,-3.4698,-3.4664,-3.4448,-3.4501,-3.4601,-3.4448,-3.4448,-3.4515,-3.4414,-3.4196,-3.3993,-3.3993,-3.3775,-3.3329,-3.2453,-3.2311,-3.2169,-3.1615,-3.1543,-3.1441,-3.088,-3.0984,-3.1014,-3.0821,-3.1087,-3.1322,-3.1336,-3.1395,-3.1438,-3.1511,-3.1511,-3.1511,-3.1511,-3.1511,-3.1511,-3.1511,-3.1438,-3.138,-3.138,-3.1336,-3.1278,-3.1278,-3.1278,-3.1278,-3.1278,-3.1278,-3.1366,-3.1511,-3.1511,-3.1511,-3.1511,-3.1511,-3.1511,-3.1511,-3.1511,-3.1511,-3.1511,-3.1511,-3.1438,-3.138,-3.1322,-3.1263,-3.1279]},{"header":{"parameterUnit":"m.s-1","parameterCategory":1,"la1":30.6,"la2":28.766,"lo1":-90.7593,"lo2":-88.6598,"dy":0.0162,"dx":0.0183,"nx":116,"ny":114,"refTime":"2024-06-08T00:00:00:Z","depth":0,"parameterNumber":3,"parameterNumberName":"V-component_of_WINDS"},"data":[0.0,0.0,0.0,0.0,0.0,0.0,0.0,0.0,0.0,0.0,0.0,0.0,0.0,0.0,0.0,0.0,0.0,0.0,0.0,0.0,0.0,0.0,0.0,0.0,0.0,0.0,0.0,0.0,0.0,0.0,0.0,0.0,0.0,0.0,0.0,0.0,0.0,0.0,0.0,0.0,0.0,0.0,0.0,0.0,0.0,0.0,0.0,0.0,0.0,0.0,0.0,0.0,0.0,0.0,0.0,0.0,0.0,0.0,0.0,0.0,0.0,0.0,0.0,0.0,0.0,0.0,0.0,0.0,0.0,0.0,0.0,0.0,0.0,0.0,0.0,0.0,0.0,0.0,0.0,0.0,0.0,0.0,0.0,0.0,0.0,0.0,0.0,0.0,0.0,0.0,0.0,0.0,0.0,0.0,0.0,0.0,0.0,0.0,0.0,0.0,0.0,0.0,0.0,0.0,0.0,0.0,0.0,0.0,0.0,0.0,0.0,0.0,0.0,0.0,0.0,0.0,0.0,0.0,0.0,0.0,0.0,0.0,0.0,0.0,0.0,0.0,0.0,0.0,0.0,0.0,0.0,0.0,0.0,0.0,0.0,0.0,0.0,0.0,0.0,0.0,0.0,0.0,0.0,0.0,0.0,0.0,0.0,0.0,0.0,0.0,0.0,0.0,0.0,0.0,0.0,0.0,0.0,0.0,0.0,0.0,0.0,0.0,0.0,0.0,0.0,0.0,0.0,0.0,0.0,0.0,0.0,0.0,0.0,0.0,0.0,0.0,0.0,0.0,0.0,0.0,0.0,0.0,0.0,0.0,0.0,0.0,0.0,0.0,0.0,0.0,0.0,0.0,0.0,0.0,0.0,0.0,0.0,0.0,0.0,0.0,0.0,0.0,0.0,0.0,0.0,0.0,0.0,0.0,0.0,0.0,0.0,0.0,0.0,0.0,0.0,0.0,0.0,0.0,0.0,0.0,0.0,0.0,0.0,0.0,0.0,0.0,0.0,0.0,0.0,0.0,0.0,0.0,0.0,0.0,0.0,0.0,0.0,0.0,0.0,0.0,0.0,0.0,0.0,0.0,0.0,0.0,0.0,0.0,0.0,0.0,0.0,0.0,0.0,0.0,0.0,0.0,0.0,0.0,0.0,0.0,0.0,0.0,0.0,0.0,0.0,0.0,0.0,0.0,0.0,0.0,0.0,0.0,0.0,0.0,0.0,0.0,0.0,0.0,0.0,0.0,0.0,0.0,0.0,0.0,0.0,0.0,0.0,0.0,0.0,0.0,0.0,0.0,0.0,0.0,0.0,0.0,0.0,0.0,0.0,0.0,0.0,0.0,0.0,0.0,0.0,0.0,0.0,0.0,0.0,0.0,0.0,0.0,0.0,0.0,0.0,0.0,0.0,0.0,0.0,0.0,0.0,0.0,0.0,0.0,0.0,0.0,0.0,0.0,0.0,0.0,0.0,0.0,0.0,0.0,0.0,0.0,0.0,0.0,0.0,0.0,0.0,0.0,0.0,0.0,0.0,0.0,0.0,0.0,0.0,0.0,0.0,0.0,0.0,0.0,0.0,0.0,0.0,0.0,0.0,0.0,0.0,0.0,0.0,0.0,0.0,0.0,0.0,0.0,0.0,0.0,0.0,0.0,0.0,0.0,0.0,0.0,0.0,0.0,0.0,0.0,0.0,0.0,0.0,0.0,0.0,0.0,0.0,0.0,0.0,0.0,0.0,0.0,0.0,0.0,0.0,0.0,0.0,0.0,0.0,0.0,0.0,0.0,0.0,0.0,0.0,0.0,0.0,0.0,0.0,0.0,0.0,0.0,0.0,0.0,0.0,0.0,0.0,0.0,0.0,0.0,0.0,0.0,0.0,0.0,0.0,0.0,0.0,0.0,0.0,0.0,0.0,0.0,0.0,0.0,0.0,0.0,0.0,0.0,0.0,0.0,0.0,0.0,0.0,0.0,0.0,0.0,0.0,0.0,0.0,0.0,0.0,0.0,0.0,0.0,0.0,0.0,0.0,0.0,0.0,0.0,0.0,0.0,0.0,0.0,0.0,0.0,0.0,0.0,0.0,0.0,0.0,0.0,0.0,0.0,0.0,0.0,0.0,0.0,0.0,0.0,0.0,0.0,0.0,0.0,0.0,0.0,0.0,0.0,0.0,0.0,0.0,0.0,0.0,0.0,0.0,0.0,0.0,0.0,0.0,0.0,0.0,0.0,0.0,0.0,0.0,0.0,0.0,0.0,0.0,0.0,0.0,0.0,0.0,0.0,0.0,0.0,0.0,0.0,0.0,0.0,0.0,0.0,0.0,0.0,0.0,0.0,0.0,0.0,0.0,0.0,0.0,0.0,0.0,0.0,0.0,0.0,0.0,0.0,0.0,0.0,0.0,0.0,0.0,0.0,0.0,0.0,0.0,0.0,0.0,0.0,0.0,0.0,0.0,0.0,0.0,0.0,0.0,0.0,0.0,0.0,0.0,0.0,0.0,0.0,0.0,0.0,0.0,0.0,0.0,0.0,0.0,0.0,0.0,0.0,0.0,0.0,0.0,0.0,0.0,0.0,0.0,0.0,0.0,0.0,0.0,0.0,0.0,0.0,0.0,0.0,0.0,0.0,0.0,0.0,0.0,0.0,0.0,0.0,0.0,0.0,0.0,0.0,0.0,0.0,0.0,0.0,0.0,0.0,0.0,0.0,0.0,0.0,0.0,0.0,0.0,0.0,0.0,0.0,0.0,0.0,0.0,0.0,0.0,0.0,0.0,0.0,0.0,0.0,0.0,0.0,0.0,0.0,0.0,0.0,0.0,0.0,0.0,0.0,0.0,0.0,0.0,0.0,0.0,0.0,0.0,0.0,0.0,0.0,0.0,0.0,0.0,0.0,0.0,0.0,0.0,0.0,0.0,0.0,0.0,0.0,0.0,0.0,0.0,0.0,0.0,0.0,0.0,0.0,0.0,0.0,0.0,0.0,0.0,0.0,0.0,0.0,0.0,0.0,0.0,0.0,0.0,0.0,0.0,0.0,0.0,0.0,0.0,0.0,0.0,0.0,0.0,0.0,0.0,0.0,0.0,0.0,0.0,0.0,0.0,0.0,0.0,0.0,0.0,0.0,0.0,0.0,0.0,0.0,0.0,0.0,0.0,0.0,0.0,0.0,0.0,0.0,0.0,0.0,0.0,0.0,0.0,0.0,0.0,0.0,0.0,0.0,0.0,0.0,0.0,0.0,0.0,0.0,0.0,0.0,0.0,0.0,0.0,0.0,0.0,0.0,0.0,0.0,0.0,0.0,0.0,0.0,0.0,0.0,0.0,0.0,0.0,0.0,0.0,0.0,0.0,0.0,0.0,0.0,0.0,0.0,0.0,0.0,0.0,0.0,0.0,0.0,0.0,0.0,0.0,0.0,0.0,0.0,0.0,0.0,0.0,0.0,0.0,0.0,0.0,0.0,0.0,0.0,0.0,0.0,0.0,0.0,0.0,0.0,0.0,0.0,0.0,0.0,0.0,0.0,0.0,0.0,0.0,0.0,0.0,0.0,0.0,0.0,0.0,0.0,0.0,0.0,0.0,0.0,0.0,0.0,0.0,0.0,0.0,0.0,0.0,0.0,0.0,0.0,0.0,0.0,0.0,0.0,0.0,0.0,0.0,0.0,0.0,0.0,0.0,0.0,0.0,0.0,0.0,0.0,0.0,0.0,0.0,0.0,0.0,0.0,0.0,0.0,0.0,0.0,0.0,0.0,0.0,0.0,0.0,0.0,0.0,0.0,0.0,0.0,0.0,0.0,0.0,0.0,0.0,0.0,0.0,0.0,0.0,0.0,0.0,0.0,0.0,0.0,0.0,0.0,0.0,0.0,0.0,0.0,0.0,0.0,0.0,0.0,0.0,0.0,0.0,0.0,0.0,0.0,0.0,0.0,0.0,0.0,0.0,0.0,0.0,0.0,0.0,0.0,0.0,0.0,0.0,0.0,0.0,0.0,0.0,0.0,0.0,0.0,0.0,0.0,0.0,0.0,0.0,0.0,0.0,0.0,0.0,0.0,0.0,0.0,0.0,0.0,0.0,0.0,0.0,0.0,0.0,0.0,0.0,0.0,0.0,0.0,0.0,0.0,0.0,0.0,0.0,0.0,0.0,0.0,0.0,0.0,0.0,0.0,0.0,0.0,0.0,0.0,0.0,0.0,0.0,0.0,0.0,0.0,0.0,0.0,0.0,0.0,0.0,0.0,0.0,0.0,0.0,0.0,0.0,0.0,0.0,0.0,0.0,0.0,0.0,0.0,0.0,0.0,0.0,0.0,0.0,0.0,0.0,0.0,0.0,0.0,0.0,0.0,0.0,0.0,0.0,0.0,0.0,0.0,0.0,0.0,0.0,0.0,0.0,0.0,0.0,0.0,0.0,0.0,0.0,0.0,0.0,0.0,0.0,0.0,0.0,0.0,0.0,0.0,0.0,0.0,0.0,0.0,0.0,0.0,0.0,0.0,0.0,0.0,0.0,0.0,0.0,0.0,0.0,0.0,0.0,0.0,0.0,0.0,0.0,0.0,0.0,0.0,0.0,0.0,0.0,0.0,0.0,0.0,0.0,0.0,0.0,0.0,0.0,0.0,0.0,0.0,0.0,0.0,0.0,0.0,0.0,0.0,0.0,0.0,0.0,0.0,0.0,0.0,0.0,0.0,0.0,0.0,0.0,0.0,0.0,0.0,0.0,0.0,0.0,0.0,0.0,0.0,0.0,0.0,0.0,0.0,0.0,0.0,0.0,0.0,0.0,0.0,0.0,0.0,0.0,0.0,0.0,0.0,0.0,0.0,0.0,0.0,0.0,0.0,0.0,0.0,0.0,0.0,0.0,0.0,0.0,0.0,0.0,0.0,0.0,0.0,0.0,0.0,0.0,0.0,0.0,0.0,0.0,0.0,0.0,0.0,0.0,0.0,0.0,0.0,0.0,0.0,0.0,0.0,0.0,0.0,0.0,0.0,0.0,0.0,0.0,0.0,0.0,0.0,0.0,0.0,0.0,0.0,0.0,0.0,0.0,0.0,0.0,0.0,0.0,0.0,0.0,0.0,0.0,0.0,0.0,0.0,0.0,0.0,0.0,0.0,0.0,0.0,0.0,0.0,0.0,0.0,0.0,0.0,0.0,0.0,0.0,0.0,0.0,0.0,0.0,0.0,0.0,0.0,0.0,0.0,0.0,0.0,0.0,0.0,0.0,0.0,0.0,0.0,0.0,0.0,0.0,0.0,0.0,0.0,0.0,0.0,0.0,0.0,0.0,0.0,0.0,0.0,0.0,0.0,0.0,0.0,0.0,0.0,0.0,0.0,0.0,0.0,0.0,0.0,0.0,0.0,0.0,0.0,0.0,0.0,0.0,0.0,0.0,0.0,0.0,0.0,0.0,0.0,0.0,0.0,0.0,0.0,0.0,0.0,0.0,0.0,0.0,0.0,0.0,0.0,0.0,0.0,0.0,0.0,0.0,0.0,0.0,0.0,0.0,0.0,0.0,0.0,0.0,0.0,0.0,0.0,0.0,0.0,0.0,0.0,0.0,0.0,0.0,0.0,0.0,0.0,0.0,0.0,0.0,0.0,0.0,0.0,0.0,0.0,0.0,0.0,0.0,0.0,0.0,0.0,0.0,0.0,0.0,0.0,0.0,0.0,0.0,0.0,0.0,0.0,0.0,0.0,0.0,0.0,0.0,0.0,0.0,0.0,0.0,0.0,0.0,0.0,0.0,0.0,0.0,0.0,0.0,0.0,0.0,0.0,0.0,0.0,0.0,0.0,0.0,0.0,0.0,0.0,0.0,0.0,0.0,0.0,0.0,0.0,0.0,0.0,0.0,0.0,0.0,0.0,0.0,0.0,0.0,0.0,0.0,0.0,0.0,0.0,0.0,0.0,0.0,0.0,0.0,0.0,0.0,0.0,0.0,0.0,0.0,0.0,0.0,0.0,0.0,0.0,0.0,0.0,0.0,0.0,0.0,0.0,0.0,0.0,0.0,0.0,0.0,0.0,0.0,0.0,0.0,0.0,0.0,0.0,0.0,0.0,0.0,0.0,0.0,0.0,0.0,0.0,0.0,0.0,0.0,0.0,0.0,0.0,1.3204,0.0,0.0,0.0,0.0,0.0,0.0,0.0,0.0,0.0,0.0,0.0,0.0,0.0,0.0,0.0,0.0,0.0,0.0,0.0,0.0,0.0,0.0,0.0,0.0,0.4981,0.5088,0.479,0.5898,0.6541,0.6342,0.0,0.0,0.0,0.0,0.0,0.7388,0.7434,0.6846,0.5586,0.5871,0.5881,0.5646,0.5869,0.6043,0.6128,0.0,0.0,0.0,0.0,0.0,0.0,0.0,0.0,0.0,0.0,0.0,0.0,0.0,0.0,0.0,0.0,0.0,0.0,0.0,0.0,0.0,0.0,0.0,0.0,0.0,0.0,0.0,0.0,0.0,0.0,0.0,0.0,0.0,0.0,0.0,0.0,0.0,0.0,0.0,0.0,0.0,0.0,0.0,0.0,0.0,0.0,0.0,0.0,0.0,0.0,0.0,0.0,0.0,0.0,0.0,0.0,0.0,0.0,0.0,0.0,0.0,0.0,0.0,0.0,0.0,0.0,0.0,0.0,0.0,0.0,0.0,1.4794,0.0,0.0,0.0,0.0,0.0,0.0,0.0,0.0,0.0,0.0,0.0,0.0,0.0,0.0,0.0,0.0,0.0,0.0,0.0,0.0,0.0,0.4893,0.4491,0.4728,0.4691,0.4147,0.5101,0.5631,0.5392,0.6422,0.0,0.0,0.0,0.7271,0.6225,0.6368,0.5808,0.4493,0.5028,0.5441,0.572,0.5219,0.5494,0.6408,0.6182,0.0,0.0,0.0,0.0,0.0,0.0,0.0,0.0,0.0,0.0,0.0,0.0,0.0,0.0,0.0,0.0,0.0,0.0,0.0,0.0,0.0,0.0,0.0,0.0,0.0,0.0,0.0,0.0,0.0,0.0,0.0,0.0,0.0,0.0,0.0,0.0,0.0,0.0,0.0,0.0,0.0,0.0,0.0,0.0,0.0,0.0,0.0,0.0,0.0,0.0,0.0,0.0,0.0,0.0,0.0,0.0,0.0,0.0,0.0,0.0,0.0,0.0,0.0,1.5624,1.6061,1.6185,1.6185,1.654,1.7138,1.6909,1.7191,1.7661,0.0,0.0,0.0,0.0,0.0,0.0,0.0,0.0,0.0,0.0,0.0,0.0,0.0,0.0,0.0,0.0,0.0,0.0,0.0,0.0,0.4577,0.3892,0.4259,0.4211,0.3337,0.4139,0.4631,0.4482,0.5222,0.0,0.0,0.5317,0.5157,0.4197,0.4484,0.432,0.3659,0.3918,0.4126,0.4286,0.4482,0.4969,0.5639,0.5613,0.5774,0.6026,0.0,0.0,0.0,0.0,0.0,0.0,0.0,0.0,0.0,0.0,0.0,0.0,0.0,0.0,0.0,0.0,0.0,0.0,0.0,0.0,0.0,0.0,0.0,0.0,0.0,0.0,0.0,0.0,0.0,0.0,0.0,0.0,0.0,0.0,0.0,0.0,0.0,0.0,0.0,0.0,0.0,0.8856,0.9373,0.0,0.0,0.0,0.0,0.0,0.0,0.0,0.0,0.0,0.0,0.0,0.0,0.0,1.4514,1.526,1.6898,1.7759,1.7777,1.8899,1.9542,1.974,1.974,1.9869,2.0108,1.9864,0.0,1.7639,1.6638,0.0,0.0,0.0,0.0,0.0,0.0,0.0,0.0,0.0,0.0,0.0,0.0,0.0,0.0,0.0,0.0,0.0,0.0,0.0,0.0,0.0,0.3789,0.3528,0.2666,0.3621,0.4025,0.3434,0.4412,0.4694,0.3991,0.4291,0.4051,0.3151,0.3049,0.283,0.2488,0.3107,0.3714,0.428,0.4539,0.5094,0.5831,0.5843,0.6028,0.6307,0.5734,0.0,0.0,0.0,0.0,0.0,0.0,0.0,0.0,0.0,0.0,0.0,0.0,0.0,0.0,0.0,0.0,0.0,0.0,0.0,0.0,0.0,0.0,0.0,0.0,0.0,0.0,0.0,0.0,0.0,0.0,0.0,0.0,0.0,0.0,0.0,0.0,0.0,0.0,0.0,0.8509,0.9182,1.0059,0.987,0.9698,0.0,0.0,0.0,0.0,0.0,0.0,0.0,0.0,0.0,1.3704,1.4675,1.5596,1.6497,1.7631,1.824,1.8305,1.8481,1.8705,1.8933,1.8702,1.8666,1.8777,1.8783,1.8503,1.8075,1.7756,1.7405,1.6954,0.0,0.0,0.0,0.0,1.5605,1.5844,0.0,0.0,0.0,0.0,0.0,0.0,0.0,0.0,0.0,0.0,0.0,0.0,0.3282,0.3215,0.2886,0.2066,0.2861,0.3087,0.232,0.3149,0.3375,0.2681,0.2876,0.2623,0.18,0.1726,0.1669,0.162,0.2555,0.3458,0.4293,0.4386,0.4968,0.5979,0.5929,0.6194,0.6626,0.6157,0.5954,0.5928,0.0,0.0,0.0,0.0,0.0,0.0,0.0,0.0,0.0,0.0,0.0,0.0,0.0,0.0,0.0,0.0,0.0,0.0,0.0,0.0,0.0,0.0,0.0,0.0,0.0,0.0,0.0,0.0,0.0,0.0,0.0,0.0,0.0,0.0,0.0,0.0,0.0,0.8796,0.9511,1.0272,1.0261,1.0152,0.0,0.0,0.0,0.0,0.0,0.0,1.1938,1.2817,1.3568,1.41,1.5143,1.6103,1.6938,1.7727,1.8199,1.8367,1.8069,1.8032,1.8252,1.7983,1.7847,1.7798,1.797,1.8203,1.8444,1.8503,1.8293,1.7832,1.7132,1.6522,1.6159,1.6826,1.7064,1.7189,0.0,0.0,0.0,0.0,0.0,0.0,0.0,0.0,0.0,0.0,0.0,0.3261,0.2287,0.2509,0.2381,0.1516,0.1496,0.1401,0.1103,0.097,0.0573,-0.0161,0.0299,0.0263,-0.0421,0.0421,0.1051,0.1405,0.2348,0.3132,0.3741,0.3484,0.4182,0.5609,0.5493,0.5945,0.678,0.6485,0.6258,0.6031,0.5448,0.0,0.0,0.0,0.0,0.0,0.0,0.0,0.0,0.0,0.0,0.0,0.0,0.0,0.0,0.0,0.0,0.0,0.0,0.0,0.0,0.0,0.0,0.0,0.0,0.0,0.0,0.0,0.0,0.0,0.0,0.0,0.0,0.0,0.0,0.0,0.0,0.0,0.0,0.9773,1.0791,0.0,0.0,0.0,0.0,1.0805,1.1218,1.1917,1.3057,1.3472,1.3922,1.4464,1.5277,1.5875,1.6243,1.7542,1.8346,1.8597,1.9063,1.9386,1.9504,1.962,1.9453,1.9101,1.9245,1.8998,1.8493,1.8433,1.866,1.8981,1.8681,1.8503,1.8412,1.8198,1.8031,1.7942,0.0,0.0,0.0,0.0,0.0,0.424,0.4035,0.4305,0.42,0.33,0.3393,0.3076,0.1847,0.1763,0.1645,0.1235,0.1281,0.1105,0.0588,0.0437,0.0014,-0.082,-0.0755,-0.07,-0.0727,-0.0055,0.0608,0.1267,0.2036,0.2585,0.2947,0.3305,0.4004,0.4907,0.5212,0.5859,0.6745,0.6781,0.6651,0.6359,0.5675,0.5114,0.0,0.0,0.0,0.0,0.0,0.0,0.0,0.0,0.0,0.0,0.0,0.0,0.0,0.0,0.0,0.0,0.0,0.0,0.0,0.0,0.0,0.0,0.0,0.0,0.0,0.0,0.0,0.0,0.0,0.0,0.0,0.0,0.0,0.0,0.0,0.0,0.0,1.0693,1.0789,0.0,1.0928,1.103,1.1343,1.1939,1.2544,1.2931,1.3065,1.3173,1.332,1.3458,1.4419,1.5122,1.5551,1.6719,1.7513,1.7939,1.7765,1.7852,1.8225,1.802,1.7903,1.7865,1.8031,1.8265,1.8494,1.8464,1.8445,1.8362,1.8086,1.7973,1.7925,1.7605,1.7715,1.803,0.0,0.0,0.0,0.0,0.3917,0.4022,0.3796,0.4299,0.4187,0.2786,0.3045,0.2793,0.1297,0.1197,0.1168,0.0974,0.1047,0.0877,0.0338,0.0049,-0.0369,-0.0971,-0.0956,-0.0763,-0.0402,-0.0042,0.0407,0.0929,0.1409,0.2028,0.2703,0.2902,0.3707,0.5011,0.5214,0.5873,0.6841,0.712,0.7065,0.6718,0.6158,0.5619,0.5099,0.0,0.0,0.0,0.0,0.0,0.0,0.0,0.0,0.0,0.0,0.0,0.0,0.0,0.0,0.0,0.0,0.0,0.0,0.0,0.0,0.0,0.0,0.0,0.0,0.0,0.0,0.0,0.0,0.0,0.0,0.0,0.0,0.0,0.0,0.0,0.9812,1.0665,1.068,1.0731,1.0995,1.1251,1.1547,1.1952,1.2506,1.2651,1.2341,1.2586,1.2747,1.2693,1.38,1.459,1.4997,1.6049,1.6779,1.7215,1.6893,1.6913,1.7276,1.7016,1.688,1.6806,1.7109,1.741,1.7688,1.7872,1.7859,1.7736,1.7914,1.7929,1.7784,1.7543,1.7748,1.805,0.0,0.0,0.0,0.3633,0.3792,0.3807,0.3573,0.4218,0.4073,0.2267,0.2665,0.2423,0.0593,0.0776,0.0947,0.0707,0.0665,0.0549,0.0292,-0.0338,-0.0725,-0.0805,-0.0416,-0.0019,0.0359,0.0391,0.0397,0.0399,0.056,0.146,0.3035,0.2207,0.3287,0.5918,0.546,0.5946,0.7122,0.7542,0.7486,0.7109,0.6895,0.6568,0.6127,0.0,0.0,0.0,0.0,0.0,0.0,0.0,0.0,0.0,0.0,0.0,0.0,0.0,0.0,0.0,0.0,0.0,0.0,0.0,0.0,0.0,0.0,0.0,0.0,0.0,0.0,0.0,0.0,0.0,0.0,0.0,0.0,0.0,0.8296,0.9461,1.0077,0.9596,1.0558,1.1051,1.0558,1.0666,1.081,1.0833,1.0924,1.1032,1.1016,1.184,1.2285,1.2285,1.3517,1.4304,1.454,1.5528,1.6167,1.6435,1.6652,1.6747,1.6756,1.6883,1.6694,1.6214,1.6692,1.6595,1.6153,1.6675,1.6959,1.7179,1.8312,1.8516,1.8171,1.8202,1.813,1.8048,0.0,0.0,0.2869,0.3332,0.3437,0.3671,0.427,0.4885,0.4624,0.2821,0.3093,0.2601,0.0349,-0.0075,-0.0099,0.0167,-0.0121,-0.029,-0.0205,-0.0514,-0.0769,-0.0939,-0.0554,-0.0292,-0.0184,0.0,0.0209,0.0399,0.1118,0.158,0.1792,0.2237,0.3206,0.456,0.4608,0.5565,0.7133,0.7647,0.7925,0.7986,0.7396,0.6886,0.6458,0.0,0.0,0.0,0.0,0.0,0.0,0.0,0.0,0.0,0.0,0.0,0.0,0.0,0.0,0.0,0.0,0.0,0.0,0.0,0.0,0.0,0.0,0.0,0.0,0.0,0.0,0.0,0.0,0.0,0.0,0.0,0.0,0.8718,0.9252,0.9542,0.9802,1.0037,1.0282,1.0515,1.0697,1.0688,1.0872,1.1416,1.1404,1.145,1.1636,1.1885,1.2011,1.2011,1.2858,1.3374,1.3428,1.4223,1.4796,1.5109,1.5178,1.542,1.5841,1.591,1.5978,1.6142,1.6269,1.6294,1.6269,1.6397,1.6387,1.6382,1.7391,1.7791,1.7781,1.7925,1.7709,1.7295,0.0,0.2767,0.2649,0.2842,0.3109,0.3529,0.4217,0.4567,0.423,0.2819,0.2754,0.2119,0.0207,-0.0369,-0.0447,-0.0041,-0.0372,-0.0508,-0.0256,-0.0395,-0.051,-0.0576,-0.0359,-0.0169,-0.0075,0.0026,0.0163,0.0326,0.0915,0.1344,0.1597,0.1959,0.282,0.4091,0.414,0.5128,0.6831,0.7283,0.7824,0.835,0.794,0.7586,0.7316,0.6956,0.661,0.6345,0.6366,0.6226,0.6039,0.6092,0.0,0.0,0.0,0.0,0.0,0.0,0.0,0.0,0.0,0.0,0.0,0.0,0.0,0.0,0.0,0.0,0.0,0.0,0.0,0.0,0.0,0.0,0.0,0.0,0.8366,0.8975,0.9651,0.9615,0.9723,1.0144,1.0148,1.029,1.0802,1.0725,1.0892,1.1535,1.1436,1.1411,1.1546,1.1854,1.1992,1.1888,1.2579,1.2956,1.2956,1.3461,1.3811,1.4029,1.4101,1.4317,1.4677,1.4756,1.4935,0.0,1.5453,1.5657,1.571,1.571,1.5702,0.0,0.0,0.0,0.0,0.0,1.6914,1.69,0.0,0.2676,0.2578,0.2394,0.2789,0.3271,0.3669,0.3644,0.3286,0.2437,0.2026,0.1346,0.0132,-0.0353,-0.0427,-0.0019,-0.0355,-0.0437,-0.0055,-0.011,-0.0098,0.0044,0.0047,0.0174,0.0452,0.0275,0.0196,0.0224,0.0393,0.0952,0.1903,0.1514,0.2348,0.4095,0.384,0.4687,0.6335,0.6718,0.7423,0.8289,0.8368,0.8391,0.8342,0.7822,0.7594,0.7533,0.7386,0.6929,0.6429,0.6555,0.0,0.0,0.0,0.0,0.0,0.0,0.0,0.0,0.0,0.0,0.0,0.0,0.0,0.0,0.0,0.0,0.0,0.0,0.0,0.0,0.0,0.0,0.0,0.0,0.8495,0.8997,0.9676,0.9652,0.9718,1.0042,1.0133,1.0321,1.0797,1.0751,1.0894,1.1347,1.1229,1.1145,1.1177,0.0,0.0,0.0,0.0,1.2863,1.2863,1.3083,1.3156,1.3156,1.3346,1.3455,1.3455,1.3645,1.3754,1.379,1.4446,1.476,1.476,1.4681,1.4708,1.4871,1.5579,1.5746,1.5597,1.5332,1.5834,1.6481,0.0,0.2552,0.232,0.2639,0.2408,0.2432,0.3203,0.3077,0.2661,0.2005,0.1849,0.1346,0.0132,-0.0687,-0.0821,0.0,-0.0676,-0.0872,-0.02,-0.0039,0.0126,0.0312,0.0322,0.0472,0.0798,0.0413,0.0252,0.0364,0.0757,0.1065,0.1289,0.1572,0.2324,0.3483,0.3425,0.4281,0.5805,0.6399,0.6993,0.7557,0.8156,0.8391,0.8389,0.8328,0.8115,0.7852,0.8024,0.7898,0.7682,0.7863,0.7308,0.6527,0.6465,0.5941,0.0,0.0,0.0,0.0,0.0,0.0,0.0,0.0,0.0,0.0,0.0,0.0,0.0,0.0,0.0,0.0,0.0,0.0,0.0,0.8229,0.8824,0.9306,0.9468,0.9507,0.963,0.9989,1.0193,1.0372,1.048,1.0664,1.0946,1.1298,1.1281,1.1348,1.1571,1.1855,1.2035,1.1998,1.2418,1.2673,1.2673,1.2856,1.2973,1.2973,0.0,0.0,1.3273,1.3309,1.3382,1.3572,1.371,1.3848,1.3964,1.331,1.2792,1.2535,1.4212,1.4996,1.5147,1.4506,1.4585,1.4958,0.281,0.2507,0.2328,0.2439,0.2148,0.2142,0.2838,0.2328,0.184,0.1801,0.1274,0.0616,-0.0116,-0.0744,-0.0867,-0.0306,-0.0525,-0.0477,0.0073,0.0327,0.0514,0.0688,0.0666,0.0725,0.0902,0.05,0.0393,0.0561,0.0926,0.1122,0.1206,0.16,0.2242,0.2991,0.2991,0.3849,0.5258,0.5609,0.634,0.7343,0.7691,0.8075,0.8404,0.8449,0.8331,0.8188,0.8375,0.8275,0.8081,0.8282,0.7858,0.7216,0.6976,0.6584,0.6048,0.0,0.0,0.0,0.0,0.0,0.0,0.0,0.0,0.0,0.0,0.0,0.0,0.0,0.0,0.7536,0.0,0.0,0.8421,0.8667,0.9021,0.9285,0.9425,0.933,0.9429,0.9886,1.0087,1.0273,1.0504,1.0686,1.0914,1.1332,1.1357,1.1414,1.1552,1.1744,1.1781,1.1706,1.2077,1.2305,1.2305,1.2489,1.2599,1.2599,1.2599,1.2755,1.3019,1.3056,1.2982,1.2808,1.2999,1.2878,1.2528,1.2056,1.1445,1.0918,1.1978,1.3073,1.4004,1.3259,1.3404,1.3918,0.2642,0.2528,0.2403,0.2095,0.1894,0.1912,0.2289,0.1513,0.1021,0.1405,0.0603,-0.0101,-0.0365,-0.0698,-0.0825,-0.0657,-0.028,0.0085,0.0417,0.0669,0.0885,0.1081,0.1,0.0981,0.1037,0.0701,0.0617,0.0814,0.1066,0.1262,0.1375,0.1712,0.216,0.2691,0.2802,0.3549,0.4732,0.5007,0.5873,0.7095,0.7316,0.7777,0.8295,0.8295,0.8321,0.8362,0.8462,0.8287,0.8086,0.8204,0.7979,0.7596,0.7196,0.7038,0.6785,0.5738,0.5573,0.0,0.0,0.0,0.0,0.0,0.0,0.0,0.0,0.0,0.744,0.8211,0.818,0.8176,0.8678,0.8589,0.8608,0.9029,0.9123,0.921,0.9429,0.9162,0.915,0.9708,0.9777,0.9936,1.0385,1.0484,1.0736,1.1205,1.1223,1.126,1.1335,1.1521,1.1558,1.1409,1.1744,1.1961,1.2019,1.2168,1.2307,1.2322,1.2322,1.253,1.2832,1.2948,1.2635,1.2043,1.2236,1.1792,1.0951,1.0951,1.0487,0.978,1.0016,1.1124,1.2462,1.1961,1.2328,1.3018,0.0,0.2621,0.2359,0.1913,0.1571,0.1303,0.1132,0.0744,0.0401,0.0223,0.0084,-0.0101,-0.0367,-0.0699,-0.0867,-0.0783,-0.0254,0.0212,0.0561,0.0773,0.1025,0.1333,0.1185,0.1229,0.1515,0.1206,0.1094,0.1234,0.1431,0.1543,0.1572,0.1962,0.2354,0.2719,0.3135,0.3608,0.4187,0.5382,0.6036,0.6399,0.7434,0.7875,0.7955,0.7955,0.8062,0.8217,0.8095,0.8005,0.791,0.7748,0.7606,0.7479,0.733,0.7154,0.6906,0.6409,0.0,0.5836,0.5614,0.5826,0.6132,0.6278,0.6588,0.7106,0.0,0.0,0.8214,0.88,0.8884,0.8835,0.8718,0.886,0.9029,0.9089,0.9215,0.9297,0.9326,0.9019,0.8938,0.924,0.9267,0.9289,0.9379,0.9741,1.0153,1.0588,1.0594,1.0775,1.1111,1.1335,1.1409,1.1409,1.1632,1.1834,1.2101,1.2101,1.2221,1.2463,1.2463,1.2601,1.2877,1.2883,1.2533,1.1788,1.1204,1.0474,0.9756,1.0272,0.9979,0.9325,0.9695,1.0125,1.0572,1.0831,1.1329,1.1929,0.0,0.2729,0.2577,0.2256,0.1707,0.1263,0.1152,0.0847,0.0536,0.0269,0.0232,0.0071,-0.0355,-0.0704,-0.0827,-0.0641,-0.0142,0.0335,0.0745,0.107,0.1326,0.151,0.1405,0.1429,0.16,0.1347,0.1234,0.1291,0.1487,0.1684,0.1849,0.2073,0.2464,0.2965,0.3574,0.4101,0.4598,0.5574,0.6281,0.6756,0.7246,0.7628,0.7883,0.778,0.7771,0.7856,0.7879,0.7778,0.0,0.7604,0.753,0.7418,0.7325,0.7028,0.6653,0.6419,0.6308,0.0,0.6802,0.702,0.7169,0.0,0.7722,0.8069,0.8352,0.8543,0.8692,0.8812,0.8949,0.9023,0.8963,0.9155,0.9295,0.0,0.9268,0.9288,0.9182,0.8801,0.8544,0.8677,0.8521,0.8658,0.9383,0.9625,0.984,1.0132,1.0143,1.0279,1.0565,1.0921,1.1145,1.1259,1.1737,1.2033,1.2151,1.2269,1.2411,1.2479,1.2479,1.2648,1.2975,1.2975,1.2275,1.1031,0.9794,0.9036,0.879,0.9295,0.9274,0.8877,0.9169,0.9426,0.9669,1.0243,1.0874,1.1403,0.0,0.2805,0.274,0.2538,0.2015,0.1596,0.1505,0.1225,0.0892,0.056,0.0449,0.0191,-0.0337,-0.0637,-0.0692,-0.0435,-0.0041,0.0385,0.085,0.1217,0.1456,0.1537,0.1552,0.1565,0.1633,0.1509,0.1431,0.1431,0.1656,0.1878,0.2071,0.2322,0.2715,0.3213,0.3849,0.4457,0.5003,0.5737,0.6448,0.7112,0.7273,0.7528,0.779,0.7648,0.7381,0.714,0.7352,0.7294,0.7136,0.706,0.7026,0.6978,0.6969,0.6725,0.6444,0.6456,0.6624,0.6927,0.7481,0.7815,0.0,0.8111,0.8477,0.8808,0.8626,0.8855,0.9104,0.9005,0.9144,0.9277,0.9215,0.9378,0.9438,0.9332,0.9259,0.9211,0.9053,0.8573,0.823,0.823,0.7923,0.8088,0.9088,0.9228,0.9401,0.9712,0.9791,0.9935,1.0172,1.0718,1.1039,1.1186,1.18,1.2157,1.223,1.2351,1.2469,1.2544,1.2544,1.2732,1.3016,1.2802,1.1928,1.0506,0.9113,0.8328,0.8157,0.8556,0.8609,0.8529,0.8743,0.8954,0.916,0.9663,1.029,1.0928,0.0,0.0,0.274,0.2538,0.2484,0.2355,0.2026,0.1752,0.1389,0.0859,0.056,0.0191,-0.0337,-0.047,-0.0435,-0.0225,0.0039,0.0375,0.0784,0.1065,0.127,0.1391,0.1585,0.1707,0.1708,0.1767,0.1797,0.1797,0.2045,0.2183,0.2212,0.2796,0.3188,0.3413,0.383,0.4401,0.5132,0.5878,0.6534,0.7139,0.7655,0.7772,0.7607,0.7595,0.6872,0.5912,0.629,0.6477,0.6443,0.586,0.5795,0.5971,0.6101,0.6215,0.0,0.6765,0.7211,0.7504,0.7279,0.0,0.8456,0.8015,0.8453,0.9059,0.932,0.9382,0.9469,0.9717,0.9786,0.9728,0.9536,0.951,0.9438,0.9332,0.9187,0.9059,0.8932,0.8449,0.8106,0.8106,0.775,0.7664,0.0,0.8314,0.8676,0.9268,0.9519,0.9792,1.0183,1.0846,1.1186,1.1192,1.168,1.2041,1.23,1.23,1.2427,1.2681,1.2681,1.2857,1.3082,1.2345,1.1494,1.0549,0.9584,0.8675,0.794,0.8157,0.8241,0.8237,0.8512,0.8727,0.8894,0.8938,0.947,1.0227,0.0,0.0,0.0,0.2977,0.2966,0.2923,0.2816,0.2346,0.1865,0.1513,0.0925,0.0,0.0,0.0,0.0,0.0,0.0468,0.0754,0.0795,0.1386,0.1711,0.1673,0.1912,0.2052,0.2104,0.2209,0.2277,0.2277,0.2439,0.2633,0.2796,0.3132,0.3438,0.3688,0.4398,0.4862,0.5164,0.6312,0.6918,0.7122,0.7541,0.7654,0.7551,0.6969,0.6521,0.6145,0.0,0.5517,0.5507,0.5581,0.5639,0.5757,0.6017,0.5973,0.5967,0.6636,0.7078,0.7456,0.7979,0.0,0.8639,0.886,0.9152,0.9412,0.9443,0.9561,0.9599,0.9382,0.9327,0.9216,0.8792,0.8996,0.9072,0.8521,0.8811,0.8963,0.8624,0.8408,0.8292,0.8292,0.8077,0.0,0.0,0.0,0.0,0.887,0.9097,0.9315,0.9571,1.0525,1.1142,1.1253,1.2021,1.2481,1.2572,1.2572,1.2614,1.2705,1.2705,1.2747,1.279,1.1929,1.1015,1.0101,0.9323,0.8504,0.7635,0.7896,0.7984,0.8028,0.8248,0.838,0.8468,0.8652,0.8961,0.9388,0.0,0.0,0.0,0.0,0.0,0.0,0.0,0.0,0.0,0.0,0.0,0.0,0.0,0.0,0.0,0.0,0.0,0.0982,0.0844,0.1447,0.1758,0.1627,0.1864,0.2006,0.2058,0.2092,0.2172,0.2279,0.2463,0.2719,0.3072,0.3289,0.353,0.3821,0.4559,0.493,0.5115,0.63,0.6852,0.6914,0.7196,0.7255,0.7092,0.6447,0.602,0.0,0.5295,0.4947,0.4777,0.5175,0.5377,0.5517,0.594,0.6184,0.641,0.6939,0.7321,0.7715,0.834,0.8628,0.8855,0.9211,0.9432,0.9556,0.9506,0.9533,0.9468,0.9168,0.9023,0.8812,0.8374,0.8663,0.874,0.8098,0.8555,0.884,0.8468,0.8401,0.8401,0.8401,0.8212,0.8165,0.0,0.0,0.0,0.8675,0.8968,0.9145,0.9277,1.0304,1.1006,1.1278,1.2057,1.2534,1.2705,1.2705,1.2705,1.2705,1.2705,1.2528,1.2186,1.1585,1.0582,0.9362,0.8934,0.8237,0.737,0.7635,0.7768,0.7768,0.7984,0.8116,0.8116,0.83,0.8472,0.8715,0.0,0.0,0.0,0.0,0.0,0.0,0.0,0.0,0.0,0.0,0.0,0.0,0.0,0.0,0.0,0.0,0.0,0.0,0.0918,0.1284,0.1449,0.1323,0.1512,0.1627,0.1627,0.1505,0.1617,0.1918,0.2203,0.2558,0.2998,0.3277,0.3525,0.3794,0.4242,0.4587,0.4902,0.5819,0.6283,0.644,0.6643,0.6595,0.634,0.6054,0.5405,0.4679,0.5039,0.4762,0.4296,0.4707,0.5009,0.0,0.0,0.0,0.7551,0.7607,0.7925,0.8279,0.8321,0.8722,0.9101,0.9113,0.9318,0.9478,0.9498,0.9287,0.9083,0.9047,0.8842,0.8568,0.0,0.0,0.8508,0.802,0.8376,0.8634,0.8435,0.8406,0.842,0.0,0.0,0.0,0.0,0.0,0.0,0.8718,0.0,0.9286,0.9296,1.0149,1.0809,1.1278,1.1757,1.2229,1.2705,1.2705,1.2705,1.2705,1.2705,1.2229,1.1284,1.1284,1.0284,0.85,0.85,0.7973,0.7139,0.737,0.7462,0.7503,0.7768,0.79,0.7896,0.79,0.8028,0.8245,0.0,0.0,0.0,0.0,0.0,0.0,0.0,0.0,0.0,0.0,0.0,0.0,0.0,0.0,0.0,0.0,0.0,0.0,0.1065,0.1471,0.1693,0.16,0.1831,0.1966,0.1966,0.2088,0.2186,0.2277,0.2598,0.2814,0.2934,0.3161,0.3295,0.3364,0.369,0.3872,0.3964,0.4601,0.5072,0.5398,0.5652,0.5894,0.6048,0.5517,0.5208,0.5028,0.4888,0.4755,0.4721,0.0,0.0,0.0,0.0,0.6614,0.6797,0.0,0.0,0.8129,0.874,0.8999,0.9149,0.936,0.9462,0.9462,0.9251,0.9149,0.8933,0.8321,0.8147,0.7838,0.0,0.0,0.0,0.7409,0.8101,0.0,0.8553,0.8582,0.0,0.8845,0.0,0.8864,0.9067,0.9091,0.0,0.0,0.9225,0.9352,0.9512,1.0228,1.0809,1.1278,1.1757,1.2229,1.2705,1.2705,1.2705,1.2705,1.2705,1.2229,1.1284,1.1284,1.0284,0.85,0.85,0.7973,0.7095,0.7187,0.7187,0.7231,0.7503,0.7591,0.7639,0.7812,0.794,0.7984,0.0,0.0,0.0,0.0,0.0,0.0,0.0,0.0,0.0,0.0,0.0,0.0,0.0,0.0,0.0,0.0,0.0,0.0,0.0,0.153,0.1672,0.1566,0.1745,0.1833,0.1833,0.2043,0.2163,0.222,0.2567,0.2854,0.3114,0.3073,0.3187,0.3392,0.3587,0.3566,0.3441,0.4301,0.4667,0.0,0.0,0.5437,0.5595,0.5148,0.4991,0.4999,0.4807,0.5072,0.0,0.0,0.0,0.6225,0.7037,0.7077,0.7012,0.798,0.0,0.8536,0.8975,0.9185,0.9318,0.9474,0.942,0.9263,0.8987,0.8752,0.8427,0.7888,0.7683,0.0,0.6539,0.0,0.0,0.0,0.0,0.0,0.8604,0.8813,0.8976,0.0,0.8985,0.0,0.9263,0.9282,0.9324,0.0,0.9423,0.9475,0.9597,1.0053,1.0554,1.0982,1.1456,1.2015,1.2705,1.2705,1.2705,1.2705,1.2705,1.2229,1.1278,1.0885,0.9889,0.85,0.0,0.758,0.7095,0.7095,0.7095,0.7095,0.7279,0.7323,0.7323,0.7499,0.7632,0.7724,0.0,0.0,0.0,0.0,0.0,0.0,0.0,0.0,0.0,0.0,0.0,0.0,0.0,0.0,0.0,0.0,0.0,0.0,0.0,0.0,0.1541,0.1405,0.1453,0.1481,0.1506,0.1706,0.1868,0.2022,0.238,0.2827,0.3321,0.3092,0.3217,0.3625,0.3742,0.3573,0.3286,0.436,0.4615,0.4331,0.4852,0.5101,0.5128,0.0,0.0,0.0,0.4796,0.0,0.0,0.0,0.659,0.658,0.7594,0.7714,0.7648,0.8451,0.889,0.9107,0.9143,0.933,0.9516,0.9516,0.9306,0.9017,0.8722,0.8253,0.7778,0.751,0.0,0.6937,0.64,0.6943,0.7407,0.7188,0.0,0.8756,0.8688,0.9008,0.9191,0.9074,0.9023,0.9112,0.9384,0.9408,0.9488,0.963,0.9644,0.9644,0.9644,0.9856,1.0207,1.0679,1.1198,1.1886,1.2705,1.2705,1.2705,1.2705,1.2705,1.2229,1.1284,1.0448,0.9492,0.8456,0.7621,0.0,0.7095,0.7095,0.7095,0.7095,0.7095,0.7095,0.7095,0.7095,0.7234,0.7459,0.0,0.0,0.0,0.0,0.0,0.0,0.0,0.0,0.0,0.0,0.3029,0.2648,0.0,0.0,0.0,0.0,0.0,0.0,0.0,0.0,0.0,0.1408,0.1358,0.141,0.1583,0.1729,0.1889,0.0,0.0,0.2885,0.2998,0.3331,0.3549,0.3689,0.371,0.3727,0.3765,0.3877,0.4045,0.4228,0.4334,0.4574,0.4857,0.4808,0.0,0.0,0.0,0.0,0.0,0.6313,0.6688,0.7078,0.7706,0.7714,0.7648,0.8451,0.889,0.9149,0.9378,0.948,0.9516,0.9516,0.9306,0.8975,0.8493,0.7997,0.0,0.0,0.658,0.6369,0.5838,0.6344,0.7014,0.7456,0.0,0.0,0.0,0.0,0.9025,0.0,0.0,0.0,0.0,0.0,0.0,0.0,0.0,0.9942,0.9942,0.9975,1.0381,1.1149,1.2015,1.2534,1.2705,1.2705,1.2705,1.2705,1.2705,1.2229,1.1278,1.1149,1.0106,0.85,0.8324,0.0,0.7095,0.7095,0.7095,0.7095,0.7095,0.7095,0.7095,0.7095,0.7139,0.7187,0.0,0.0,0.0,0.0,0.0,0.0,0.0,0.3658,0.3714,0.4066,0.4041,0.3801,0.3272,0.3006,0.0,0.0,0.0,0.0,0.0,0.0,0.0,0.0,0.1714,0.1766,0.1859,0.0,0.0,0.0,0.0,0.0,0.0,0.0,0.0,0.0,0.0,0.0,0.0,0.3946,0.4097,0.0,0.0,0.0,0.0,0.0,0.0,0.0,0.0,0.0,0.0,0.0,0.6747,0.7445,0.7961,0.7822,0.7676,0.864,0.8999,0.9155,0.9438,0.9516,0.9516,0.9516,0.9203,0.8758,0.8207,0.0,0.0,0.0,0.6082,0.5911,0.5645,0.0,0.0,0.0,0.0,0.0,0.0,0.0,0.0,0.0,0.0,0.0,0.0,0.0,0.0,0.0,0.0,0.9994,0.9994,0.9994,1.0294,1.0939,1.1628,1.21,1.2314,1.2571,1.2705,1.2705,1.2705,1.2448,1.2015,1.1542,1.0804,0.9932,0.9453,0.0,0.7841,0.7841,0.7536,0.7095,0.7095,0.7095,0.7095,0.7095,0.7095,0.7095,0.0,0.0,0.0,0.0,0.0,0.0,0.0,0.4277,0.4472,0.4771,0.4977,0.4836,0.4143,0.3628,0.3202,0.0,0.0,0.0,0.0,0.0,0.0,0.0,0.0,0.0,0.0,0.0,0.0,0.0,0.0,0.0,0.0,0.0,0.0,0.0,0.0,0.0,0.0,0.0,0.0,0.0,0.0,0.0,0.0,0.0,0.0,0.0,0.0,0.0,0.0,0.0,0.6628,0.7383,0.79,0.7899,0.7847,0.8687,0.9011,0.9143,0.9366,0.9468,0.9516,0.9516,0.9107,0.8572,0.8021,0.7291,0.0,0.0,0.5693,0.5534,0.5597,0.0,0.6113,0.0,0.0,0.0,0.0,0.0,0.0,0.0,0.0,0.0,0.0,0.0,0.0,0.0,0.0,0.0,0.9994,1.0081,1.025,1.0593,1.1149,1.1628,1.2015,1.2491,1.2705,1.2705,1.2705,1.2705,1.2662,1.1929,1.1499,1.1278,1.0534,0.0,0.0,0.85,0.7929,0.7095,0.7095,0.7095,0.7095,0.7095,0.7095,0.7095,0.0,0.0,0.0,0.0,0.0,0.0,0.0,0.4633,0.4945,0.5987,0.5526,0.5137,0.5226,0.4558,0.3887,0.0,0.0,0.0,0.0,0.0,0.0,0.0,0.0,0.0,0.0,0.0,0.0,0.0,0.0,0.0,0.0,0.0,0.0,0.0,0.0,0.0,0.0,0.0,0.0,0.0,0.0,0.0,0.0,0.0,0.0,0.0,0.0,0.0,0.0,0.0,0.0,0.6366,0.7066,0.7736,0.8241,0.8345,0.0,0.0,0.9131,0.9324,0.9516,0.9516,0.9107,0.8572,0.8021,0.0,0.0,0.5748,0.5426,0.5305,0.5547,0.5627,0.5951,0.6923,0.0,0.7105,0.0,0.0,0.0,0.0,0.0,0.0,0.0,0.0,0.0,0.0,0.0,0.0,0.9994,1.0337,1.0549,1.0593,1.1451,1.1972,1.2015,1.2491,1.2705,1.2705,1.2705,1.2705,1.2705,1.2619,1.21,1.1284,1.1192,0.0,0.0,0.85,0.7929,0.7095,0.7095,0.7095,0.7095,0.7095,0.7095,0.7095,0.0,0.0,0.0,0.0,0.0,0.0,0.4704,0.4969,0.5409,0.6142,0.6026,0.5866,0.5834,0.5206,0.444,0.3547,0.0,0.0,0.0,0.0,0.0,0.0,0.0,0.0,0.0,0.0,0.0,0.0,0.0,0.0,0.0,0.0,0.0,0.0,0.0,0.0,0.0,0.0,0.0,0.0,0.0,0.0,0.0,0.0,0.0,0.0,0.0,0.0,0.0,0.0,0.0,0.0,0.6253,0.6793,0.0,0.0,0.8423,0.8896,0.9053,0.9306,0.9474,0.9306,0.8981,0.853,0.7864,0.0,0.6258,0.5711,0.5389,0.5286,0.5547,0.5604,0.5874,0.6717,0.6665,0.6855,0.7795,0.0,0.0,0.0,0.0,0.0,0.0,0.0,0.0,0.0,0.0,0.0,0.9994,1.0164,1.025,1.025,1.0852,1.1278,1.1585,1.2057,1.24,1.2705,1.2705,1.2705,1.2705,1.2705,1.2491,1.2143,1.2143,0.0,0.0,1.0193,0.9628,0.875,0.8145,0.7929,0.7885,0.7316,0.7095,0.7095,0.0,0.0,0.0,0.0,0.0,0.4665,0.4893,0.5314,0.5743,0.6149,0.6216,0.6153,0.5965,0.5417,0.4718,0.3868,0.3639,0.0,0.0,0.0,0.0,0.0,0.0,0.0,0.0,0.0,0.0,0.0,0.0,0.0,0.0,0.0,0.0,0.0,0.0,0.0,0.0,0.0,0.0,0.0,0.0,0.0,0.0,0.0,0.0,0.0,0.0,0.0,0.0,0.0,0.0,0.0,0.0,0.0,0.0,0.0,0.806,0.8536,0.8794,0.9065,0.9227,0.9029,0.8782,0.8403,0.0,0.6981,0.6283,0.5809,0.5444,0.531,0.5651,0.5648,0.5827,0.6486,0.6488,0.6654,0.7426,0.7386,0.0,0.0,0.0,0.0,0.0,0.0,0.0,0.0,0.0,0.0,0.0,0.9994,0.9994,0.9994,1.0506,1.0982,1.1284,1.1886,1.2357,1.2705,1.2705,1.2705,1.2705,1.2705,1.2705,1.2705,1.2705,0.0,0.0,1.1284,1.0755,0.9792,0.8846,0.85,0.8368,0.7448,0.7095,0.7095,0.0,0.0,0.0,0.0,0.0,0.0,0.5417,0.5661,0.5893,0.6165,0.5971,0.5763,0.5626,0.5066,0.4641,0.4495,0.4122,0.0,0.0,0.0,0.0,0.0,0.0,0.0,0.0,0.0,0.0,0.0,0.0,0.0,0.0,0.0,0.0,0.0,0.0,0.0,0.0,0.0,0.0,0.0,0.0,0.0,0.0,0.0,0.0,0.0,0.0,0.0,0.0,0.0,0.0,0.0,0.0,0.0,0.0,0.6969,0.7538,0.7967,0.8225,0.8518,0.8716,0.871,0.8518,0.8181,0.0,0.6981,0.6331,0.6046,0.5566,0.5365,0.5888,0.5785,0.5749,0.6237,0.636,0.6441,0.658,0.7018,0.0,0.0,0.0,0.0,0.0,0.0,0.0,0.0,0.0,0.0,0.0,0.9994,0.9994,0.9994,1.0852,1.1284,1.1284,1.2229,1.2705,1.2705,1.2705,1.2705,1.2705,1.2705,1.2705,0.0,0.0,0.0,0.0,1.1284,1.0755,0.9792,0.8846,0.85,0.8368,0.7448,0.7095,0.7095,0.0,0.0,0.0,0.0,0.0,0.0,0.0,0.52,0.5539,0.5936,0.5724,0.563,0.5907,0.5276,0.4803,0.4718,0.4216,0.0,0.0,0.0,0.0,0.0,0.0,0.0,0.0,0.0,0.4286,0.4583,0.5122,0.0,0.0,0.0,0.0,0.0,0.0,0.0,0.0,0.0,0.0,0.0,0.0,0.0,0.0,0.0,0.0,0.0,0.0,0.0,0.0,0.0,0.0,0.0,0.0,0.0,0.0,0.5979,0.6855,0.0,0.78,0.8124,0.8349,0.8042,0.7885,0.7685,0.7176,0.672,0.6331,0.6052,0.5857,0.5796,0.5961,0.6087,0.6377,0.708,0.7016,0.7021,0.0,0.0,0.0,0.0,0.0,0.0,0.0,0.0,0.0,0.0,0.0,0.0,0.0,0.9994,0.9994,0.9994,1.0255,1.0684,1.1278,1.1585,1.2057,1.2705,1.2705,1.2705,1.2705,1.2705,1.2705,0.0,0.0,0.0,0.0,1.2272,1.2095,1.166,1.0053,0.9449,0.9274,0.7665,0.7095,0.7095,0.0,0.0,0.0,0.0,0.0,0.0,0.0,0.5078,0.5294,0.5528,0.5358,0.5324,0.5616,0.5086,0.4716,0.4721,0.427,0.0,0.0,0.0,0.0,0.0,0.0,0.0,0.0,0.4086,0.4568,0.4952,0.5517,0.6013,0.6431,0.6431,0.0,0.0,0.0,0.0,0.0,0.0,0.0,0.0,0.0,0.0,0.0,0.0,0.0,0.0,0.0,0.0,0.0,0.0,0.0,0.0,0.0,0.0,0.0,0.0,0.6112,0.6908,0.0,0.7594,0.7816,0.7528,0.7449,0.7309,0.6781,0.6496,0.6276,0.6018,0.5962,0.5987,0.6092,0.6263,0.6552,0.7072,0.7151,0.0,0.0,0.0,0.0,0.0,0.0,0.0,0.0,0.0,0.0,0.0,0.0,0.0,0.0,1.012,1.0168,0.9994,1.0337,1.0852,1.1542,1.1752,1.21,1.2705,1.2705,1.2705,1.2705,1.2705,1.2705,0.0,0.0,0.0,0.0,1.2705,1.2705,1.2528,1.1009,1.0448,1.0188,0.8317,0.7625,0.758,0.0,0.0,0.0,0.0,0.0,0.0,0.0,0.5243,0.5166,0.5029,0.4961,0.491,0.4899,0.462,0.4461,0.4563,0.0,0.0,0.0,0.0,0.0,0.0,0.0,0.0,0.0,0.4436,0.4906,0.5286,0.5894,0.6439,0.6917,0.6917,0.7107,0.0,0.0,0.0,0.0,0.0,0.0,0.0,0.0,0.0,0.0,0.0,0.0,0.0,0.0,0.0,0.0,0.0,0.0,0.0,0.0,0.0,0.0,0.0,0.0,0.0,0.0,0.6902,0.7109,0.7091,0.7085,0.6957,0.6471,0.6313,0.0,0.5951,0.5913,0.599,0.6251,0.6377,0.6437,0.6498,0.0,0.0,0.0,0.0,0.0,0.0,0.0,0.0,0.0,0.0,0.0,0.0,0.0,0.0,0.0,1.0419,1.0463,1.0164,1.0939,1.1542,1.1929,1.24,1.2662,1.2705,1.2705,1.2705,1.2705,1.2705,1.2705,0.0,0.0,0.0,0.0,1.2705,1.2705,1.2619,1.1671,1.1284,1.1063,0.9283,0.854,0.8368,0.0,0.0,0.0,0.0,0.0,0.0,0.0,0.0,0.0,0.0,0.5098,0.5019,0.4912,0.4736,0.4565,0.0,0.0,0.0,0.0,0.0,0.0,0.0,0.0,0.0,0.0,0.4509,0.5239,0.6044,0.6795,0.7456,0.8036,0.8121,0.7999,0.7687,0.7411,0.0,0.0,0.0,0.0,0.0,0.0,0.0,0.0,0.0,0.0,0.0,0.0,0.0,0.0,0.0,0.0,0.0,0.0,0.0,0.0,0.0,0.5316,0.5565,0.575,0.0,0.6228,0.6027,0.5973,0.5982,0.0,0.5888,0.5788,0.5869,0.5952,0.6065,0.6327,0.6553,0.6891,0.0,0.0,0.0,0.0,0.0,0.0,0.0,0.0,0.0,0.0,0.0,0.0,0.0,0.0,0.0,0.0,1.0722,1.0895,1.1499,1.1714,1.1714,1.1451,1.1929,1.2357,1.2705,1.2705,1.2705,1.2705,1.2705,1.2705,0.0,0.0,0.0,1.2705,1.2705,1.2705,1.2619,1.1671,1.1284,1.1149,1.0014,0.9104,0.8456,0.0,0.0,0.0,0.0,0.0,0.0,0.0,0.0,0.0,0.0,0.0,0.0,0.0,0.0,0.0,0.0,0.0,0.0,0.0,0.0,0.0,0.0,0.0,0.0,0.4072,0.4917,0.5751,0.6578,0.733,0.806,0.8777,0.8777,0.8546,0.8082,0.742,0.0,0.0,0.0,0.0,0.0,0.0,0.0,0.0,0.0,0.0,0.0,0.6265,0.6221,0.0,0.5768,0.5562,0.5444,0.0,0.0,0.0,0.0,0.5125,0.5296,0.5202,0.5664,0.6149,0.6009,0.6064,0.6139,0.6143,0.6026,0.5914,0.59,0.6021,0.6218,0.6497,0.0,0.0,0.0,0.0,0.0,0.0,0.0,0.0,0.0,0.0,0.0,0.0,0.0,0.0,0.0,0.0,0.0,0.0,1.0933,1.1149,1.1671,1.21,1.2186,1.1929,1.2186,1.2443,1.2705,1.2705,1.2705,1.2705,1.2705,1.2705,0.0,0.0,0.0,1.2705,1.2705,1.2705,1.2662,1.2143,1.1929,1.1837,1.0885,1.0231,0.9671,0.0,0.0,0.0,0.0,0.0,0.0,0.0,0.0,0.0,0.0,0.0,0.0,0.0,0.0,0.0,0.0,0.0,0.0,0.0,0.0,0.0,0.0,0.0,0.4297,0.4622,0.5463,0.6297,0.7082,0.7783,0.8518,0.9286,0.9238,0.8963,0.8444,0.7413,0.692,0.0,0.0,0.0,0.0,0.0,0.0,0.0,0.0,0.0,0.0,0.0,0.0,0.0,0.5898,0.5814,0.5703,0.5336,0.0,0.0,0.0,0.0,0.0,0.5001,0.5676,0.6365,0.6237,0.6459,0.6623,0.6419,0.6305,0.6212,0.0,0.0,0.0,0.0,0.6888,0.0,0.0,0.0,0.0,0.0,0.0,0.0,0.0,0.0,0.0,0.0,0.0,0.0,0.0,0.0,0.0,0.0,1.1241,1.1456,1.1499,1.2272,1.2705,1.2705,1.2705,1.2705,1.2705,1.2705,1.2705,1.2705,1.2705,1.2705,1.2705,0.0,0.0,1.2705,1.2705,1.2705,1.2705,1.2705,1.2705,1.2619,1.18,1.1408,1.1063,0.0,0.0,0.0,0.0,0.0,0.0,0.0,0.0,0.0,0.0,0.0,0.0,0.0,0.0,0.0,0.0,0.0,0.0,0.0,0.0,0.0,0.0,0.4433,0.4764,0.5646,0.5824,0.6566,0.7911,0.8697,0.9291,0.9704,1.0045,0.9594,0.848,0.7903,0.7447,0.7136,0.0,0.0,0.0,0.0,0.0,0.0,0.0,0.0,0.0,0.0,0.0,0.0,0.587,0.5858,0.6006,0.5836,0.0,0.0,0.0,0.0,0.0,0.5673,0.6055,0.6231,0.556,0.5754,0.6147,0.6286,0.6182,0.6146,0.0,0.0,0.0,0.0,0.7461,0.0,0.0,0.0,0.0,0.0,0.0,0.0,0.0,0.0,0.0,0.0,0.0,0.0,0.0,0.0,0.0,0.0,1.2057,1.2057,1.2485,1.2619,1.2705,1.2705,1.2705,1.2705,1.2705,1.2705,1.2705,1.2705,1.2705,1.2705,1.2705,0.0,1.2705,1.2705,1.2705,1.2705,1.2705,1.2705,1.2705,1.2662,1.2534,1.1972,1.1149,0.0,0.0,0.0,0.0,0.0,0.0,0.0,0.0,0.0,0.0,0.0,0.0,0.0,0.0,0.0,0.0,0.0,0.0,0.0,0.0,0.0,0.5168,0.5206,0.5462,0.6003,0.6583,0.7548,0.8923,0.9384,0.9876,1.0322,0.9742,0.9179,0.8572,0.7883,0.7473,0.7303,0.0,0.0,0.0,0.0,0.0,0.0,0.0,0.0,0.0,0.0,0.0,0.0,0.0,0.5947,0.5799,0.5968,0.0,0.0,0.0,0.0,0.0,0.5307,0.5744,0.6094,0.5724,0.6252,0.6883,0.6974,0.6818,0.6706,0.0,0.0,0.0,0.0,0.0,0.0,0.0,0.0,0.0,0.0,0.0,0.0,0.0,0.0,0.0,0.0,0.0,0.0,0.0,0.0,0.0,0.0,0.0,1.2229,1.2705,1.2705,1.2705,1.2705,1.2705,1.2705,1.2705,1.2705,1.2705,1.2705,1.2705,1.2705,1.2705,0.0,1.2705,1.2705,1.2705,1.2705,1.2705,1.2705,1.2705,1.2705,1.2705,1.21,1.1235,0.0,0.0,0.0,0.0,0.0,0.0,0.0,0.0,0.0,0.0,0.0,0.0,0.0,0.0,0.0,0.0,0.0,0.0,0.0,0.0,0.5049,0.5643,0.5922,0.6252,0.663,0.7343,0.8318,0.9592,0.983,1.0219,1.0733,0.9535,0.8874,0.8639,0.7869,0.7474,0.7342,0.7249,0.0,0.0,0.0,0.0,0.0,0.0,0.0,0.0,0.0,0.0,0.0,0.0,0.0,0.0,0.0,0.0,0.0,0.5343,0.5226,0.5164,0.5024,0.5517,0.6081,0.6169,0.6805,0.7461,0.7624,0.7486,0.7346,0.7509,0.0,0.0,0.0,0.0,0.0,0.0,0.0,0.0,0.0,0.0,0.0,0.0,0.0,0.0,0.0,0.0,0.0,0.0,0.0,0.0,0.0,0.0,1.2256,1.2705,1.2705,1.2705,1.2705,1.2705,1.2705,1.2705,1.2705,1.2705,1.2705,1.2705,1.2705,1.2705,1.2705,1.2705,1.2705,1.2705,1.2705,1.2705,1.2705,1.2705,1.2705,1.2705,1.2229,1.1628,0.0,0.0,0.0,0.0,0.0,0.0,0.0,0.0,0.0,0.0,0.0,0.0,0.0,0.0,0.0,0.0,0.0,0.0,0.0,0.0,0.5312,0.585,0.6303,0.7071,0.8213,0.7885,0.8318,0.9592,0.9935,1.0279,1.0598,1.0054,0.9385,0.8582,0.8152,0.767,0.7211,0.7211,0.7196,0.0,0.0,0.0,0.0,0.0,0.0,0.0,0.0,0.0,0.0,0.0,0.0,0.0,0.0,0.0,0.6021,0.5804,0.5617,0.5488,0.5534,0.5894,0.6356,0.6667,0.6805,0.7037,0.773,0.7713,0.7751,0.8439,0.0,0.0,0.0,0.0,0.0,0.0,0.0,0.0,0.0,0.0,0.0,0.0,0.0,0.0,0.0,0.0,0.0,0.0,0.0,0.0,0.0,0.0,0.0,1.2699,1.2705,1.2705,1.2705,1.2705,1.2705,1.2705,1.2705,1.2705,1.2705,1.2705,1.2705,1.2705,1.2705,1.2705,1.2705,1.2705,1.2705,1.2705,1.2705,1.2705,1.2705,1.2705,1.2662,1.2619,0.0,0.0,0.0,0.0,0.0,0.0,0.0,0.0,0.0,0.0,0.0,0.0,0.0,0.0,0.0,0.0,0.0,0.0,0.0,0.0,0.5362,0.5935,0.6411,0.6966,0.7644,0.8209,0.9133,1.041,1.0283,1.0244,1.0259,0.9305,0.8677,0.8337,0.7854,0.7506,0.7327,0.7235,0.7059,0.6831,0.0,0.0,0.0,0.0,0.0,0.0,0.0,0.0,0.0,0.0,0.5761,0.6088,0.6433,0.6338,0.6083,0.6014,0.575,0.546,0.5321,0.5786,0.6345,0.6508,0.6811,0.7194,0.7757,0.8096,0.8419,0.8854,0.8951,0.0,0.0,0.0,0.0,0.0,0.0,0.0,0.0,0.0,0.0,0.0,0.0,0.0,0.0,0.0,0.0,0.0,0.0,0.0,0.0,0.0,0.0,1.2216,1.2216,1.2294,1.2457,1.2457,1.2542,1.2705,1.2705,1.2705,1.2705,1.2705,1.2705,1.2705,1.2705,1.2705,1.2705,1.2705,1.2705,1.2705,1.2705,1.2705,1.2705,1.2705,1.2705,1.2705,0.0,0.0,0.0,0.0,0.0,0.0,0.0,0.0,0.0,0.0,0.0,0.0,0.0,0.0,0.0,0.0,0.0,0.0,0.0,0.5175,0.5462,0.5977,0.6314,0.6772,0.7412,0.8206,0.9177,1.0312,1.0156,0.9953,0.9695,0.8685,0.8249,0.8306,0.7706,0.7486,0.7583,0.7359,0.7093,0.6854,0.6817,0.0,0.0,0.0,0.0,0.0,0.0,0.0,0.0,0.0,0.5519,0.577,0.63,0.6247,0.6027,0.6159,0.6007,0.5767,0.5511,0.6025,0.6609,0.6597,0.7,0.7526,0.7919,0.8363,0.883,0.9263,0.9354,0.9378,0.9462,0.0,0.0,0.0,0.0,0.0,0.0,0.0,0.0,0.0,0.0,0.0,0.0,0.0,0.0,0.0,0.0,0.0,0.0,0.0,0.0,1.192,1.188,1.2005,1.2192,1.2192,1.2318,1.2578,1.2578,1.262,1.2705,1.2705,1.2705,1.2705,1.2705,1.2705,1.2705,1.2705,1.2705,1.2705,1.2705,1.2705,1.2705,1.2705,1.2705,1.2705,0.0,0.0,0.0,0.0,0.0,0.0,0.0,0.0,0.0,0.0,0.0,0.0,0.0,0.0,0.0,0.0,0.0,0.0,0.5098,0.5349,0.5641,0.5978,0.5998,0.6589,0.7845,0.7821,0.8196,0.9004,0.9406,0.9343,0.8885,0.8415,0.8337,0.8554,0.7828,0.7687,0.7965,0.7573,0.7405,0.7381,0.7249,0.6707,0.0,0.0,0.0,0.0,0.0,0.0,0.0,0.0,0.5399,0.5534,0.6333,0.6232,0.5894,0.6277,0.6452,0.6472,0.6244,0.6739,0.7251,0.7048,0.0,0.0,0.8237,0.853,0.8945,0.9745,0.9913,0.9991,1.0244,0.0,0.0,0.0,0.0,0.0,0.0,0.0,0.0,0.0,0.0,0.0,0.0,0.0,0.0,0.0,0.0,0.0,0.0,0.0,1.1609,1.1868,1.1874,1.1874,1.192,1.192,1.2047,1.2312,1.2312,1.2445,1.2705,1.2705,1.2705,1.2705,1.2705,1.2705,1.2705,1.2705,1.2705,1.2705,1.2705,1.2705,1.2705,1.2705,1.2705,1.2705,0.0,0.0,0.0,0.0,0.0,0.0,0.0,0.0,0.0,0.0,0.0,0.0,0.0,0.0,0.0,0.0,0.0,0.0,0.5368,0.5454,0.5545,0.5641,0.592,0.6203,0.6493,0.7029,0.7857,0.9004,0.9114,0.8958,0.8548,0.8258,0.8048,0.7887,0.7866,0.7748,0.7573,0.7452,0.7184,0.6836,0.6785,0.6301,0.0,0.0,0.0,0.0,0.0,0.0,0.0,0.0,0.0,0.0,0.6014,0.6384,0.6645,0.6678,0.6958,0.7083,0.6226,0.6799,0.0,0.7351,0.0,0.0,0.0,0.9314,0.0,0.0,1.0454,1.0418,1.0316,0.0,0.0,0.0,0.0,0.0,0.0,0.0,0.0,0.0,0.0,0.0,0.0,0.0,0.0,0.0,0.0,0.0,0.0,0.0,1.1268,1.1347,1.1353,1.1449,1.1609,1.1609,1.1742,1.2041,1.2041,1.227,1.2705,1.2705,1.2705,1.2705,1.2705,1.2705,1.2705,1.2705,1.2705,1.2705,1.2705,1.2705,1.2705,1.2705,1.2705,1.2705,0.0,0.0,0.0,0.0,0.0,0.0,0.0,0.0,0.0,0.0,0.0,0.0,0.0,0.0,0.0,0.0,0.0,0.0,0.0,0.0,0.5502,0.5502,0.5703,0.5929,0.6174,0.6973,0.768,0.8289,0.8268,0.8115,0.7846,0.7881,0.795,0.8051,0.8212,0.806,0.0,0.7654,0.7273,0.6689,0.679,0.6456,0.5863,0.0,0.0,0.0,0.0,0.0,0.0,0.0,0.0,0.0,0.5632,0.5999,0.6357,0.676,0.718,0.7428,0.7003,0.7539,0.0,0.8055,0.8495,0.9121,0.975,0.0,0.0,0.0,0.0,1.0665,0.0,0.0,0.0,0.0,0.0,0.0,0.0,0.0,0.0,0.0,0.0,0.0,0.0,0.0,0.0,0.0,0.0,0.0,0.0,1.1111,1.1111,1.1111,1.1111,1.119,1.1327,1.1327,1.1459,1.1724,1.1724,1.1986,1.2397,1.2499,1.2608,1.2705,1.2705,1.2705,1.2705,1.2705,1.2705,1.2705,1.2705,1.2705,1.2705,1.2705,1.2705,1.2705,0.0,0.0,0.0,0.0,0.0,0.0,0.0,0.0,0.0,0.0,0.0,0.0,0.0,0.0,0.0,0.0,0.0,0.0,0.0,0.0,0.5492,0.5502,0.5518,0.5857,0.6589,0.7309,0.75,0.7127,0.7136,0.7102,0.7023,0.7487,0.8038,0.8615,0.8674,0.8437,0.0,0.0,0.7433,0.6746,0.6992,0.6849,0.6443,0.6087,0.0,0.0,0.0,0.0,0.0,0.0,0.0,0.0,0.5269,0.5346,0.5495,0.6606,0.7195,0.7594,0.8196,0.8582,0.8847,0.903,0.9185,0.0,1.047,1.05,1.0548,1.1224,0.0,0.0,0.0,0.0,0.0,0.0,0.0,0.0,0.0,0.0,0.0,0.0,0.0,0.0,0.0,0.0,0.0,0.0,0.0,0.0,0.0,1.1111,1.1111,1.1111,1.1111,1.1111,1.1111,1.1111,1.12,1.1453,1.1453,1.1591,1.1856,1.2155,1.2409,1.2638,1.2656,1.2668,1.2674,1.2693,1.2705,1.2705,1.2705,1.2705,1.2747,1.2747,1.2747,1.279,0.0,0.0,0.0,0.0,0.0,0.0,0.0,0.0,0.0,0.0,0.0,0.0,0.0,0.0,0.0,0.0,0.0,0.0,0.0,0.0,0.5446,0.5502,0.6094,0.6485,0.6599,0.6723,0.671,0.6577,0.7246,0.7394,0.7106,0.8088,0.8297,0.7856,0.8441,0.8099,0.7079,0.7074,0.6715,0.618,0.6237,0.6014,0.5653,0.5561,0.5287,0.0,0.0,0.0,0.0,0.0,0.0,0.0,0.5269,0.5602,0.5925,0.6389,0.7205,0.797,0.8056,0.8482,0.0,0.0,0.9888,1.0269,1.106,1.0983,1.0864,1.1113,0.0,0.0,0.0,0.0,0.0,0.0,0.0,0.0,0.0,0.0,0.0,0.0,0.0,0.0,0.0,0.0,0.0,0.0,0.0,0.0,1.1111,1.1111,1.1111,1.1111,1.1111,1.1111,1.1111,1.1111,1.1141,0.0,1.1202,1.1347,1.1585,1.1844,1.2035,1.206,1.2306,1.2397,1.2415,1.262,1.2705,1.2705,1.2705,1.2833,1.3009,1.3009,1.3094,1.3264,0.0,0.0,0.0,0.0,0.0,0.0,0.0,0.0,0.0,0.0,0.0,0.0,0.0,0.0,0.0,0.0,0.0,0.0,0.0,0.0,0.5455,0.5455,0.601,0.632,0.6309,0.6215,0.6256,0.644,0.6875,0.7184,0.7408,0.8228,0.859,0.8561,0.8894,0.8349,0.7168,0.705,0.6491,0.5732,0.5923,0.5866,0.5659,0.547,0.5269,0.5068,0.4866,0.0,0.0,0.0,0.0,0.0,0.0,0.0,0.5799,0.6256,0.6993,0.7755,0.8095,0.0,0.0,0.9679,0.0,1.0547,1.0982,1.0919,1.087,0.0,0.0,0.0,0.0,0.0,0.0,0.0,0.0,0.0,0.0,0.0,0.0,0.0,0.0,0.0,0.0,0.0,0.0,0.0,0.0,0.0,1.1111,1.1111,1.1111,1.1111,1.1111,1.1111,1.1111,1.1111,1.1111,1.1111,1.1111,1.119,1.1303,1.17,1.188,1.1926,1.2065,1.2125,1.2149,1.2409,1.2518,1.253,1.2784,1.2966,1.31,1.3222,1.3307,1.3398,0.0,0.0,0.0,0.0,0.0,0.0,0.0,0.0,0.0,0.0,0.0,0.0,0.0,0.0,0.0,0.0,0.0,0.0,0.0,0.5483,0.5486,0.5501,0.5764,0.5974,0.6087,0.5908,0.6081,0.6602,0.6389,0.6891,0.0,0.835,0.8857,0.9467,0.937,0.862,0.7439,0.7147,0.6364,0.5324,0.5659,0.5793,0.5747,0.5424,0.5296,0.5251,0.4921,0.4802,0.4812,0.4875,0.0,0.0,0.0,0.0,0.5502,0.6059,0.6647,0.7253,0.8004,0.0,0.926,0.961,1.0117,0.0,1.0719,1.0758,0.0,0.0,0.0,0.0,0.0,0.0,0.0,0.0,0.0,0.0,0.0,0.0,0.0,0.0,0.0,0.0,0.0,0.0,0.0,0.0,0.0,1.1111,1.1111,1.1111,1.1111,1.1111,1.1111,1.1111,1.1111,1.1111,1.1111,1.1111,1.1111,1.1111,1.1129,1.1576,1.1742,1.1748,1.1796,1.1814,1.1838,1.2137,1.2276,1.2419,1.2855,1.3099,1.3222,1.3392,1.3483,1.3525,0.0,0.0,0.0,0.0,0.0,0.0,0.0,0.0,0.0,0.0,0.0,0.5262,0.5425,0.5483,0.0,0.0,0.0,0.0,0.5502,0.0,0.0,0.5907,0.5957,0.6135,0.6433,0.6077,0.626,0.7025,0.6252,0.0,0.0,0.0,0.0,0.8998,0.8973,0.8198,0.6881,0.6497,0.5773,0.4884,0.4939,0.4957,0.4957,0.4903,0.4875,0.4875,0.4821,0.4802,0.4848,0.5205,0.5351,0.0,0.0,0.0,0.0,0.5502,0.6078,0.6779,0.7233,0.0,0.9197,0.0,0.9933,1.0321,0.0,0.0,0.0,0.0,0.0,0.0,0.0,0.0,0.0,0.0,0.0,0.0,0.0,0.0,0.0,0.0,0.0,0.0,0.0,0.0,0.0,0.0,0.0,1.1111,1.1111,1.1111,1.1111,1.1111,1.1111,1.1111,1.1111,1.1111,1.1111,1.1111,1.1111,1.1111,1.1111,1.1184,1.122,1.1232,1.1441,1.1543,1.1561,1.1826,1.2235,1.2655,1.2734,1.3104,1.361,1.3652,1.3828,1.4004,0.0,0.0,0.0,0.0,0.0,0.0,0.0,0.0,0.0,0.0,0.0,0.5406,0.5492,0.5502,0.0,0.0,0.0,0.0,0.5603,0.5473,0.0,0.0,0.5725,0.5704,0.5767,0.56,0.5796,0.6369,0.5989,0.0,0.0,0.9092,0.9503,0.0,0.0,0.0,0.0,0.0,0.5715,0.5123,0.4884,0.5246,0.5838,0.5089,0.5265,0.5829,0.5071,0.4802,0.4857,0.0,0.5552,0.5696,0.547,0.0,0.0,0.0,0.5757,0.6475,0.7389,0.8273,0.9015,0.0,0.975,1.0157,1.0441,0.0,0.0,0.0,0.0,0.0,0.0,0.0,0.0,0.0,0.0,0.0,0.0,0.0,0.0,0.0,0.0,0.0,0.0,0.0,0.0,0.0,0.0,1.1111,1.1111,1.1111,1.1111,1.1111,1.1111,1.1111,1.1111,1.1111,1.1111,1.1111,1.1111,1.1111,1.1111,1.1111,1.1111,1.1117,1.1206,1.1298,1.1317,1.1705,1.2098,1.2525,1.288,1.3316,1.3737,1.387,1.4004,1.4088,0.0,0.0,0.0,0.0,0.0,0.0,0.0,0.0,0.0,0.0,0.0,0.0,0.5502,0.0,0.0,0.0,0.0,0.0,0.5613,0.0,0.0,0.0,0.0,0.5282,0.5176,0.5176,0.5372,0.5803,0.0,0.0,0.9143,0.9143,1.0137,0.0,1.0388,0.9372,0.0,0.0,0.0,0.5838,0.5568,0.6052,0.6863,0.6114,0.6425,0.713,0.5901,0.0,0.0,0.0,0.0,0.0,0.0,0.0,0.0,0.0,0.0,0.0,0.0,0.0,0.8456,0.8961,0.954,0.9987,0.0,0.0,0.0,0.0,0.0,0.0,0.0,0.0,0.0,0.0,0.0,0.0,0.0,0.0,0.0,0.0,0.0,0.0,0.0,0.0,0.0,0.0,0.0,1.1111,1.1111,1.1111,1.1111,1.1111,1.1111,1.1111,1.1111,1.1111,1.1111,1.1111,1.1111,1.1149,1.1186,1.1186,1.1186,1.126,1.1186,1.1223,1.1279,1.1645,1.2053,1.251,1.3003,1.3465,1.3828,1.4046,1.4088,1.4088,0.0,0.0,0.0,0.0,0.0,0.0,0.0,0.0,0.0,0.0,0.0,0.0,0.0,0.0,0.0,0.0,0.0,0.0,0.0,0.0,0.0,0.0,0.0,0.0,0.5098,0.5098,0.5332,0.0,0.0,0.0,0.9563,0.9563,1.0752,1.2778,1.1296,0.9916,0.8674,0.0,0.0,0.0,0.0,0.7304,0.745,0.828,0.8596,0.8481,0.7591,0.0,0.0,0.0,0.0,0.0,0.0,0.0,0.5847,0.0,0.0,0.0,0.0,0.7073,0.0,0.8542,0.919,0.0,0.0,0.0,0.0,0.0,0.0,0.0,0.0,0.0,0.0,0.0,0.0,0.0,0.0,0.0,0.0,0.0,0.0,0.0,0.0,0.0,0.0,0.0,0.0,1.1111,1.1111,1.1111,1.1111,1.1111,1.1111,1.1111,1.1111,1.1111,1.1111,1.1111,1.1111,1.1186,1.1372,1.1372,1.1484,1.1669,1.1484,1.1484,1.1669,1.1688,1.2177,1.285,1.2909,1.3418,1.4088,1.4088,1.4088,1.4088,0.0,0.0,0.0,0.0,0.0,0.0,0.0,0.0,0.0,0.0,0.0,0.0,0.0,0.5502,0.5502,0.5502,0.0,0.0,0.0,0.0,0.0,0.0,0.0,0.0,0.0,0.5175,0.0,0.0,0.0,0.6418,0.8446,0.8408,0.925,1.0771,1.0445,1.0183,0.9867,0.8201,0.0,0.0,0.0,0.0,0.0,0.8703,0.9123,0.9694,0.0,0.0,0.0,0.0,0.0,0.0,0.0,0.633,0.5947,0.506,0.5167,0.0,0.0,0.0,0.0,0.781,0.848,0.0,0.0,0.0,0.0,0.0,0.0,0.0,0.0,0.0,0.0,0.0,0.0,0.0,0.0,0.0,0.0,0.0,0.0,0.0,0.0,0.0,0.0,0.0,0.0,1.1111,1.1111,1.1111,1.1111,1.1111,1.1111,1.1149,1.1298,1.1298,1.1372,1.1484,1.1484,1.1521,1.1595,1.1595,1.1706,1.1892,1.1818,1.1744,1.1706,1.1855,1.2175,1.2681,1.2975,1.3373,1.3828,1.4015,1.4088,1.4088,0.0,0.0,0.0,0.0,0.0,0.0,0.0,0.0,0.0,0.5502,0.0,0.0,0.0,0.0,0.5445,0.5397,0.532,0.533,0.5492,0.0,0.0,0.0,0.0,0.0,0.0,0.5253,0.5272,0.0,0.0,0.0,0.0,0.7656,0.8376,0.9592,0.9358,0.9734,0.0,0.0,0.0,0.8559,0.0,0.0,1.0128,0.0,1.0407,0.0,0.0,0.0,0.0,0.0,0.0,0.0,0.0,0.6687,0.5839,0.5034,0.5276,0.0,0.5855,0.0,0.0,0.0,0.0,0.0,0.0,0.0,0.0,0.0,0.0,0.0,0.0,0.0,0.0,0.0,0.0,0.0,0.0,0.0,0.0,0.0,0.0,0.0,0.0,0.0,0.0,0.0,0.0,0.0,1.0846,1.0846,1.0846,1.0919,1.1077,1.1236,1.1383,1.1477,1.1558,1.1706,1.1706,1.1744,1.1781,1.1781,1.1892,1.2114,1.2114,1.2003,1.1892,1.204,1.2298,1.2639,1.3054,1.3347,1.364,1.3975,1.4088,1.4088,0.0,0.0,0.0,0.0,0.0,0.0,0.0,0.0,0.5523,0.5523,0.0,0.0,0.0,0.0,0.0,0.5234,0.5225,0.5244,0.5291,0.5234,0.0,0.0,0.0,0.0,0.0,0.5301,0.5272,0.5205,0.565,0.6279,0.707,0.0,0.8318,0.9466,0.8164,0.8492,1.0021,0.0,0.9962,1.0058,0.0,1.0721,1.0787,0.0,0.0,0.0,1.1575,1.1249,0.0,1.0392,0.0,0.0,0.0,0.7025,0.5541,0.4998,0.5132,0.5534,0.0,0.0,0.0,0.0,0.0,0.0,0.0,0.0,0.0,0.0,0.0,0.0,0.0,0.0,0.0,0.0,0.0,0.0,0.0,0.0,0.0,0.0,0.0,0.0,0.0,0.0,0.0,0.0,1.0431,1.0292,1.0292,1.0292,1.0396,1.0604,1.1035,1.128,1.128,1.1547,1.1687,1.1694,1.1694,1.1811,1.2003,1.2003,1.2114,1.2305,1.2305,1.2305,1.2305,1.2305,1.2472,1.2804,1.3073,1.3333,1.3626,1.3968,1.4082,1.4088,0.0,0.0,0.0,0.0,0.0,0.5837,0.5545,0.5743,0.5931,0.0,0.0,0.0,0.6084,0.5908,0.5743,0.5712,0.5712,0.5582,0.5321,0.5234,0.5215,0.5253,0.5244,0.5205,0.5156,0.5205,0.5214,0.5205,0.5284,0.5637,0.6232,0.6293,0.6846,0.7768,0.7404,0.7652,0.8348,0.8178,0.0,0.0,1.0064,1.0658,0.0,0.0,0.0,0.0,0.0,1.1978,1.1715,0.0,1.1022,1.0205,0.0,0.0,0.6455,0.5963,0.6297,0.6725,0.6155,0.0,0.0,0.0,0.0,0.0,0.0,0.0,0.0,0.0,0.0,0.0,0.0,0.0,0.0,0.0,0.0,0.0,0.0,0.0,0.0,0.0,0.0,0.0,0.0,0.0,0.0,0.0,1.0465,1.0396,1.0632,1.0667,1.0701,1.0736,1.088,1.1023,1.1162,1.1239,1.1452,1.1847,1.1847,1.1989,1.2231,1.2231,1.2268,1.2305,1.2305,1.2305,1.2305,1.2305,1.2351,1.2452,1.2797,1.306,1.3367,1.362,1.3901,1.4088,0.0,0.0,0.0,0.0,0.0,0.6313,0.6076,0.6241,0.6384,0.0,0.0,0.0,0.6348,0.6778,0.6818,0.6209,0.5979,0.5771,0.5562,0.5333,0.5215,0.5243,0.5243,0.5214,0.5175,0.5214,0.5224,0.5205,0.5166,0.5293,0.5569,0.5528,0.5879,0.6543,0.6345,0.6706,0.7423,0.7081,0.0,0.0,1.0228,0.0,0.0,1.2021,1.2272,0.0,0.0,0.0,1.233,1.2551,1.1992,0.0,0.0,0.8415,0.7852,0.6965,0.727,0.0,0.0,0.0,0.0,0.0,0.0,0.0,0.0,0.7777,0.0,0.0,0.0,0.0,0.0,0.0,0.0,0.0,0.0,0.0,0.0,0.0,0.0,0.0,0.0,0.0,0.0,0.0,0.0,1.0597,1.033,1.0263,1.0463,1.0563,1.0597,1.0597,1.0779,1.0939,1.1074,1.1158,1.1372,1.1683,1.1846,1.1993,1.2124,1.2245,1.2305,1.2305,1.2305,1.2305,1.2305,1.2305,1.2305,1.2331,1.267,1.2971,1.3247,1.3493,1.3793,1.4088,0.0,0.0,0.6116,0.6178,0.6561,0.6883,0.6883,0.6883,0.6888,0.0,0.7028,0.7089,0.7113,0.8041,0.8158,0.6906,0.6277,0.5964,0.5979,0.5541,0.5274,0.5282,0.5282,0.5282,0.5282,0.5282,0.5243,0.5185,0.5185,0.5166,0.5098,0.5098,0.5322,0.5704,0.5283,0.5789,0.6934,0.0,0.0,0.9123,1.0591,1.1301,0.0,0.0,1.2613,0.0,1.3147,1.3086,1.285,1.3328,1.2729,0.0,0.0,0.9694,0.948,0.8112,0.8239,0.0,0.8187,0.837,0.0,0.0,0.0,0.0,0.85,0.8139,0.0,0.0,0.0,0.0,0.0,0.0,0.0,0.0,0.0,0.0,0.0,0.0,0.0,0.0,0.0,0.0,0.0,1.0269,1.011,1.0333,1.0174,1.0047,1.0015,1.0212,1.0339,1.0339,1.0744,1.0949,1.0949,1.1202,1.1349,1.1349,1.1643,1.1846,1.1913,1.2138,1.2271,1.2305,1.2305,1.2305,1.2305,1.2305,1.2305,1.2325,1.263,1.2924,1.3193,1.3447,1.374,1.4041,0.0,0.6302,0.622,0.6592,0.7046,0.7369,0.7369,0.7369,0.7638,0.8369,0.8679,0.9056,0.9694,0.8981,0.8503,0.8572,0.7569,0.6793,0.6485,0.6031,0.5601,0.5234,0.5166,0.5137,0.5137,0.5137,0.5127,0.5127,0.5127,0.5117,0.5098,0.5098,0.5146,0.5234,0.5137,0.5458,0.6115,0.0,0.0,0.9045,0.9571,0.0,1.206,1.2182,1.2464,1.2881,1.3309,1.3406,1.3373,0.0,1.3115,1.2475,0.0,0.0,0.0,0.9857,0.0,1.0241,0.9647,0.9796,0.9933,0.9231,0.0,0.0,0.0,0.796,0.0,0.0,0.0,0.0,0.0,0.0,0.0,0.0,0.0,0.0,0.0,0.0,0.0,0.0,0.0,0.0,0.0,1.0364,1.0333,1.053,1.0498,1.0396,1.0244,1.0434,1.053,1.053,1.0615,1.0673,1.0673,1.0734,1.0842,1.1082,1.1136,1.1444,1.1906,1.196,1.2084,1.2305,1.2305,1.2305,1.2305,1.2305,1.2305,1.2311,1.2365,1.261,1.2911,1.318,1.348,1.3726,0.0,0.6798,0.6943,0.7421,0.7876,0.8259,0.8472,0.8488,0.8736,0.9417,1.0166,1.055,1.033,0.9969,0.9491,0.8862,0.7965,0.7271,0.6877,0.6222,0.5747,0.551,0.5244,0.5215,0.5449,0.5224,0.5215,0.5449,0.5215,0.5098,0.5098,0.5098,0.5341,0.574,0.5536,0.6055,0.7123,0.0,0.8261,0.9359,1.0108,0.0,1.2233,1.2414,1.2662,1.2983,1.3594,1.3955,1.4072,1.3652,1.3369,0.0,0.0,1.2093,1.1807,0.0,1.1289,1.1322,0.0,1.0736,1.0771,1.0223,0.0,0.0,0.0,0.0,0.8363,0.0,0.0,0.0,0.0,0.0,0.0,0.0,0.0,0.0,0.0,0.0,0.0,0.0,0.0,0.0,0.0,1.006,1.0089,1.0327,1.0506,1.0561,1.0466,1.0561,1.0593,1.0593,1.0593,1.0593,1.0593,1.0593,1.0667,1.0814,1.0922,1.1223,1.1657,1.1839,1.2067,1.2305,1.2305,1.2305,1.2305,1.2305,1.2305,1.2305,1.2305,1.2485,1.2804,1.2958,1.326,1.3626,0.0,0.7245,0.7649,0.8118,0.8585,0.9036,0.9447,0.9493,0.9702,1.0282,1.1297,1.1651,1.0771,1.0985,1.0656,0.9323,0.8518,0.7895,0.0,0.6653,0.6135,0.6047,0.5615,0.5547,0.5932,0.5489,0.5391,0.5685,0.5293,0.5098,0.5098,0.5098,0.5526,0.6279,0.6027,0.0,0.0,0.0,0.0,1.0079,0.0,1.163,1.2008,1.2559,1.2812,1.3023,1.3899,1.4541,1.4775,1.3916,0.0,1.3545,1.3037,1.2905,0.0,0.0,0.0,0.0,0.0,0.0,0.0,0.0,0.0,1.0268,0.0,0.0,0.0,0.9416,0.0,0.0,0.0,0.0,0.0,0.0,0.0,0.0,0.0,0.0,0.0,0.0,0.0,0.0,0.0,0.9633,0.9778,1.0157,1.0262,1.0416,1.0649,1.0568,1.0533,1.0593,1.0593,1.0593,1.0593,1.0593,1.0593,1.0593,1.0827,1.1062,1.1322,1.165,1.2045,1.2437,1.2492,1.2629,1.2732,1.2629,1.2556,1.2519,1.2372,1.2489,1.2703,1.2764,1.3053,1.3487,0.7245,0.7462,0.7649,0.8118,0.8585,0.9036,0.9447,0.9493,0.9921,1.1104,1.1651,1.2138,0.0,0.0,0.0,0.0,0.0,0.0,0.8818,0.0,0.733,0.6973,0.656,0.6368,0.6417,0.6026,0.5629,0.5264,0.5146,0.5098,0.5098,0.5098,0.538,0.588,0.6191,0.0,0.0,0.0,0.9814,0.0,1.1526,1.1357,0.0,1.196,1.2549,1.3071,1.4268,1.498,1.5205,0.0,1.4036,1.3899,0.0,1.2905,1.2895,0.0,0.0,0.0,0.0,0.0,0.0,0.0,1.1704,0.0,0.0,0.0,0.9566,0.9221,0.0,0.0,0.0,0.0,0.0,0.0,0.0,0.0,0.0,0.0,0.0,0.0,0.0,0.0,0.0,0.0,0.9603,1.0379,0.9769,0.9807,1.0808,1.0434,1.0287,1.0586,1.0593,1.0593,1.0593,1.0593,1.0593,1.0593,1.0626,1.0794,1.1049,1.1343,1.1978,1.294,1.323,1.3745,1.4314,1.3825,1.3535,1.328,1.2592,1.2325,1.2385,1.269,1.2831,1.3003,0.7421,0.7504,0.7731,0.8471,0.8761,0.9113,0.9757,1.0442,1.1075,1.1621,1.2242,0.0,0.0,0.0,0.0,0.0,0.0,1.0361,0.0,0.0,0.8281,0.7876,0.7215,0.696,0.7191,0.6305,0.5864,0.589,0.5361,0.5098,0.5108,0.538,0.6006,0.692,0.7353,0.0,0.9853,0.0,1.0527,0.0,0.0,0.0,0.0,1.2515,1.3389,1.4053,1.4627,1.5049,1.5322,0.0,1.4346,0.0,0.0,0.0,0.0,0.0,0.0,0.0,0.0,0.0,0.0,0.0,0.0,0.0,1.0348,0.0,0.9549,0.0,0.0,0.0,0.0,0.0,0.0,0.0,0.0,0.0,0.0,0.0,0.0,0.0,0.0,0.0,0.0,0.0,0.0,0.0,0.9937,0.9995,1.0632,1.0597,1.0495,1.0332,1.0506,1.0593,1.0593,1.0681,1.0926,1.1288,1.1303,1.165,1.228,1.255,1.3021,1.3623,1.4103,1.4502,1.4788,1.4681,1.4565,1.445,1.4127,1.3339,1.2502,1.2743,1.2975,1.3123,0.7473,0.0,0.0,0.0,0.8772,0.9157,1.0087,1.1135,1.1874,1.2061,0.0,0.0,1.3248,1.3229,0.0,0.0,1.2181,1.1623,0.0,0.0,0.9395,0.9099,0.8165,0.0,0.0,0.694,0.6384,0.6428,0.5663,0.5341,0.5458,0.5694,0.6416,0.7574,0.8252,0.9365,1.0752,0.0,0.0,1.1475,1.1819,1.2175,1.2553,1.3359,1.4141,1.4805,1.4912,1.5156,1.5352,1.4932,1.457,0.0,1.4541,0.0,0.0,0.0,0.0,0.0,1.2964,0.0,0.0,0.0,0.0,0.0,0.0,0.0,0.0,0.0,0.0,0.0,0.0,0.0,0.0,0.0,0.0,0.0,0.0,0.0,0.0,0.0,0.0,0.0,0.0,0.0,0.0,0.0,0.0,0.9932,1.058,1.077,1.0611,1.0114,1.0439,1.0681,1.0839,1.0989,1.1413,1.2081,1.2066,1.2445,1.3162,1.3493,1.3905,1.4349,1.5016,1.5401,1.5613,1.5604,1.5561,1.5482,1.5376,1.4422,1.3069,1.3185,1.3329,1.3513,0.7411,0.7869,0.0,0.0,0.0,0.9121,1.0399,1.1163,1.183,0.0,0.0,0.0,0.0,0.0,0.0,0.0,0.0,1.3051,1.2174,0.0,1.084,1.083,0.9682,0.9037,0.0,0.8187,0.7328,0.6496,0.601,0.5978,0.6357,0.5978,0.6272,0.7178,0.8428,0.9473,1.0371,1.1234,1.2054,1.2846,1.2856,1.361,1.4639,0.0,1.4367,1.4834,1.5244,0.0,0.0,1.4932,1.4803,0.0,0.0,0.0,0.0,0.0,0.0,0.0,0.0,0.0,0.0,1.2025,0.0,0.0,0.0,0.0,1.1305,0.0,0.0,0.0,0.0,0.0,0.0,0.9399,0.0,0.0,0.0,0.0,0.0,0.0,0.0,0.0,0.0,0.0,0.0,0.0,0.0,0.0,1.0803,1.0768,1.053,1.0107,1.0439,1.087,1.1459,1.1686,1.2112,1.2765,1.2773,1.2864,1.3019,1.3558,1.4279,1.5207,1.5944,1.6707,1.7358,1.6786,1.6455,1.6237,1.5851,1.5073,1.423,1.4042,1.3977,1.4011,0.0,0.0,0.0,0.0,0.0,0.9227,1.042,1.1468,0.0,0.0,0.0,0.0,0.0,0.0,1.4523,0.0,0.0,1.3994,1.3135,1.2539,0.0,0.0,0.0,1.0293,0.0,0.0,0.846,0.815,0.7152,0.6729,0.6865,0.6719,0.6963,0.7574,0.915,1.0166,0.0,0.0,0.0,0.0,0.0,1.4141,1.4766,0.0,0.0,1.5215,1.5361,1.541,0.0,1.5244,1.501,1.4805,1.4941,1.4562,1.4133,1.4316,1.4248,0.0,0.0,0.0,1.4219,1.2817,0.0,0.0,0.0,0.0,0.0,0.0,0.0,0.0,0.0,0.0,0.9441,0.912,0.8731,0.0,0.0,0.0,0.0,0.0,0.0,0.0,0.0,0.0,0.0,0.0,0.9979,0.0,0.0,1.1428,1.1352,1.1051,1.1442,1.1874,1.2366,1.2604,1.3031,1.3606,1.3666,1.3953,1.4348,1.4803,1.5319,1.5891,1.6547,1.7143,1.7613,1.7554,1.7476,1.7407,1.727,1.6733,1.5877,1.4816,1.4078,1.3726,0.9118,0.0,0.0,0.0,0.0,0.0,0.0,0.0,0.0,0.0,1.3933,0.0,1.5328,0.0,1.5418,0.0,1.5478,1.5049,1.4033,1.3711,0.0,1.2691,1.1992,0.0,0.0,0.0,0.9619,0.9004,0.8184,0.7613,0.731,0.731,0.0,0.0,0.0,1.0518,1.0996,0.0,1.2993,0.0,0.0,1.4619,0.0,0.0,1.5176,1.541,0.0,1.541,1.541,1.541,1.5234,1.5049,1.5322,1.5001,1.4582,1.4746,1.4697,1.4494,1.4192,1.4453,0.0,1.3414,1.3105,0.0,1.1619,0.0,0.0,0.0,0.0,0.0,0.0,0.0,0.0,0.9463,0.898,0.0,0.0,0.0,0.0,0.0,0.0,0.0,0.0,0.0,0.8387,0.9965,0.0,0.0,0.0,0.0,1.1915,1.1592,1.2031,1.2595,1.3213,1.3463,1.3855,1.443,1.4529,1.4765,1.5156,1.5518,1.5928,1.6421,1.6973,1.7431,1.7818,1.794,1.8008,1.8008,1.8008,1.7545,1.6759,1.5455,1.4581,1.4096,0.0,0.0,0.0,0.0,1.0142,0.0,0.0,0.0,1.3703,0.0,1.4981,1.5585,1.6407,1.6286,1.6269,1.6668,1.6697,0.0,1.4961,1.4844,0.0,0.0,1.3184,1.2744,1.2311,0.0,0.0,0.0,0.9053,0.8568,0.7763,0.7744,0.0,0.0,0.9725,0.0,1.0967,1.2285,1.3115,1.3613,1.4473,1.5049,1.541,1.541,1.541,1.541,1.541,1.541,1.541,1.541,1.541,1.541,1.541,1.541,1.5332,1.4932,1.5098,1.5234,1.4387,1.4502,1.4619,1.3779,0.0,0.0,0.0,0.0,1.3418,0.0,0.0,0.0,0.0,0.0,0.0,1.0437,0.9976,0.0,0.0,0.0,0.0,0.0,0.0,0.0,0.0,0.0,0.7675,0.9718,0.9382,0.0,0.0,0.0,1.2122,1.1807,1.2245,1.2982,1.4055,1.4183,1.4588,1.5215,1.5215,1.5264,1.54,1.5689,1.6133,1.6726,1.7197,1.7627,1.8008,1.8008,1.8008,1.8008,1.8008,1.7545,1.6793,1.5991,1.5483,1.5115,1.0276,1.0853,1.1256,0.0,1.1166,1.1419,0.0,0.0,0.0,0.0,1.5389,1.6068,1.6597,1.6594,1.658,1.6687,1.6697,0.0,0.0,0.0,0.0,1.4932,1.4182,1.3734,1.3627,1.2574,0.0,1.1375,0.0,0.0,0.8655,0.0,0.0,0.0,0.0,0.0,1.0547,1.1836,1.2983,1.4026,1.4902,1.5312,0.0,0.0,1.541,1.541,1.541,1.541,1.541,1.541,1.541,1.541,1.541,1.541,1.5391,1.5283,1.5322,1.5361,1.5118,1.5166,1.5127,1.459,1.4209,1.3802,0.0,0.0,0.0,0.0,0.0,0.0,0.0,0.0,0.0,0.0,0.0,0.0,0.0,0.0,0.0,0.0,0.0,0.0,0.0,0.0,0.8939,0.9487,0.0,0.0,0.0,0.0,0.0,1.3159,1.3451,1.4017,1.4863,1.503,1.5128,1.5215,1.5313,1.5313,1.5274,1.5779,1.6278,1.6726,1.7197,1.7627,1.8008,1.8008,1.8008,1.8008,1.8008,1.7545,1.6793,1.5991,1.5878,1.6105,1.0981,0.0,0.0,1.2264,0.0,0.0,1.296,0.0,0.0,1.5072,1.5772,0.0,1.6774,1.7093,1.7262,1.7262,1.7262,0.0,1.6726,0.0,0.0,1.5439,1.5127,1.4805,1.4424,1.35,0.0,1.1943,0.0,0.0,0.873,0.0,0.0,0.0,0.0,1.0205,0.0,1.233,1.3451,1.4182,1.504,0.0,0.0,1.541,1.541,1.541,1.541,1.541,1.541,1.541,1.541,1.541,1.541,1.541,1.541,1.541,1.541,1.541,1.541,1.541,1.5352,1.5117,1.4873,1.4552,1.416,1.4248,1.4346,0.0,0.0,0.0,0.0,0.0,0.0,0.0,0.0,0.0,0.0,0.0,0.0,0.0,0.0,0.0,0.0,0.0,0.0,0.0,0.0,0.0,0.0,0.0,0.0,1.3798,1.398,1.445,1.5284,1.5362,1.5362,1.5284,1.5362,1.5362,1.5303,1.5839,1.6309,1.6726,1.7197,1.7627,1.8008,1.8008,1.8008,1.8008,1.8008,1.7759,1.7358,1.7064,1.692,1.6908,0.0,0.0,0.0,0.0,0.0,0.0,0.0,1.3997,0.0,1.5692,0.0,1.6682,1.71,1.7658,1.8008,1.8008,0.0,1.7695,1.6911,1.7207,1.6875,1.5723,1.5977,1.5801,1.4999,1.4387,0.0,0.0,0.0,0.0,0.8473,0.0,0.0,0.0,0.0,0.0,0.0,1.3237,1.4143,1.426,1.5098,1.5449,1.5449,1.5449,1.5478,1.5478,1.5478,1.5449,1.541,1.541,1.541,1.541,1.541,1.541,1.541,1.541,1.541,1.541,1.541,1.541,1.541,1.5439,1.541,1.5322,1.4979,1.4901,1.4891,1.4891,1.4561,1.4484,0.0,0.0,0.0,0.0,0.0,0.0,0.0,0.0,0.0,0.0,0.0,0.0,0.0,0.0,0.0,0.0,0.0,0.0,0.0,0.0,0.0,1.39,1.4031,1.4494,1.5322,0.0,1.541,1.541,1.541,1.541,1.543,1.5958,1.6367,1.6726,1.7246,1.7676,1.8008,1.8008,1.8008,1.8008,1.8008,1.8047,1.8144,1.8529,1.8323,1.7815,0.0,0.0,0.0,0.0,0.0,1.4626,1.5009,1.5439,1.591,1.6457,1.722,1.7729,1.7817,1.792,1.8008,1.8008,1.8008,0.0,0.0,0.0,0.0,1.7051,1.6768,1.6377,1.588,1.4717,1.3627,0.0,0.0,0.0,0.8887,0.0,0.0,0.0,0.0,0.0,1.2067,1.35,0.0,1.4745,1.5407,1.5643,1.5672,1.5769,1.5827,1.5827,1.5827,1.5633,1.541,1.541,1.541,1.541,1.541,1.541,1.541,1.541,1.541,1.541,1.541,1.541,1.5449,1.5604,1.5507,1.542,1.5515,1.5399,1.5303,1.5303,1.5234,1.5127,1.4932,0.0,0.0,0.0,0.0,0.0,0.0,0.0,0.0,0.0,0.0,0.0,0.0,0.0,0.0,0.0,0.0,0.0,0.0,0.0,0.0,0.0,1.3929,0.0,0.0,0.0,1.541,1.541,1.541,1.541,1.5439,1.6219,1.6629,1.6746,1.7559,1.7939,1.8008,1.8008,1.8008,1.8008,1.8008,1.8188,1.8549,1.9014,1.9321,1.9483,0.0,0.0,0.0,0.0,0.0,0.0,0.0,1.7369,0.0,1.6789,1.7058,1.7321,1.7321,1.7744,1.8008,1.8008,1.8008,1.8008,1.8008,1.7822,1.7607,1.7393,1.7178,0.0,1.6416,1.5352,1.4358,1.3525,0.0,0.0,0.9299,0.8906,0.0,0.0,0.0,1.1143,0.0,0.0,0.0,1.4852,1.534,1.5604,1.5711,1.5769,1.5827,1.5915,1.6195,1.6177,1.5979,1.5673,1.5478,1.541,1.541,1.541,1.541,1.541,1.541,1.541,1.541,1.541,1.5449,1.5643,1.5643,1.5604,1.5769,1.573,1.5662,1.5662,1.5662,1.5505,1.5013,1.4607,0.0,0.0,0.0,0.0,0.0,0.0,0.0,0.0,0.0,0.0,0.0,0.0,0.0,0.0,0.0,0.0,0.0,0.0,0.0,0.0,0.0,0.0,0.0,0.0,0.0,1.541,1.541,1.5527,1.5771,1.6395,1.6824,1.7109,1.7734,1.8008,1.8008,1.8008,1.8008,1.8008,1.8008,1.8237,1.8656,1.9131,1.9551,1.9941,0.0,1.5365,0.0,0.0,1.769,0.0,1.8393,1.8918,1.8747,1.7238,1.7002,1.697,1.697,1.7607,1.8008,1.8008,1.8008,1.8008,1.8008,1.8008,1.7861,1.7529,1.7519,1.7314,1.6853,1.5996,1.5078,0.0,0.0,0.0,0.0,0.9473,0.0,0.0,0.0,0.0,0.0,0.0,1.4658,1.5126,1.5547,1.5851,1.6009,1.6068,1.6166,1.6324,1.6688,1.6809,1.6729,1.6237,1.5969,1.5802,1.5802,1.5772,1.5753,1.5753,1.5654,1.5547,1.5547,1.5488,1.5449,1.5643,1.5701,1.574,1.5856,1.5885,1.5885,1.5885,1.5885,1.5726,1.5181,1.4855,0.0,0.0,0.0,0.0,0.0,0.0,0.0,0.0,0.0,0.0,0.0,0.0,0.0,0.0,0.0,0.0,1.0254,1.0939,0.0,0.0,0.0,1.427,1.4648,0.0,1.541,1.541,1.5508,1.5732,1.6114,1.6621,1.7061,1.7402,1.7832,1.8008,1.8008,1.8008,1.8008,1.8008,1.8008,1.833,1.8783,1.916,1.9619,2.0098,0.0,0.0,0.0,0.0,0.0,0.0,1.915,1.9233,1.9035,1.8259,1.7992,1.7891,1.7891,1.7959,1.8008,1.8008,1.8008,1.8008,1.8008,1.8008,1.7988,1.7959,1.7949,1.7754,1.7334,1.6486,1.5391,0.0,0.0,1.1677,0.0,1.0361,0.0,0.0,0.0,0.0,0.0,1.4766,1.5547,1.6037,1.6602,1.6945,1.708,1.7256,1.741,1.7554,1.7585,1.7503,1.741,1.7359,1.7256,1.7122,1.7122,1.7008,1.6852,1.6852,1.6462,1.6036,1.6036,1.5713,1.5449,1.5643,1.5701,1.574,1.5856,1.5885,1.5885,1.5885,1.5885,1.5773,1.5338,1.5634,1.566,0.0,0.0,0.0,0.0,0.0,0.0,0.0,0.0,0.0,0.0,0.0,0.0,0.0,0.0,0.0,1.0234,1.0381,1.1203,1.2905,0.0,1.4124,1.4172,1.4981,1.541,1.542,1.584,1.6056,1.6124,1.6975,1.7376,1.7402,1.7832,1.8008,1.8008,1.8008,1.8008,1.8008,1.8008,1.8506,1.9238,1.9268,1.9805,2.0546,0.0,0.0,0.0,0.0,0.0,0.0,0.0,2.0791,2.0382,1.9218,1.8921,1.8779,1.8779,1.8779,1.8672,1.8373,1.8354,1.8247,1.8027,1.8008,1.8008,1.8008,1.8008,1.793,1.7764,1.7168,1.6369,0.0,0.0,1.2779,1.1677,1.1601,0.0,0.0,0.0,1.4235,1.4974,1.5654,1.6267,1.6837,1.6964,1.7159,1.7388,1.7357,1.7481,1.774,1.803,1.8091,1.8101,1.8369,1.7942,1.7305,1.7305,1.7253,1.719,1.719,1.6998,1.6827,1.6827,1.6687,1.6497,1.6386,1.6355,1.6314,1.6206,1.6202,1.6202,1.6202,1.6105,1.5977,1.5794,1.5739,1.5647,0.0,0.0,0.0,0.0,0.0,0.0,0.0,0.0,0.0,0.0,0.0,0.0,0.0,0.0,0.0,0.0,1.0137,0.0,1.2418,0.0,1.4104,1.4104,1.4952,1.541,1.542,1.5889,1.6232,1.6484,1.71,1.7519,1.7773,1.7939,1.8008,1.8008,1.8008,1.8076,1.8197,1.8498,1.9017,1.969,1.9969,2.0446,2.0964,2.1394,0.0,2.1172,0.0,2.2505,2.2093,2.1985,2.1775,2.1248,2.0132,1.9873,1.9644,1.9316,1.9287,1.916,1.8822,1.8828,1.8701,1.8503,1.8483,1.8483,1.8552,1.84,0.0,1.8296,1.7699,1.7012,1.629,1.5244,0.0,1.3139,0.0,0.0,0.0,1.4914,1.5445,1.6134,1.6567,1.7049,1.7476,1.7458,1.7614,1.7869,1.771,1.7837,1.8164,1.8507,1.8611,1.8662,1.8994,1.8543,1.7827,1.7827,1.7795,1.7731,1.7731,1.7609,1.7466,1.7466,1.7375,1.7234,1.7012,1.6859,1.6746,1.6555,1.6477,1.6413,1.6413,1.6278,1.6181,1.6181,1.5915,1.5761,1.5946,0.0,0.0,0.0,0.0,0.0,0.0,0.0,1.2643,0.0,0.0,0.0,0.0,0.0,0.0,0.0,0.0,0.0,0.0,0.0,0.0,0.0,1.5162,1.5634,1.5753,1.6166,1.6588,1.6988,1.7406,1.7758,1.8076,1.8076,1.811,1.8144,1.8144,1.8245,1.8421,1.8869,1.9379,1.9948,2.0437,2.0833,2.1205,2.3344,2.301,2.2937,2.4389,2.3576,2.2638,2.2419,2.1721,2.1118,2.0925,2.0886,2.0483,1.9421,1.9287,1.9287,1.9277,1.9277,1.9386,1.9558,1.9594,1.9657,0.0,0.0,1.8994,1.8994,1.7947,1.7168,1.6697,0.0,0.0,1.5371,0.0,1.5787,1.598,1.6386,1.6587,1.6648,1.7505,1.7878,1.7928,1.8315,1.8596,1.8787,1.8798,1.8921,1.9088,1.9088,1.9098,1.9098,1.9108,1.9098,1.9088,1.9088,1.8921,1.8787,1.8787,1.8372,1.7888,1.7888,1.7597,1.7305,1.7305,1.7032,1.6797,1.6787,1.6597,1.6413,1.6413,1.6413,1.6413,1.6413,1.6402,1.6247,1.5773,0.0,0.0,0.0,0.0,0.0,0.0,1.2779,1.2517,1.3318,0.0,0.0,0.0,0.0,0.0,0.0,0.0,0.0,1.3625,1.4146,0.0,1.5265,1.5682,1.6125,1.6598,1.6877,1.7189,1.7582,1.787,1.81,1.8303,1.8303,1.8371,1.8482,1.8482,1.8516,1.8556,1.9008,1.9495,1.9948,2.0437,2.0833,2.1205,2.5,2.4552,2.4319,2.5322,2.517,2.4504,2.3316,2.2947,2.2371,2.1244,2.0984,2.0836,2.0623,2.0356,2.0077,0.0,1.9717,1.9627,0.0,1.9396,1.9505,1.9677,1.9511,1.9467,1.961,1.9269,1.8724,1.7985,0.0,0.0,0.0,1.6406,1.6697,1.7164,1.747,1.7696,1.7862,1.8338,1.8583,1.8736,1.8713,1.8841,1.9008,1.8841,1.8908,1.9108,1.9108,1.9108,1.9108,1.9108,1.9108,1.9108,1.9108,1.9075,1.8998,1.8998,1.8862,1.8715,1.8715,1.8613,1.846,1.8119,1.7966,1.7729,1.7091,1.6665,1.6413,1.6413,1.6413,1.6413,1.6413,1.6413,1.6361,1.6216,1.5504,0.0,0.0,0.0,0.0,0.0,0.0,1.3253,0.0,1.2434,0.0,0.0,0.0,0.0,0.0,0.0,0.0,0.0,1.4449,0.0,1.5313,1.6032,1.6437,1.6618,1.7302,1.783,1.8205,1.8311,1.8381,1.8448,1.8448,1.8448,1.8516,1.8516,1.8764,1.9225,1.9707,2.0226,2.0786,2.1247,2.1504,2.1617,2.5945,2.543,2.4969,2.5135,2.4957,2.4371,2.3069,2.2883,2.2483,2.1464,2.1205,2.1128,2.1205,2.0964,0.0,2.031,2.0204,2.0087,1.9907,1.9887,2.0036,2.0286,2.0099,2.0082,2.0254,0.0,0.0,1.9101,1.8623,1.8218,1.7924,1.7666,1.78,1.8215,1.8387,1.8543,1.8661,1.8851,1.9078,1.9367,1.9232,1.9325,1.9561,1.9294,1.9266,1.9347,1.917,1.9108,1.9108,1.9108,1.9108,1.9108,1.9108,1.9108,1.9108,1.9108,1.9108,1.9108,1.9108,1.9108,1.9036,1.8745,1.8538,1.8143,1.7213,1.68,1.6581,1.6444,1.6413,1.6413,1.6413,1.6413,1.635,1.6174,1.5484,1.4935,1.4759,0.0,0.0,0.0,0.0,0.0,0.0,1.3377,0.0,0.0,0.0,0.0,0.0,0.0,0.0,1.3845,1.5013,0.0,1.5932,1.6656,1.7094,1.7298,1.7936,1.8334,1.8516,1.8516,1.8549,1.8607,1.8607,1.865,1.8728,1.8934,1.9226,1.9657,2.0319,2.0766,2.1176,2.1631,2.1807,2.1807,2.6236,2.5711,0.0,0.0,2.3534,0.0,2.1987,2.1873,2.1818,2.1581,2.1533,2.1456,2.1373,2.1245,2.1148,2.0985,0.0,0.0,0.0,2.0867,2.1061,2.1474,2.0936,2.0751,2.0974,2.0352,2.0036,1.997,1.951,1.9463,1.9834,1.9195,1.9001,1.9191,1.9191,1.9191,1.9191,1.9191,1.945,1.9844,1.9844,2.0058,2.0343,1.9965,1.9844,1.9782,1.9357,1.9191,1.9191,1.9191,1.9191,1.9191,1.9191,1.9181,1.915,1.9119,1.9108,1.9108,1.9108,1.9108,1.9108,1.9108,1.8756,1.8164,1.7296,1.7079,1.6934,1.6519,1.6425,1.6444,1.6413,1.6413,1.6257,1.579,1.5297,1.4831,1.4376,0.0,0.0,0.0,0.0,0.0,0.0,1.4469,1.4542,0.0,0.0,0.0,0.0,0.0,1.3926,1.4875,1.5782,1.6516,1.7028,1.7513,1.7967,1.8465,1.8703,1.8707,1.8549,1.8549,1.864,1.8808,1.8808,1.8962,1.9181,1.9616,1.9834,1.9969,2.0783,2.1135,2.1217,2.1652,2.1807,2.1807,0.0,0.0,2.5241,2.5016,2.4838,2.4299,2.2916,2.2703,2.2606,2.2283,2.1804,2.1806,2.2631,2.1813,2.1385,2.1845,2.1251,2.078,2.0693,2.0654,2.0848,2.1244,2.1153,2.1207,2.1576,2.1425,2.1151,2.0802,2.035,2.0159,2.0265,2.0081,2.004,2.01,2.01,2.01,2.01,2.01,2.0172,2.0265,2.0265,2.0327,2.0374,2.0307,2.0265,2.0255,2.0141,2.01,2.01,2.01,2.01,2.01,2.01,1.9872,1.9564,1.9212,1.9108,1.9108,1.9108,1.9108,1.9108,1.9108,1.8756,1.8351,1.8112,1.7781,1.7409,1.6944,1.6862,1.6748,1.6475,1.6413,1.6257,1.579,1.5297,1.4831,1.4376,1.421,0.0,0.0,1.4552,1.479,1.4687,1.4552,1.4351,0.0,0.0,0.0,0.0,1.5151,1.577,1.6014,1.6533,1.7038,1.7533,1.8009,1.8454,1.8942,1.899,1.8998,1.8975,1.8975,1.8975,1.9042,1.9042,1.9272,1.9637,1.9751,2.0207,2.0814,2.1031,2.1331,2.1652,2.1766,2.1807,2.1807,2.6418,2.6129,2.5819,2.5708,2.5673,2.5347,2.4435,2.428,2.4229,2.4034,2.3683,2.3715,2.4327,2.3757,2.3425,2.3694,2.2064,2.0974,2.0886,2.0886,2.1156,2.1731,2.1835,2.2155,2.2756,2.282,2.2726,2.2466,2.2012,2.1773,2.1819,2.159,2.1481,2.1481,2.1481,2.1282,2.0942,2.0942,2.0866,2.0705,2.0705,2.0866,2.1031,2.0788,2.0705,2.0674,2.0467,2.0385,2.0385,2.0385,2.0385,2.0385,2.0385,2.0265,2.0006,1.9758,1.9396,1.9108,1.9108,1.9108,1.9108,1.9108,1.8911,1.8673,1.8465,1.8195,1.7905,1.742,1.7327,1.7272,1.7125,1.7087,1.6874,1.6233,1.5916,1.5477,1.4757,1.4882,0.0,1.5037,1.5658,1.6007,1.5804,1.592,1.5869,1.5421,1.5804,0.0,1.5637,1.6556,1.6859,1.6413,1.7212,1.7771,1.803,1.8507,1.8849,1.9108,1.9108,1.9108,1.9108,1.9108,1.9108,1.9119,1.9326,1.9564,1.9824,2.0249,2.0669,2.1135,2.1352,2.159,2.1807,2.1807,2.1807,2.1807,2.6738,2.6738,2.6631,2.6275,2.6214,2.6137,2.5857,2.5812,2.5835,2.5916,2.5858,2.5858,2.5981,2.5893,2.5758,2.5684,2.3354,2.1819,2.1681,2.1671,2.1946,2.258,2.2771,2.3217,2.3913,2.4047,2.4108,2.4108,2.3708,2.3547,2.3583,2.319,2.3017,2.3017,2.3017,2.2616,2.1967,2.1967,2.1807,2.1529,2.1529,2.1808,2.2086,2.1686,2.1529,2.1487,2.1113,2.0904,2.0807,2.0904,2.0868,2.0807,2.0904,2.0827,2.0703,2.0835,2.0201,1.9463,1.9389,1.9383,1.9396,1.9396,1.9396,1.9291,1.8891,1.8732,1.8542,1.8186,1.7947,1.7842,1.7926,1.7894,1.7566,1.6525,1.656,1.6325,1.5165,0.0,1.6111,1.6006,1.6906,1.7355,1.6968,1.755,1.7653,1.6942,1.7634,1.7856,1.7307,1.7908,1.7832,1.6888,1.7967,1.8573,1.8668,1.8934,1.9108,1.9108,1.9108,1.9108,1.9108,1.9108,1.9139,1.9233,1.9627,1.9876,2.0062,2.0793,2.1155,2.1259,2.1652,2.1807,2.1807,2.1807,2.1807,2.1807,2.7846,2.7846,2.764,2.6905,2.6793,2.6568,2.5904,2.5812,2.5923,2.6322,2.6039,2.6085,2.6818,2.6242,2.5947,2.6295,2.5556,2.4727,2.3873,2.3802,2.3738,2.3585,2.3599,2.3781,2.4047,2.4084,2.4108,2.4108,2.4039,2.3994,2.4005,2.3913,2.3879,2.3879,2.3879,2.3843,2.3699,2.3699,2.3673,2.3632,2.3632,2.3688,2.3745,2.3666,2.3632,2.3621,2.3541,2.3142,2.2687,2.3313,2.3105,2.2687,2.3349,2.2817,2.2149,2.2814,2.2165,2.1094,2.0659,2.0676,2.0773,2.0773,2.0773,2.0751,2.0703,2.0245,1.9845,1.9955,1.9079,1.8239,1.8108,1.7991,1.7322,1.5548,1.638,1.6615,1.477,0.0,1.7009,1.6558,1.7384,1.797,1.789,1.7555,1.7451,1.7687,1.7937,1.7962,1.7644,1.9138,1.9666,1.8955,1.9141,1.9445,1.9825,1.9354,1.9108,1.9108,1.9108,1.9108,1.9108,1.9108,1.9316,1.9699,1.9761,2.0238,2.0917,2.1062,2.1342,2.1704,2.1776,2.1807,2.1807,2.1807,2.1807,2.1807,2.8109,2.7946,2.7849,2.794,2.7915,2.7876,2.7963,2.7946,2.8031,2.8246,2.8104,2.8089,2.8493,2.8198,2.8043,2.8258,2.8091,2.7627,2.6834,2.5733,2.5176,2.5331,2.5407,2.5572,2.5828,2.5538,2.5394,2.5394,2.5394,2.5394,2.5394,2.5394,2.5394,2.5394,2.5394,2.5134,2.4755,2.4755,2.4492,2.4108,2.4108,2.4108,2.4108,2.4108,2.4108,2.4108,2.4108,2.3866,2.3621,2.3975,2.3866,2.3658,2.3975,2.3707,2.3356,2.3704,2.3061,2.2207,2.1936,2.1706,2.1535,2.1535,2.1319,2.1092,2.1092,2.0869,2.0673,2.0762,2.0266,1.9865,1.9821,1.9535,1.9039,1.8208,1.818,0.0,0.0,1.7928,1.8597,1.8343,1.9274,1.9927,1.9927,1.9694,1.9622,1.9814,1.9894,1.986,1.9655,2.044,2.0695,2.0329,1.996,1.9878,2.0096,1.9429,1.9108,1.9108,1.9108,1.9233,1.9471,1.9471,1.972,2.0131,2.0379,2.0731,2.1135,2.1383,2.1611,2.1807,2.1807,2.1807,2.1807,2.1807,2.1807,2.1807,2.8499,2.8309,2.8334,2.9001,2.9026,2.9151,2.9704,2.9792,2.9792,2.9792,2.9792,2.9792,2.9792,2.9792,2.9792,2.9792,2.9792,2.9603,2.9126,2.7642,2.6835,2.7024,2.7137,2.7275,2.7482,2.709,2.6876,2.6876,2.6751,2.6688,2.6688,2.6549,2.6499,2.6499,2.6499,2.6176,2.5594,2.5594,2.5217,2.466,2.466,2.466,2.466,2.466,2.466,2.466,2.466,2.4552,2.4409,2.4588,2.4516,2.4409,2.4588,2.4516,2.4409,2.4588,2.4178,2.3599,2.3277,2.2889,2.2577,2.2577,2.218,2.1784,2.1784,2.1564,2.1376,2.1534,2.1313,2.1163,2.1296,2.0978,2.0624,2.0385,0.0,0.0,0.0,1.9708,2.015,2.0012,2.0878,2.1493,2.1493,2.1481,2.1443,2.1443,2.1555,2.1542,2.1277,2.1542,2.1662,2.1585,2.0773,2.0323,2.0323,1.9813,1.9551,1.9561,1.969,1.9924,2.0286,2.0437,2.0735,2.1122,2.1313,2.1424,2.156,2.1738,2.1807,2.1807,2.1807,2.1807,2.1807,2.1807,2.1807,2.1807,2.9666,2.9641,2.9654,2.9716,2.9716,2.9729,2.9779,2.9792,2.9792,2.9792,2.9792,2.9792,2.9792,2.9792,2.9792,2.9792,2.9792,2.9779,2.9729,2.9575,2.9037,2.8037,2.8,2.8011,2.8047,2.8009,2.7984,2.7984,2.7469,2.7218,2.7241,2.6738,2.6499,2.6499,2.6499,2.6452,2.6418,2.6418,2.6383,2.6314,2.6314,2.6314,2.6314,2.6314,2.6314,2.6314,2.6314,2.5838,2.5335,2.606,2.5851,2.5335,2.6094,2.5804,2.5382,2.6094,2.6286,2.5974,2.4693,2.4487,2.4584,2.4584,2.4172,2.3773,2.3773,2.2873,2.2206,2.2811,2.197,2.1151,2.1344,2.1313,2.0788,1.9448,0.0,0.0,1.9298,2.0419,2.1207,2.0691,2.1157,2.1493,2.1493,2.1403,2.1319,2.1319,2.1777,2.1789,2.1161,2.2292,2.2967,2.2944,2.169,2.1028,2.1028,2.0976,2.0965,2.0976,2.1474,2.1703,2.1748,2.2307,2.2846,2.3222,2.2535,2.2459,2.2798,2.209,2.1807,2.1807,2.1807,2.1807,2.1807,2.1807,2.1807,2.1807,2.9792,2.9792,2.9792,2.9792,2.9792,2.9792,2.9792,2.9792,2.9792,2.9792,2.9792,2.9792,2.9792,2.9792,2.9792,2.9792,2.9792,2.9792,2.9792,2.9792,2.9603,2.9164,2.8812,2.8612,2.8612,2.8285,2.8109,2.8109,2.7896,2.7795,2.7783,2.7582,2.7482,2.7482,2.7482,2.7482,2.7482,2.7482,2.7482,2.7482,2.7482,2.7482,2.7482,2.7482,2.7482,2.7482,2.7482,2.7078,2.6602,2.6897,2.6567,2.6094,2.6383,2.628,2.6094,2.6418,2.6499,2.638,2.5881,2.5523,2.531,2.531,2.4908,2.4418,2.4079,2.3629,2.3245,2.311,2.2689,2.2341,2.2448,2.2169,2.1864,2.1602,0.0,2.14,2.1117,2.1618,2.192,2.1707,2.2171,2.2481,2.2481,2.2449,2.2411,2.2411,2.2609,2.2628,2.2353,2.2823,2.2914,2.2494,2.2372,2.2125,2.171,2.1313,2.1092,2.1103,2.1638,2.2062,2.2351,2.2914,2.3421,2.3869,2.3557,2.3525,2.3658,2.3364,2.3217,2.318,2.2729,2.2553,2.2478,2.1997,2.1807,2.1807,2.9792,2.9792,2.9792,2.9792,2.9792,2.9792,2.9792,2.9792,2.9792,2.9792,2.9792,2.9792,2.9792,2.9792,2.9792,2.9792,2.9792,2.9792,2.9792,2.9792,2.9792,2.9792,2.9415,2.9202,2.9202,2.8825,2.8637,2.8637,2.8448,2.836,2.836,2.8185,2.8109,2.8109,2.8109,2.8109,2.8109,2.8109,2.8109,2.8109,2.8109,2.8109,2.8109,2.8109,2.8109,2.8109,2.8109,2.7858,2.7544,2.7544,2.7329,2.7014,2.7014,2.6889,2.6713,2.6549,2.6499,2.6499,2.6499,2.6197,2.5862,2.5862,2.546,2.4958,2.4582,2.4368,2.4142,2.371,2.3634,2.3584,2.3409,2.307,2.2869,2.307,2.2468,2.2133,2.2493,2.2543,2.2543,2.2543,2.2882,2.3108,2.3108,2.3108,2.3108,2.3108,2.3108,2.3108,2.3108,2.3108,2.2884,2.2433,2.2854,2.2971,2.2689,2.2221,2.2013,2.2013,2.274,2.3238,2.3572,2.4139,2.4542,2.485,2.46,2.4492,2.4445,2.4192,2.4108,2.4047,2.3522,2.335,2.3276,2.2718,2.2531,2.2494,2.9792,2.9792,2.9792,2.9792,2.9792,2.9792,2.9792,2.9792,2.9792,2.9792,2.9792,2.9792,2.9792,2.9792,2.9792,2.9792,2.9792,2.9792,2.9792,2.9792,2.9792,2.9792,2.9792,2.9792,2.9792,2.9792,2.9792,2.9792,2.9214,2.89,2.8888,2.8373,2.8122,2.8122,2.8122,2.8122,2.8122,2.8122,2.8122,2.8122,2.8122,2.8122,2.8122,2.8122,2.8122,2.8122,2.8122,2.8109,2.8109,2.8109,2.8109,2.8109,2.8109,2.772,2.718,2.6663,2.6499,2.6499,2.6499,2.6499,2.6499,2.6499,2.6059,2.5598,2.5598,2.5197,2.48,2.4788,2.4788,2.4625,2.4104,2.4004,2.3816,2.3208,2.3108,2.3108,2.3108,2.3108,2.3108,2.3108,2.3108,2.3108,2.3108,2.3108,2.3108,2.3108,2.3108,2.3108,2.3108,2.3108,2.3108,2.3108,2.3108,2.3396,2.4004,2.4004,2.4004,2.4017,2.5084,2.5598,2.5611,2.6223,2.6499,2.6452,2.5664,2.5312,2.5229,2.4456,2.412,2.412,2.4108,2.4108,2.4108,2.4108,2.4108,2.4011,2.9792,2.9792,2.9792,2.9792,2.9792,2.9792,2.9792,2.9792,2.9792,2.9792,2.9792,2.9792,2.9792,2.9792,2.9792,2.9792,2.9792,2.9792,2.9792,2.9792,2.9792,2.9792,2.9792,2.9792,2.9792,2.9792,2.9792,2.9792,2.9616,2.9528,2.9528,2.9365,2.9289,2.9289,2.9289,2.9289,2.9289,2.9289,2.9289,2.9289,2.9289,2.9289,2.9289,2.9289,2.9289,2.9289,2.9289,2.9026,2.865,2.865,2.8423,2.8109,2.8109,2.7996,2.7821,2.7657,2.7379,2.7065,2.7065,2.6788,2.6499,2.6499,2.6361,2.6135,2.5686,2.5473,2.5259,2.4863,2.4788,2.4738,2.4575,2.4569,2.4393,2.3828,2.374,2.3572,2.3158,2.3108,2.3108,2.3108,2.3108,2.3108,2.3108,2.3108,2.3108,2.3108,2.3108,2.3108,2.3108,2.3496,2.374,2.374,2.4086,2.4374,2.4569,2.4192,2.4192,2.4582,2.5272,2.5598,2.5611,2.6223,2.6499,2.6499,2.6245,2.6129,2.6129,2.5873,2.5791,2.5721,2.5146,2.4933,2.4862,2.4301,2.4108,2.4084,2.9792,2.9792,2.9792,2.9792,2.9792,2.9792,2.9792,2.9792,2.9792,2.9792,2.9792,2.9792,2.9792,2.9792,2.9792,2.9792,2.9792,2.9792,2.9792,2.9792,2.9792,2.9792,2.9792,2.9792,2.9792,2.9792,2.9792,2.9792,2.9792,2.9792,2.9792,2.9792,2.9792,2.9792,2.9792,2.9792,2.9792,2.9792,2.9792,2.9792,2.9792,2.9792,2.9792,2.9792,2.9792,2.9792,2.9792,2.9566,2.9277,2.9277,2.9051,2.8725,2.8499,2.8436,2.8386,2.8172,2.7871,2.7607,2.7607,2.7276,2.6943,2.6943,2.6732,2.6399,2.6047,2.5971,2.585,2.5536,2.5473,2.5398,2.5172,2.5134,2.4958,2.4406,2.433,2.4205,2.3822,2.3772,2.3684,2.3471,2.3446,2.3358,2.3133,2.3108,2.3195,2.3434,2.3647,2.3772,2.3772,2.4111,2.433,2.433,2.4612,2.4888,2.5121,2.4795,2.4795,2.5134,2.5674,2.5971,2.5984,2.6336,2.6499,2.6499,2.6499,2.6499,2.6499,2.6499,2.6499,2.6465,2.5955,2.5769,2.5734,2.5217,2.5063,2.4992,2.9792,2.9792,2.9792,2.9792,2.9792,2.9792,2.9792,2.9792,2.9792,2.9792,2.9792,2.9792,2.9792,2.9792,2.9792,2.9792,2.9792,2.9792,2.9792,2.9792,2.9792,2.9792,2.9792,2.9792,2.9792,2.9792,2.9792,2.9792,2.9792,2.9792,2.9792,2.9792,2.9792,2.9792,2.9792,2.9792,2.9792,2.9792,2.9792,2.9792,2.9792,2.9792,2.9792,2.9792,2.9792,2.9792,2.9792,2.9792,2.9792,2.9792,2.9792,2.9742,2.9176,2.9001,2.89,2.8435,2.8259,2.8209,2.8221,2.7976,2.77,2.77,2.7164,2.6618,2.6533,2.6521,2.6533,2.6499,2.6499,2.6336,2.5774,2.5674,2.5498,2.4971,2.4895,2.4838,2.482,2.482,2.4632,2.413,2.4067,2.3866,2.3308,2.3258,2.3471,2.4029,2.4531,2.4788,2.4788,2.4838,2.4863,2.4863,2.4913,2.5197,2.5674,2.5674,2.5674,2.5686,2.6248,2.6499,2.6499,2.6499,2.6499,2.6499,2.6499,2.6499,2.6499,2.6499,2.6499,2.6499,2.6499,2.6499,2.6499,2.6499,2.6499,2.6383,2.9792,2.9792,2.9792,2.9792,2.9792,2.9792,2.9792,2.9792,2.9792,2.9792,2.9792,2.9792,2.9792,2.9792,2.9792,2.9792,2.9792,2.9792,2.9792,2.9792,2.9792,2.9792,2.9792,2.9792,2.9792,2.9792,2.9792,2.9792,2.9792,2.9792,2.9792,2.9792,2.9792,2.9792,2.9792,2.9792,2.9792,2.9792,2.9792,2.9792,2.9792,2.9792,2.9792,2.9792,2.9792,2.9792,2.9792,2.9792,2.9792,2.9792,2.9895,3.0024,2.9897,2.9859,2.9834,2.9884,2.9465,2.8998,2.9159,2.8837,2.8439,2.8439,2.8017,2.7411,2.6793,2.6773,2.6807,2.6568,2.6589,2.6586,2.6357,2.6298,2.6156,2.5734,2.5534,2.5338,2.5083,2.4917,2.475,2.4625,2.4644,2.4562,2.4437,2.4424,2.4474,2.4632,2.4725,2.4788,2.4788,2.5209,2.5423,2.5423,2.5896,2.6197,2.6298,2.6298,2.6298,2.6311,2.6436,2.6499,2.6499,2.6499,2.6499,2.6499,2.6499,2.6499,2.6499,2.6499,2.6499,2.6499,2.6499,2.6499,2.6499,2.6499,2.6499,2.6499,2.9792,2.9792,2.9792,2.9792,2.9792,2.9792,2.9792,2.9792,2.9792,2.9792,2.9792,2.9792,2.9792,2.9792,2.9792,2.9792,2.9792,2.9792,2.9792,2.9792,2.9792,2.9792,2.9792,2.9792,2.9792,2.9792,2.9792,2.9792,2.9792,2.9792,2.9792,2.9792,2.9792,2.9792,2.9792,2.9792,2.9792,2.9792,2.9792,2.9792,2.9792,2.9792,2.9792,2.9792,2.9792,2.9792,2.9792,2.9792,2.9792,2.9792,2.9934,3.0113,3.0113,3.019,3.0254,3.0368,3.0113,2.9807,2.9895,2.9584,2.922,2.922,2.8879,2.8359,2.7467,2.7135,2.6956,2.6773,2.6794,2.6807,2.6739,2.6739,2.6671,2.6447,2.6329,2.6214,2.6034,2.5831,2.5597,2.5365,2.5229,2.5096,2.4813,2.5046,2.5197,2.5197,2.5448,2.5598,2.5598,2.5862,2.6047,2.6047,2.6336,2.6499,2.6499,2.6499,2.6499,2.6499,2.6499,2.6499,2.6499,2.6499,2.6499,2.6499,2.6499,2.6499,2.6499,2.6499,2.6499,2.6499,2.6499,2.6499,2.6499,2.6499,2.6499,2.6499,2.9792,2.9792,2.9792,2.9792,2.9792,2.9792,2.9792,2.9792,2.9792,2.9792,2.9792,2.9792,2.9792,2.9792,2.9792,2.9792,2.9792,2.9792,2.9792,2.9792,2.9792,2.9792,2.9792,2.9792,2.9792,2.9792,2.9792,2.9792,2.9792,2.9792,2.9792,2.9792,2.9792,2.9792,2.9792,2.9792,2.9792,2.9792,2.9792,2.9792,2.983,2.983,2.9792,2.9869,2.9869,2.9792,2.983,2.9869,2.9869,2.9869,3.0011,3.019,3.019,3.0305,3.0444,3.0482,3.0444,3.0406,3.0482,3.0248,2.996,2.9997,2.9728,2.9229,2.8466,2.782,2.7349,2.7191,2.7165,2.7139,2.7037,2.699,2.7024,2.7045,2.7024,2.7024,2.7045,2.6863,2.6549,2.6125,2.5916,2.5607,2.5146,2.5485,2.5737,2.5737,2.6223,2.6499,2.6499,2.6499,2.6499,2.6499,2.6499,2.6499,2.6499,2.6499,2.6499,2.6499,2.6499,2.6499,2.6499,2.6499,2.6499,2.6499,2.6499,2.6499,2.6499,2.6499,2.6499,2.6499,2.6499,2.6499,2.6499,2.6521,2.6521,2.6533,2.9792,2.9792,2.9792,2.9792,2.9792,2.9792,2.9792,2.9792,2.9792,2.9792,2.9792,2.9792,2.9792,2.9792,2.9792,2.9792,2.9792,2.9792,2.9792,2.9792,2.9792,2.9792,2.9792,2.9792,2.9792,2.9792,2.9792,2.9792,2.9792,2.9792,2.9792,2.9792,2.9792,2.9792,2.9792,2.9792,2.9792,2.9792,2.9792,2.983,2.9972,2.9972,2.983,3.019,3.0113,2.983,3.0011,3.0049,3.0049,3.0049,3.0318,3.0622,3.0622,3.0622,3.0685,3.0874,3.0672,3.0482,3.0823,3.0746,3.0619,3.0794,3.0401,2.9957,2.9842,2.9386,2.8768,2.7949,2.788,2.776,2.7101,2.699,2.7045,2.7248,2.7113,2.7045,2.7248,2.693,2.6735,2.6841,2.668,2.6485,2.6285,2.6336,2.6373,2.6373,2.6449,2.6499,2.6499,2.6499,2.6499,2.6499,2.6499,2.6499,2.6499,2.6499,2.6499,2.6499,2.6499,2.6499,2.6499,2.6499,2.6499,2.6499,2.6499,2.6499,2.6499,2.6499,2.6499,2.6499,2.6499,2.6499,2.6499,2.6624,2.6692,2.6755,2.9792,2.9792,2.9792,2.9792,2.9792,2.9792,2.9792,2.9792,2.9792,2.9792,2.9792,2.9792,2.9792,2.9792,2.9792,2.9792,2.9792,2.9792,2.9792,2.9792,2.9792,2.9792,2.9895,2.9895,2.9792,2.9895,2.9895,2.9792,2.9792,2.9792,2.9792,2.9792,2.9792,2.9792,2.9934,2.9895,2.9792,3.0049,3.0075,2.9972,3.0049,3.0049,2.9972,3.0049,2.9934,2.983,3.0049,3.0113,3.0113,3.0228,3.0381,3.0533,3.066,3.0698,3.0736,3.0949,3.0861,3.0748,3.0949,3.0949,3.0874,3.0986,3.079,3.0607,3.0607,3.0411,2.9944,2.8902,2.865,2.8398,2.7726,2.7541,2.7391,2.732,2.7113,2.7079,2.7268,2.6964,2.6692,2.6705,2.6636,2.6555,2.6499,2.6499,2.6499,2.6499,2.6499,2.6499,2.6499,2.6555,2.6624,2.6624,2.6705,2.6773,2.6773,2.6773,2.6773,2.6773,2.6773,2.6671,2.6499,2.6499,2.6499,2.6499,2.6499,2.6499,2.6499,2.6499,2.6499,2.6499,2.6499,2.6555,2.6624,2.6692,2.676,2.6952]}]]